Wetterdaten: aktuell Montag, 17.06.2019 13:13
Datum Zeit Temp. A. Feuchte A. Luftdruck Regen Wind Richtung Richtung Sonnenschein UV Solar Taupunkt Windchill Windben Empfang
17.06.2019 13:13 23,2 C 63 % 1020,6 hPa 0,0 l/m 6,2 kts (2 Bft) NO 36 1 min 4,0 UV-I 606 W/m 15,8 C 21,8 C 7,8 kts (3 Bft) 100,00 %
17.06.2019 13:12 23,3 C 63 % 1020,6 hPa 0,0 l/m 7,0 kts (3 Bft) NO 37 1 min 4,0 UV-I 543 W/m 15,9 C 21,6 C 8,7 kts (3 Bft) 95,83 %
17.06.2019 13:11 23,3 C 64 % 1020,6 hPa 0,0 l/m 6,9 kts (3 Bft) NO 38 1 min 4,4 UV-I 798 W/m 16,1 C 21,7 C 8,7 kts (3 Bft) 100,00 %
17.06.2019 13:10 23,3 C 62 % 1020,6 hPa 0,0 l/m 7,7 kts (3 Bft) N-NO 30 1 min 5,1 UV-I 615 W/m 15,6 C 21,4 C 8,7 kts (3 Bft) 96,15 %
17.06.2019 13:09 23,4 C 64 % 1020,5 hPa 0,0 l/m 8,6 kts (3 Bft) NO 36 1 min 4,9 UV-I 615 W/m 16,2 C 21,2 C 10,4 kts (3 Bft) 100,00 %
17.06.2019 13:08 23,3 C 66 % 1020,5 hPa 0,0 l/m 10,8 kts (4 Bft) N-NO 32 1 min 6,3 UV-I 615 W/m 16,6 C 20,5 C 13,0 kts (4 Bft) 92,86 %
17.06.2019 13:07 23,1 C 65 % 1020,6 hPa 0,0 l/m 8,5 kts (3 Bft) NO 39 1 min 4,5 UV-I 615 W/m 16,2 C 20,9 C 9,6 kts (3 Bft) 100,00 %
17.06.2019 13:06 23,0 C 64 % 1020,6 hPa 0,0 l/m 9,2 kts (3 Bft) NO 37 1 min 4,4 UV-I 601 W/m 15,8 C 20,5 C 12,1 kts (4 Bft) 96,15 %
17.06.2019 13:05 22,9 C 66 % 1020,6 hPa 0,0 l/m 10,7 kts (3 Bft) NO 42 1 min 4,9 UV-I 601 W/m 16,2 C 20,0 C 12,1 kts (4 Bft) 95,83 %
17.06.2019 13:04 22,8 C 66 % 1020,6 hPa 0,0 l/m 8,2 kts (3 Bft) NO 36 1 min 4,5 UV-I 601 W/m 16,1 C 20,6 C 10,4 kts (3 Bft) 100,00 %
17.06.2019 13:03 22,7 C 67 % 1020,6 hPa 0,0 l/m 7,3 kts (3 Bft) NO 34 1 min 4,1 UV-I 540 W/m 16,2 C 20,8 C 8,7 kts (3 Bft) 95,65 %
17.06.2019 13:02 22,7 C 67 % 1020,6 hPa 0,0 l/m 5,8 kts (2 Bft) NO 44 1 min 4,0 UV-I 522 W/m 16,2 C 21,4 C 7,8 kts (3 Bft) 100,00 %
17.06.2019 13:01 22,5 C 66 % 1020,5 hPa 0,0 l/m 3,9 kts (2 Bft) N-NO 32 1 min 4,0 UV-I 520 W/m 15,8 C 22,2 C 5,2 kts (2 Bft) 81,82 %
17.06.2019 13:00 22,4 C 65 % 1020,5 hPa 0,0 l/m 6,0 kts (2 Bft) N-NO 31 1 min 4,0 UV-I 526 W/m 15,5 C 21,0 C 7,8 kts (3 Bft) 100,00 %
17.06.2019 12:59 22,4 C 65 % 1020,5 hPa 0,0 l/m 8,4 kts (3 Bft) N-NO 18 1 min 3,9 UV-I 499 W/m 15,5 C 20,0 C 9,6 kts (3 Bft) 95,65 %
17.06.2019 12:58 22,4 C 65 % 1020,6 hPa 0,0 l/m 8,7 kts (3 Bft) N-NO 18 1 min 3,7 UV-I 478 W/m 15,5 C 19,9 C 10,4 kts (3 Bft) 100,00 %
17.06.2019 12:57 22,3 C 65 % 1020,5 hPa 0,0 l/m 6,5 kts (2 Bft) NO 34 1 min 3,7 UV-I 478 W/m 15,4 C 20,7 C 7,8 kts (3 Bft) 100,00 %
17.06.2019 12:56 22,2 C 65 % 1020,6 hPa 0,0 l/m 8,9 kts (3 Bft) NO 35 1 min 3,7 UV-I 468 W/m 15,3 C 19,6 C 10,4 kts (3 Bft) 100,00 %
17.06.2019 12:55 22,1 C 66 % 1020,6 hPa 0,0 l/m 8,9 kts (3 Bft) NO 35 1 min 3,9 UV-I 475 W/m 15,4 C 19,5 C 9,6 kts (3 Bft) 100,00 %
17.06.2019 12:54 21,9 C 68 % 1020,6 hPa 0,0 l/m 8,2 kts (3 Bft) NO 37 1 min 4,1 UV-I 490 W/m 15,7 C 19,5 C 10,4 kts (3 Bft) 100,00 %
17.06.2019 12:53 21,7 C 65 % 1020,6 hPa 0,0 l/m 3,5 kts (2 Bft) NO 44 1 min 3,8 UV-I 490 W/m 14,8 C 21,7 C 5,2 kts (2 Bft) 100,00 %
17.06.2019 12:52 21,9 C 63 % 1020,5 hPa 0,0 l/m 2,9 kts (1 Bft) NO 53 1 min 3,8 UV-I 494 W/m 14,5 C 21,9 C 5,2 kts (2 Bft) 100,00 %
17.06.2019 12:51 22,1 C 63 % 1020,6 hPa 0,0 l/m 3,8 kts (2 Bft) NO 53 1 min 4,0 UV-I 691 W/m 14,7 C 21,9 C 5,2 kts (2 Bft) 100,00 %
17.06.2019 12:50 22,3 C 64 % 1020,6 hPa 0,0 l/m 5,3 kts (2 Bft) NO 55 1 min 4,4 UV-I 691 W/m 15,2 C 21,2 C 7,0 kts (3 Bft) 100,00 %
17.06.2019 12:49 22,3 C 66 % 1020,5 hPa 0,0 l/m 6,0 kts (2 Bft) NO 46 1 min 5,4 UV-I 548 W/m 15,6 C 20,9 C 7,8 kts (3 Bft) 100,00 %
17.06.2019 12:48 22,2 C 65 % 1020,6 hPa 0,0 l/m 5,2 kts (2 Bft) NO 38 1 min 4,3 UV-I 548 W/m 15,3 C 21,2 C 6,1 kts (2 Bft) 100,00 %
17.06.2019 12:47 22,1 C 65 % 1020,5 hPa 0,0 l/m 4,3 kts (2 Bft) NO 41 1 min 3,8 UV-I 504 W/m 15,2 C 21,6 C 5,2 kts (2 Bft) 100,00 %
17.06.2019 12:46 21,9 C 65 % 1020,6 hPa 0,0 l/m 5,8 kts (2 Bft) NO 41 1 min 3,5 UV-I 439 W/m 15,0 C 20,5 C 7,8 kts (3 Bft) 100,00 %
17.06.2019 12:45 21,8 C 66 % 1020,6 hPa 0,0 l/m 6,6 kts (3 Bft) N-NO 32 1 min 3,3 UV-I 399 W/m 15,2 C 20,0 C 7,8 kts (3 Bft) 100,00 %
17.06.2019 12:44 21,8 C 66 % 1020,6 hPa 0,0 l/m 4,5 kts (2 Bft) N-NO 23 1 min 3,2 UV-I 390 W/m 15,2 C 21,1 C 5,2 kts (2 Bft) 100,00 %
17.06.2019 12:43 21,8 C 64 % 1020,6 hPa 0,0 l/m 5,8 kts (2 Bft) N-NO 23 1 min 3,1 UV-I 392 W/m 14,7 C 20,4 C 7,0 kts (3 Bft) 100,00 %
17.06.2019 12:42 21,9 C 64 % 1020,6 hPa 0,0 l/m 5,5 kts (2 Bft) N-NO 23 1 min 3,1 UV-I 378 W/m 14,8 C 20,7 C 7,0 kts (3 Bft) 100,00 %
17.06.2019 12:41 22,0 C 64 % 1020,6 hPa 0,0 l/m 6,2 kts (2 Bft) N-NO 15 1 min 3,0 UV-I 367 W/m 14,9 C 20,5 C 7,8 kts (3 Bft) 100,00 %
17.06.2019 12:40 22,1 C 66 % 1020,6 hPa 0,0 l/m 6,2 kts (2 Bft) N-NO 24 1 min 2,9 UV-I 366 W/m 15,4 C 20,6 C 7,0 kts (3 Bft) 96,15 %
17.06.2019 12:39 22,1 C 65 % 1020,7 hPa 0,0 l/m 5,7 kts (2 Bft) N-NO 24 1 min 3,0 UV-I 369 W/m 15,2 C 20,8 C 7,8 kts (3 Bft) 100,00 %
17.06.2019 12:38 21,9 C 66 % 1020,6 hPa 0,0 l/m 5,6 kts (2 Bft) NO 34 1 min 3,0 UV-I 373 W/m 15,3 C 20,7 C 7,0 kts (3 Bft) 100,00 %
17.06.2019 12:37 21,8 C 68 % 1020,6 hPa 0,0 l/m 4,4 kts (2 Bft) NO 38 1 min 3,1 UV-I 390 W/m 15,6 C 21,2 C 6,1 kts (2 Bft) 100,00 %
17.06.2019 12:36 21,8 C 67 % 1020,5 hPa 0,0 l/m 3,2 kts (2 Bft) NO 51 1 min 3,1 UV-I 397 W/m 15,4 C 21,8 C 4,3 kts (2 Bft) 100,00 %
17.06.2019 12:35 21,9 C 65 % 1020,6 hPa 0,0 l/m 2,9 kts (1 Bft) NO 51 1 min 3,1 UV-I 408 W/m 15,0 C 21,9 C 4,3 kts (2 Bft) 100,00 %
17.06.2019 12:34 21,9 C 65 % 1020,6 hPa 0,0 l/m 1,7 kts (1 Bft) N-NO 26 1 min 3,2 UV-I 418 W/m 15,0 C 21,9 C 3,5 kts (2 Bft) 100,00 %
17.06.2019 12:33 22,0 C 65 % 1020,6 hPa 0,0 l/m 3,3 kts (2 Bft) N-NO 26 1 min 3,2 UV-I 425 W/m 15,1 C 22,0 C 4,3 kts (2 Bft) 100,00 %
17.06.2019 12:32 22,1 C 65 % 1020,6 hPa 0,0 l/m 3,9 kts (2 Bft) N-NO 26 1 min 3,2 UV-I 425 W/m 15,2 C 21,8 C 4,3 kts (2 Bft) 100,00 %
17.06.2019 12:31 22,1 C 65 % 1020,6 hPa 0,0 l/m 4,8 kts (2 Bft) N-NO 26 1 min 3,2 UV-I 415 W/m 15,2 C 21,3 C 5,2 kts (2 Bft) 100,00 %
17.06.2019 12:30 22,1 C 65 % 1020,6 hPa 0,0 l/m 5,6 kts (2 Bft) N-NO 26 1 min 3,1 UV-I 411 W/m 15,2 C 20,9 C 7,0 kts (3 Bft) 97,14 %
17.06.2019 12:29 21,9 C 67 % 1020,6 hPa 0,0 l/m 4,0 kts (2 Bft) N-NO 28 1 min 3,1 UV-I 411 W/m 15,5 C 21,5 C 5,2 kts (2 Bft) 100,00 %
17.06.2019 12:28 21,8 C 68 % 1020,6 hPa 0,0 l/m 4,2 kts (2 Bft) N-NO 28 1 min 3,1 UV-I 415 W/m 15,6 C 21,3 C 5,2 kts (2 Bft) 100,00 %
17.06.2019 12:27 21,8 C 65 % 1020,7 hPa 0,0 l/m 4,3 kts (2 Bft) N-NO 24 1 min 3,2 UV-I 422 W/m 14,9 C 21,3 C 5,2 kts (2 Bft) 100,00 %
17.06.2019 12:26 21,8 C 64 % 1020,7 hPa 0,0 l/m 5,7 kts (2 Bft) N-NO 26 1 min 3,1 UV-I 418 W/m 14,7 C 20,5 C 7,0 kts (3 Bft) 100,00 %
17.06.2019 12:25 21,8 C 65 % 1020,7 hPa 0,0 l/m 5,2 kts (2 Bft) N-NO 26 1 min 3,1 UV-I 411 W/m 14,9 C 20,7 C 6,1 kts (2 Bft) 96,15 %
17.06.2019 12:24 21,8 C 64 % 1020,7 hPa 0,0 l/m 4,0 kts (2 Bft) N-NO 32 1 min 3,0 UV-I 397 W/m 14,7 C 21,4 C 5,2 kts (2 Bft) 100,00 %
17.06.2019 12:23 21,9 C 64 % 1020,7 hPa 0,0 l/m 3,6 kts (2 Bft) N-NO 33 1 min 2,9 UV-I 383 W/m 14,8 C 21,8 C 5,2 kts (2 Bft) 98,94 %
17.06.2019 12:22 22,1 C 63 % 1020,7 hPa 0,0 l/m 4,8 kts (2 Bft) N-NO 33 1 min 2,8 UV-I 369 W/m 14,7 C 21,3 C 5,2 kts (2 Bft) 100,00 %
17.06.2019 12:21 22,3 C 64 % 1020,7 hPa 0,0 l/m 4,9 kts (2 Bft) N-NO 33 1 min 2,8 UV-I 362 W/m 15,2 C 21,5 C 7,0 kts (3 Bft) 100,00 %
17.06.2019 12:20 22,3 C 63 % 1020,6 hPa 0,0 l/m 6,8 kts (3 Bft) N-NO 33 1 min 2,8 UV-I 381 W/m 14,9 C 20,5 C 7,8 kts (3 Bft) 100,00 %
17.06.2019 12:19 22,1 C 66 % 1020,6 hPa 0,0 l/m 7,0 kts (3 Bft) N-NO 32 1 min 2,9 UV-I 406 W/m 15,4 C 20,2 C 9,6 kts (3 Bft) 100,00 %
17.06.2019 12:18 22,1 C 65 % 1020,7 hPa 0,0 l/m 8,2 kts (3 Bft) N-NO 22 1 min 3,1 UV-I 425 W/m 15,2 C 19,8 C 8,7 kts (3 Bft) 100,00 %
17.06.2019 12:17 22,1 C 65 % 1020,7 hPa 0,0 l/m 3,3 kts (2 Bft) N-NO 23 1 min 3,2 UV-I 445 W/m 15,2 C 22,1 C 8,7 kts (3 Bft) 100,00 %
17.06.2019 12:16 22,1 C 65 % 1020,7 hPa 0,0 l/m 3,2 kts (2 Bft) N-NO 25 1 min 3,3 UV-I 462 W/m 15,2 C 22,1 C 4,3 kts (2 Bft) 100,00 %
17.06.2019 12:15 22,2 C 66 % 1020,7 hPa 0,0 l/m 2,8 kts (1 Bft) NO 55 1 min 3,5 UV-I 475 W/m 15,5 C 22,2 C 3,5 kts (2 Bft) 100,00 %
17.06.2019 12:14 22,0 C 68 % 1020,7 hPa 0,0 l/m 2,2 kts (1 Bft) O-NO 62 1 min 3,5 UV-I 482 W/m 15,8 C 22,0 C 3,5 kts (2 Bft) 100,00 %
17.06.2019 12:13 22,0 C 68 % 1020,7 hPa 0,0 l/m 3,9 kts (2 Bft) O-NO 65 1 min 3,4 UV-I 454 W/m 15,8 C 21,7 C 5,2 kts (2 Bft) 92,86 %
17.06.2019 12:12 22,1 C 65 % 1020,7 hPa 0,0 l/m 4,1 kts (2 Bft) NO 55 1 min 3,3 UV-I 454 W/m 15,2 C 21,7 C 6,1 kts (2 Bft) 100,00 %
17.06.2019 12:11 22,2 C 64 % 1020,7 hPa 0,0 l/m 5,9 kts (2 Bft) NO 37 1 min 3,2 UV-I 450 W/m 15,1 C 20,8 C 7,8 kts (3 Bft) 100,00 %
17.06.2019 12:10 22,2 C 65 % 1020,7 hPa 0,0 l/m 8,0 kts (3 Bft) N-NO 32 1 min 3,2 UV-I 448 W/m 15,3 C 20,0 C 9,6 kts (3 Bft) 100,00 %
17.06.2019 12:09 22,1 C 65 % 1020,7 hPa 0,0 l/m 7,9 kts (3 Bft) N-NO 25 1 min 3,2 UV-I 438 W/m 15,2 C 19,9 C 9,6 kts (3 Bft) 100,00 %
17.06.2019 12:08 22,1 C 65 % 1020,7 hPa 0,0 l/m 7,5 kts (3 Bft) N-NO 20 1 min 3,5 UV-I 482 W/m 15,2 C 20,0 C 8,7 kts (3 Bft) 100,00 %
17.06.2019 12:07 22,1 C 64 % 1020,7 hPa 0,0 l/m 8,7 kts (3 Bft) N-NO 24 1 min 3,4 UV-I 482 W/m 15,0 C 19,6 C 9,6 kts (3 Bft) 100,00 %
17.06.2019 12:06 22,1 C 64 % 1020,8 hPa 0,0 l/m 8,2 kts (3 Bft) N-NO 22 1 min 3,6 UV-I 476 W/m 15,0 C 19,8 C 8,7 kts (3 Bft) 100,00 %
17.06.2019 12:05 22,2 C 64 % 1020,8 hPa 0,0 l/m 6,7 kts (3 Bft) N-NO 19 1 min 3,2 UV-I 448 W/m 15,1 C 20,4 C 9,6 kts (3 Bft) 100,00 %
17.06.2019 12:04 22,2 C 64 % 1020,8 hPa 0,0 l/m 4,2 kts (2 Bft) N-NO 22 1 min 3,3 UV-I 448 W/m 15,1 C 21,8 C 7,0 kts (3 Bft) 100,00 %
17.06.2019 12:03 22,2 C 63 % 1020,7 hPa 0,0 l/m 6,8 kts (3 Bft) N-NO 28 1 min 3,1 UV-I 418 W/m 14,8 C 20,4 C 7,8 kts (3 Bft) 100,00 %
17.06.2019 12:02 22,2 C 63 % 1020,7 hPa 0,0 l/m 7,8 kts (3 Bft) N-NO 28 1 min 3,0 UV-I 408 W/m 14,8 C 20,0 C 8,7 kts (3 Bft) 95,83 %
17.06.2019 12:01 22,2 C 65 % 1020,7 hPa 0,0 l/m 7,8 kts (3 Bft) N-NO 31 1 min 3,1 UV-I 417 W/m 15,3 C 20,0 C 9,6 kts (3 Bft) 96,15 %
17.06.2019 12:00 22,2 C 64 % 1020,8 hPa 0,0 l/m 7,4 kts (3 Bft) N-NO 26 1 min 3,1 UV-I 431 W/m 15,1 C 20,2 C 8,7 kts (3 Bft) 100,00 %
17.06.2019 11:59 22,2 C 65 % 1020,7 hPa 0,0 l/m 6,8 kts (3 Bft) NO 37 1 min 3,2 UV-I 450 W/m 15,3 C 20,4 C 7,8 kts (3 Bft) 100,00 %
17.06.2019 11:58 22,2 C 64 % 1020,8 hPa 0,0 l/m 7,0 kts (3 Bft) N-NO 28 1 min 3,3 UV-I 452 W/m 15,1 C 20,4 C 8,7 kts (3 Bft) 100,00 %
17.06.2019 11:57 22,2 C 65 % 1020,8 hPa 0,0 l/m 6,4 kts (2 Bft) NO 38 1 min 3,3 UV-I 443 W/m 15,3 C 20,6 C 8,7 kts (3 Bft) 95,83 %
17.06.2019 11:56 22,1 C 64 % 1020,8 hPa 0,0 l/m 7,3 kts (3 Bft) N-NO 29 1 min 3,4 UV-I 443 W/m 15,0 C 20,1 C 8,7 kts (3 Bft) 100,00 %
17.06.2019 11:55 21,9 C 65 % 1020,8 hPa 0,0 l/m 7,5 kts (3 Bft) N-NO 29 1 min 4,7 UV-I 744 W/m 15,0 C 19,8 C 8,7 kts (3 Bft) 95,83 %
17.06.2019 11:54 21,9 C 65 % 1020,7 hPa 0,0 l/m 5,2 kts (2 Bft) NO 34 1 min 4,3 UV-I 454 W/m 15,0 C 20,8 C 7,0 kts (3 Bft) 100,00 %
17.06.2019 11:53 22,0 C 63 % 1020,7 hPa 0,0 l/m 5,9 kts (2 Bft) NO 34 1 min 3,5 UV-I 454 W/m 14,6 C 20,6 C 7,8 kts (3 Bft) 95,83 %
17.06.2019 11:52 22,2 C 65 % 1020,7 hPa 0,0 l/m 6,5 kts (2 Bft) NO 37 1 min 3,2 UV-I 415 W/m 15,3 C 20,6 C 7,8 kts (3 Bft) 100,00 %
17.06.2019 11:51 22,1 C 65 % 1020,8 hPa 0,0 l/m 8,7 kts (3 Bft) NO 38 1 min 3,0 UV-I 397 W/m 15,2 C 19,6 C 9,6 kts (3 Bft) 95,65 %
17.06.2019 11:50 22,1 C 64 % 1020,8 hPa 0,0 l/m 8,7 kts (3 Bft) NO 37 1 min 3,0 UV-I 376 W/m 15,0 C 19,6 C 9,6 kts (3 Bft) 100,00 %
17.06.2019 11:49 22,1 C 62 % 1020,7 hPa 0,0 l/m 6,7 kts (3 Bft) N-NO 31 1 min 3,0 UV-I 374 W/m 14,5 C 20,4 C 8,7 kts (3 Bft) 91,30 %
17.06.2019 11:48 22,2 C 62 % 1020,7 hPa 0,0 l/m 6,5 kts (2 Bft) N-NO 29 1 min 2,9 UV-I 374 W/m 14,6 C 20,5 C 8,7 kts (3 Bft) 95,83 %
17.06.2019 11:47 22,5 C 62 % 1020,8 hPa 0,0 l/m 5,7 kts (2 Bft) N-NO 31 1 min 2,9 UV-I 376 W/m 14,8 C 21,3 C 7,0 kts (3 Bft) 100,00 %
17.06.2019 11:46 22,6 C 62 % 1020,7 hPa 0,0 l/m 5,7 kts (2 Bft) N-NO 26 1 min 3,0 UV-I 387 W/m 14,9 C 21,4 C 7,0 kts (3 Bft) 95,65 %
17.06.2019 11:45 22,7 C 63 % 1020,7 hPa 0,0 l/m 7,5 kts (3 Bft) N-NO 28 1 min 2,9 UV-I 371 W/m 15,3 C 20,7 C 8,7 kts (3 Bft) 100,00 %
17.06.2019 11:44 22,7 C 63 % 1020,8 hPa 0,0 l/m 7,1 kts (3 Bft) N-NO 30 1 min 2,9 UV-I 380 W/m 15,3 C 20,9 C 7,8 kts (3 Bft) 92,86 %
17.06.2019 11:43 22,6 C 64 % 1020,7 hPa 0,0 l/m 6,7 kts (3 Bft) N-NO 24 1 min 3,0 UV-I 923 W/m 15,4 C 20,9 C 8,7 kts (3 Bft) 100,00 %
17.06.2019 11:42 22,3 C 66 % 1020,7 hPa 0,0 l/m 5,2 kts (2 Bft) N-NO 18 1 min 4,4 UV-I 923 W/m 15,6 C 21,3 C 7,8 kts (3 Bft) 95,65 %
17.06.2019 11:41 22,1 C 65 % 1020,7 hPa 0,0 l/m 6,9 kts (3 Bft) NW 311 1 min 5,4 UV-I 527 W/m 15,2 C 20,3 C 7,8 kts (3 Bft) 100,00 %
17.06.2019 11:40 22,0 C 63 % 1020,7 hPa 0,0 l/m 5,4 kts (2 Bft) N-NW 328 1 min 5,2 UV-I 527 W/m 14,6 C 20,8 C 7,8 kts (3 Bft) 95,65 %
17.06.2019 11:39 22,1 C 63 % 1020,7 hPa 0,0 l/m 6,5 kts (2 Bft) N-NO 25 1 min 3,2 UV-I 527 W/m 14,7 C 20,4 C 7,8 kts (3 Bft) 100,00 %
17.06.2019 11:38 22,2 C 62 % 1020,7 hPa 0,0 l/m 5,8 kts (2 Bft) N-NO 25 1 min 3,1 UV-I 404 W/m 14,6 C 20,9 C 7,0 kts (3 Bft) 95,83 %
17.06.2019 11:37 22,3 C 62 % 1020,7 hPa 0,0 l/m 4,0 kts (2 Bft) N-NO 31 1 min 3,2 UV-I 621 W/m 14,7 C 22,0 C 7,0 kts (3 Bft) 91,30 %
17.06.2019 11:36 22,3 C 61 % 1020,7 hPa 0,0 l/m 4,3 kts (2 Bft) N-NO 17 1 min 3,9 UV-I 621 W/m 14,4 C 21,8 C 6,1 kts (2 Bft) 100,00 %
17.06.2019 11:35 22,2 C 63 % 1020,8 hPa 0,0 l/m 6,1 kts (2 Bft) N-NO 25 1 min 4,3 UV-I 508 W/m 14,8 C 20,7 C 7,8 kts (3 Bft) 96,15 %
17.06.2019 11:34 22,2 C 62 % 1020,8 hPa 0,0 l/m 6,5 kts (2 Bft) N-NO 17 1 min 5,1 UV-I 508 W/m 14,6 C 20,6 C 7,8 kts (3 Bft) 100,00 %
17.06.2019 11:33 22,1 C 64 % 1020,8 hPa 0,0 l/m 7,6 kts (3 Bft) N-NO 17 1 min 4,9 UV-I 508 W/m 15,0 C 20,0 C 8,7 kts (3 Bft) 100,00 %
17.06.2019 11:32 21,9 C 68 % 1020,8 hPa 0,0 l/m 7,0 kts (3 Bft) N-NO 28 1 min 3,8 UV-I 508 W/m 15,7 C 20,0 C 8,7 kts (3 Bft) 100,00 %
17.06.2019 11:31 21,4 C 68 % 1020,8 hPa 0,0 l/m 2,6 kts (1 Bft) N-NO 17 1 min 3,5 UV-I 664 W/m 15,2 C 21,4 C 6,1 kts (2 Bft) 96,67 %
17.06.2019 11:30 21,1 C 66 % 1020,8 hPa 0,0 l/m 5,8 kts (2 Bft) N-NO 14 1 min 4,4 UV-I 664 W/m 14,5 C 19,6 C 7,8 kts (3 Bft) 100,00 %
17.06.2019 11:29 21,2 C 66 % 1020,8 hPa 0,0 l/m 1,6 kts (1 Bft) NO 51 1 min 4,6 UV-I 664 W/m 14,6 C 21,2 C 2,6 kts (1 Bft) 100,00 %
17.06.2019 11:28 21,4 C 65 % 1020,7 hPa 0,0 l/m 2,3 kts (1 Bft) NO 51 1 min 4,6 UV-I 664 W/m 14,5 C 21,4 C 3,5 kts (2 Bft) 100,00 %
17.06.2019 11:27 21,6 C 65 % 1020,8 hPa 0,0 l/m 3,5 kts (2 Bft) NO 51 1 min 4,2 UV-I 680 W/m 14,7 C 21,6 C 5,2 kts (2 Bft) 100,00 %
17.06.2019 11:26 22,0 C 62 % 1020,7 hPa 0,0 l/m 4,0 kts (2 Bft) NO 44 1 min 3,4 UV-I 429 W/m 14,4 C 21,7 C 5,2 kts (2 Bft) 100,00 %
17.06.2019 11:25 22,3 C 63 % 1020,7 hPa 0,0 l/m 4,0 kts (2 Bft) NO 44 1 min 3,7 UV-I 522 W/m 14,9 C 21,9 C 5,2 kts (2 Bft) 95,65 %
17.06.2019 11:24 22,5 C 62 % 1020,8 hPa 0,0 l/m 4,3 kts (2 Bft) NO 44 1 min 5,2 UV-I 522 W/m 14,8 C 22,0 C 5,2 kts (2 Bft) 100,00 %
17.06.2019 11:23 22,7 C 64 % 1020,8 hPa 0,0 l/m 5,7 kts (2 Bft) NO 44 1 min 4,0 UV-I 522 W/m 15,5 C 21,5 C 7,8 kts (3 Bft) 100,00 %
17.06.2019 11:22 22,6 C 64 % 1020,8 hPa 0,0 l/m 4,3 kts (2 Bft) NO 53 1 min 3,7 UV-I 916 W/m 15,4 C 22,1 C 4,3 kts (2 Bft) 98,99 %
17.06.2019 11:21 22,6 C 67 % 1020,9 hPa 0,0 l/m 1,9 kts (1 Bft) N-NO 15 1 min 4,9 UV-I 916 W/m 16,2 C 22,6 C 2,6 kts (1 Bft) 100,00 %
17.06.2019 11:20 22,7 C 63 % 1020,8 hPa 0,0 l/m 3,5 kts (2 Bft) N-NO 23 1 min 5,4 UV-I 988 W/m 15,3 C 22,7 C 3,5 kts (2 Bft) 98,99 %
17.06.2019 11:19 22,6 C 64 % 1020,8 hPa 0,0 l/m 3,9 kts (2 Bft) N-NO 23 1 min 5,5 UV-I 1011 W/m 15,4 C 22,3 C 4,3 kts (2 Bft) 100,00 %
17.06.2019 11:18 22,4 C 66 % 1020,8 hPa 0,0 l/m 3,8 kts (2 Bft) N-NO 27 1 min 5,6 UV-I 1018 W/m 15,7 C 22,2 C 5,2 kts (2 Bft) 100,00 %
17.06.2019 11:17 22,2 C 66 % 1020,8 hPa 0,0 l/m 5,9 kts (2 Bft) N-NO 26 1 min 5,6 UV-I 462 W/m 15,5 C 20,8 C 7,8 kts (3 Bft) 100,00 %
17.06.2019 11:16 22,0 C 67 % 1020,8 hPa 0,0 l/m 3,9 kts (2 Bft) N-NO 26 1 min 4,9 UV-I 462 W/m 15,6 C 21,7 C 7,0 kts (3 Bft) 98,98 %
17.06.2019 11:15 21,8 C 67 % 1020,8 hPa 0,0 l/m 5,8 kts (2 Bft) N-NO 16 1 min 4,0 UV-I 462 W/m 15,4 C 20,4 C 7,8 kts (3 Bft) 100,00 %
17.06.2019 11:14 21,8 C 67 % 1020,8 hPa 0,0 l/m 7,5 kts (3 Bft) N-NO 33 1 min 3,3 UV-I 462 W/m 15,4 C 19,7 C 8,7 kts (3 Bft) 100,00 %
17.06.2019 11:13 21,8 C 67 % 1020,8 hPa 0,0 l/m 5,7 kts (2 Bft) NO 41 1 min 3,1 UV-I 387 W/m 15,4 C 20,5 C 7,8 kts (3 Bft) 92,86 %
17.06.2019 11:12 21,9 C 67 % 1020,8 hPa 0,0 l/m 4,9 kts (2 Bft) NO 40 1 min 2,9 UV-I 371 W/m 15,5 C 21,0 C 6,1 kts (2 Bft) 100,00 %
17.06.2019 11:11 22,1 C 66 % 1020,8 hPa 0,0 l/m 2,8 kts (1 Bft) N-NO 24 1 min 2,8 UV-I 362 W/m 15,4 C 22,1 C 6,1 kts (2 Bft) 100,00 %
17.06.2019 11:10 22,3 C 64 % 1020,8 hPa 0,0 l/m 5,0 kts (2 Bft) O-NO 61 1 min 2,9 UV-I 406 W/m 15,2 C 21,4 C 7,0 kts (3 Bft) 100,00 %
17.06.2019 11:09 22,6 C 64 % 1020,8 hPa 0,0 l/m 5,9 kts (2 Bft) O-NO 59 1 min 2,8 UV-I 1013 W/m 15,4 C 21,3 C 8,7 kts (3 Bft) 100,00 %
17.06.2019 11:08 22,6 C 68 % 1020,9 hPa 0,0 l/m 4,0 kts (2 Bft) NO 35 1 min 3,3 UV-I 1013 W/m 16,4 C 22,3 C 5,2 kts (2 Bft) 100,00 %
17.06.2019 11:07 22,4 C 66 % 1020,9 hPa 0,0 l/m 6,6 kts (2 Bft) N-NO 30 1 min 4,9 UV-I 1013 W/m 15,7 C 20,7 C 7,8 kts (3 Bft) 100,00 %
17.06.2019 11:06 22,4 C 65 % 1020,9 hPa 0,0 l/m 7,3 kts (3 Bft) N-NO 26 1 min 4,9 UV-I 1000 W/m 15,5 C 20,5 C 8,7 kts (3 Bft) 100,00 %
17.06.2019 11:05 22,3 C 65 % 1020,8 hPa 0,0 l/m 8,0 kts (3 Bft) NO 42 1 min 4,9 UV-I 991 W/m 15,4 C 20,1 C 9,6 kts (3 Bft) 100,00 %
17.06.2019 11:04 22,3 C 64 % 1020,8 hPa 0,0 l/m 8,7 kts (3 Bft) NO 53 1 min 4,9 UV-I 990 W/m 15,2 C 19,8 C 10,4 kts (3 Bft) 100,00 %
17.06.2019 11:03 22,2 C 67 % 1020,8 hPa 0,0 l/m 2,4 kts (1 Bft) NO 55 1 min 5,0 UV-I 1007 W/m 15,8 C 22,2 C 6,1 kts (2 Bft) 100,00 %
17.06.2019 11:02 22,1 C 66 % 1020,8 hPa 0,0 l/m 1,9 kts (1 Bft) N-NO 32 1 min 4,8 UV-I 977 W/m 15,4 C 22,1 C 2,6 kts (1 Bft) 100,00 %
17.06.2019 11:01 22,2 C 67 % 1020,9 hPa 0,0 l/m 3,4 kts (2 Bft) N-NO 32 1 min 4,9 UV-I 990 W/m 15,8 C 22,2 C 4,3 kts (2 Bft) 95,65 %
17.06.2019 11:00 22,1 C 66 % 1020,9 hPa 0,0 l/m 4,6 kts (2 Bft) N-NO 32 1 min 4,8 UV-I 995 W/m 15,4 C 21,4 C 7,8 kts (3 Bft) 100,00 %
17.06.2019 10:59 21,9 C 68 % 1020,9 hPa 0,0 l/m 6,9 kts (3 Bft) N-NO 15 1 min 4,8 UV-I 983 W/m 15,7 C 20,0 C 9,6 kts (3 Bft) 100,00 %
17.06.2019 10:58 21,8 C 65 % 1020,9 hPa 0,0 l/m 7,1 kts (3 Bft) N-NO 13 1 min 2,7 UV-I 330 W/m 14,9 C 19,8 C 8,7 kts (3 Bft) 100,00 %
17.06.2019 10:57 21,9 C 65 % 1020,9 hPa 0,0 l/m 3,2 kts (2 Bft) N-NO 20 1 min 2,5 UV-I 318 W/m 15,0 C 21,9 C 7,8 kts (3 Bft) 100,00 %
17.06.2019 10:56 21,9 C 64 % 1020,9 hPa 0,0 l/m 2,6 kts (1 Bft) N 360 1 min 2,6 UV-I 719 W/m 14,8 C 21,9 C 3,5 kts (2 Bft) 100,00 %
17.06.2019 10:55 22,0 C 63 % 1020,9 hPa 0,0 l/m 3,1 kts (1 Bft) N 360 1 min 4,1 UV-I 719 W/m 14,6 C 22,0 C 3,5 kts (2 Bft) 100,00 %
17.06.2019 10:54 22,2 C 63 % 1021,0 hPa 0,0 l/m 4,6 kts (2 Bft) N-NW 328 1 min 3,5 UV-I 949 W/m 14,8 C 21,5 C 7,0 kts (3 Bft) 100,00 %
17.06.2019 10:53 22,3 C 64 % 1021,0 hPa 0,0 l/m 4,2 kts (2 Bft) N 11 1 min 3,8 UV-I 949 W/m 15,2 C 21,8 C 7,0 kts (3 Bft) 100,00 %
17.06.2019 10:52 22,3 C 64 % 1020,9 hPa 0,0 l/m 2,5 kts (1 Bft) N-NO 23 1 min 4,6 UV-I 949 W/m 15,2 C 22,3 C 4,3 kts (2 Bft) 100,00 %
17.06.2019 10:51 22,1 C 64 % 1020,9 hPa 0,0 l/m 4,1 kts (2 Bft) N-NO 24 1 min 4,6 UV-I 919 W/m 15,0 C 21,7 C 5,2 kts (2 Bft) 100,00 %
17.06.2019 10:50 21,9 C 66 % 1020,9 hPa 0,0 l/m 5,9 kts (2 Bft) N-NO 30 1 min 4,7 UV-I 886 W/m 15,3 C 20,5 C 7,8 kts (3 Bft) 100,00 %
17.06.2019 10:49 21,8 C 66 % 1020,9 hPa 0,0 l/m 6,5 kts (2 Bft) NO 35 1 min 4,8 UV-I 916 W/m 15,2 C 20,1 C 8,7 kts (3 Bft) 95,65 %
17.06.2019 10:48 21,4 C 69 % 1020,9 hPa 0,0 l/m 6,6 kts (2 Bft) N-NO 24 1 min 4,6 UV-I 919 W/m 15,5 C 19,6 C 8,7 kts (3 Bft) 100,00 %
17.06.2019 10:47 20,9 C 69 % 1020,9 hPa 0,0 l/m 5,0 kts (2 Bft) NO 47 1 min 4,8 UV-I 933 W/m 15,0 C 19,9 C 6,1 kts (2 Bft) 100,00 %
17.06.2019 10:46 20,8 C 67 % 1020,9 hPa 0,0 l/m 4,8 kts (2 Bft) NO 46 1 min 4,8 UV-I 933 W/m 14,4 C 19,9 C 6,1 kts (2 Bft) 100,00 %
17.06.2019 10:45 20,8 C 67 % 1020,8 hPa 0,0 l/m 3,7 kts (2 Bft) NO 53 1 min 4,8 UV-I 919 W/m 14,4 C 20,7 C 5,2 kts (2 Bft) 100,00 %
17.06.2019 10:44 20,8 C 66 % 1020,8 hPa 0,0 l/m 1,7 kts (1 Bft) NO 49 1 min 4,8 UV-I 911 W/m 14,2 C 20,8 C 2,6 kts (1 Bft) 95,65 %
17.06.2019 10:43 20,9 C 66 % 1020,9 hPa 0,0 l/m 1,1 kts (1 Bft) NO 49 1 min 4,7 UV-I 896 W/m 14,3 C 20,9 C 2,6 kts (1 Bft) 100,00 %
17.06.2019 10:42 21,1 C 65 % 1020,8 hPa 0,0 l/m 3,3 kts (2 Bft) NO 49 1 min 4,7 UV-I 889 W/m 14,3 C 21,1 C 4,3 kts (2 Bft) 100,00 %
17.06.2019 10:41 21,2 C 65 % 1020,9 hPa 0,0 l/m 2,4 kts (1 Bft) NO 40 1 min 4,6 UV-I 874 W/m 14,4 C 21,2 C 3,5 kts (2 Bft) 93,33 %
17.06.2019 10:40 21,3 C 66 % 1020,9 hPa 0,0 l/m 3,9 kts (2 Bft) N-NO 32 1 min 4,5 UV-I 837 W/m 14,7 C 21,0 C 7,8 kts (3 Bft) 100,00 %
17.06.2019 10:39 21,4 C 66 % 1020,9 hPa 0,0 l/m 5,2 kts (2 Bft) NO 38 1 min 4,5 UV-I 826 W/m 14,8 C 20,3 C 7,8 kts (3 Bft) 100,00 %
17.06.2019 10:38 21,4 C 68 % 1020,9 hPa 0,0 l/m 2,3 kts (1 Bft) NO 49 1 min 4,4 UV-I 819 W/m 15,2 C 21,4 C 5,2 kts (2 Bft) 100,00 %
17.06.2019 10:37 21,3 C 69 % 1021,0 hPa 0,0 l/m 3,3 kts (2 Bft) N-NO 14 1 min 4,4 UV-I 796 W/m 15,4 C 21,3 C 5,2 kts (2 Bft) 96,15 %
17.06.2019 10:36 21,2 C 68 % 1021,0 hPa 0,0 l/m 5,5 kts (2 Bft) N 5 1 min 4,1 UV-I 840 W/m 15,1 C 19,9 C 7,0 kts (3 Bft) 96,15 %
17.06.2019 10:35 20,9 C 70 % 1021,0 hPa 0,0 l/m 3,0 kts (1 Bft) N 11 1 min 3,8 UV-I 714 W/m 15,2 C 20,9 C 6,1 kts (2 Bft) 100,00 %
17.06.2019 10:34 20,6 C 68 % 1021,0 hPa 0,0 l/m 3,7 kts (2 Bft) N 11 1 min 4,0 UV-I 206 W/m 14,5 C 20,4 C 4,3 kts (2 Bft) 96,43 %
17.06.2019 10:33 20,5 C 67 % 1021,0 hPa 0,0 l/m 3,7 kts (2 Bft) N 11 1 min 2,5 UV-I 206 W/m 14,2 C 20,3 C 4,3 kts (2 Bft) 100,00 %
17.06.2019 10:32 20,3 C 70 % 1021,0 hPa 0,0 l/m 3,7 kts (2 Bft) N-NO 23 1 min 3,2 UV-I 206 W/m 14,6 C 20,1 C 4,3 kts (2 Bft) 96,00 %
17.06.2019 10:31 20,3 C 68 % 1021,0 hPa 0,0 l/m 4,8 kts (2 Bft) N-NO 23 1 min 3,2 UV-I 206 W/m 14,2 C 19,3 C 7,8 kts (3 Bft) 100,00 %
17.06.2019 10:30 20,5 C 68 % 1021,0 hPa 0,0 l/m 7,0 kts (3 Bft) N-NO 24 1 min 2,4 UV-I 206 W/m 14,4 C 18,4 C 8,7 kts (3 Bft) 96,15 %
17.06.2019 10:29 20,6 C 70 % 1021,0 hPa 0,0 l/m 5,2 kts (2 Bft) N-NO 24 1 min 2,2 UV-I 188 W/m 14,9 C 19,4 C 7,0 kts (3 Bft) 96,88 %
17.06.2019 10:28 20,7 C 69 % 1021,1 hPa 0,0 l/m 3,1 kts (1 Bft) NO 41 1 min 2,2 UV-I 172 W/m 14,8 C 20,7 C 7,0 kts (3 Bft) 100,00 %
17.06.2019 10:27 20,9 C 68 % 1021,0 hPa 0,0 l/m 2,5 kts (1 Bft) NO 37 1 min 2,2 UV-I 172 W/m 14,8 C 20,9 C 3,5 kts (2 Bft) 96,55 %
17.06.2019 10:26 21,1 C 68 % 1021,0 hPa 0,0 l/m 4,3 kts (2 Bft) NO 37 1 min 2,3 UV-I 766 W/m 15,0 C 20,5 C 5,2 kts (2 Bft) 100,00 %
17.06.2019 10:25 21,3 C 66 % 1021,0 hPa 0,0 l/m 3,6 kts (2 Bft) NO 49 1 min 2,4 UV-I 766 W/m 14,7 C 21,2 C 4,3 kts (2 Bft) 91,30 %
17.06.2019 10:24 21,4 C 68 % 1021,1 hPa 0,0 l/m 4,7 kts (2 Bft) NO 36 1 min 2,4 UV-I 766 W/m 15,2 C 20,6 C 5,2 kts (2 Bft) 100,00 %
17.06.2019 10:23 21,4 C 70 % 1021,0 hPa 0,0 l/m 3,9 kts (2 Bft) NO 34 1 min 4,0 UV-I 766 W/m 15,7 C 21,1 C 6,1 kts (2 Bft) 95,65 %
17.06.2019 10:22 21,2 C 70 % 1021,0 hPa 0,0 l/m 3,3 kts (2 Bft) NO 46 1 min 4,0 UV-I 747 W/m 15,5 C 21,2 C 5,2 kts (2 Bft) 100,00 %
17.06.2019 10:21 21,1 C 67 % 1021,0 hPa 0,0 l/m 2,4 kts (1 Bft) N-NO 28 1 min 3,9 UV-I 740 W/m 14,7 C 21,1 C 3,5 kts (2 Bft) 95,83 %
17.06.2019 10:20 21,2 C 67 % 1021,0 hPa 0,0 l/m 3,5 kts (2 Bft) N-NO 28 1 min 3,9 UV-I 733 W/m 14,8 C 21,2 C 4,3 kts (2 Bft) 95,65 %
17.06.2019 10:19 21,1 C 69 % 1020,9 hPa 0,0 l/m 4,8 kts (2 Bft) NO 35 1 min 4,0 UV-I 735 W/m 15,2 C 20,2 C 7,8 kts (3 Bft) 100,00 %
17.06.2019 10:18 20,9 C 72 % 1020,9 hPa 0,0 l/m 5,3 kts (2 Bft) NO 37 1 min 4,0 UV-I 724 W/m 15,7 C 19,7 C 7,8 kts (3 Bft) 96,15 %
17.06.2019 10:17 20,8 C 72 % 1020,9 hPa 0,0 l/m 5,2 kts (2 Bft) N-NO 24 1 min 3,9 UV-I 714 W/m 15,6 C 19,6 C 7,8 kts (3 Bft) 100,00 %
17.06.2019 10:16 20,8 C 70 % 1021,0 hPa 0,0 l/m 5,2 kts (2 Bft) N 11 1 min 3,7 UV-I 689 W/m 15,1 C 19,6 C 7,0 kts (3 Bft) 96,55 %
17.06.2019 10:15 20,7 C 70 % 1021,0 hPa 0,0 l/m 5,8 kts (2 Bft) N 5 1 min 2,4 UV-I 689 W/m 15,0 C 19,2 C 7,8 kts (3 Bft) 100,00 %
17.06.2019 10:14 20,6 C 71 % 1020,9 hPa 0,0 l/m 5,6 kts (2 Bft) N 5 1 min 3,8 UV-I 689 W/m 15,2 C 19,2 C 7,0 kts (3 Bft) 95,83 %
17.06.2019 10:13 20,4 C 71 % 1020,9 hPa 0,0 l/m 5,3 kts (2 Bft) N 9 1 min 3,8 UV-I 689 W/m 15,0 C 19,1 C 8,7 kts (3 Bft) 92,31 %
17.06.2019 10:12 20,2 C 70 % 1020,9 hPa 0,0 l/m 6,3 kts (2 Bft) N-NW 328 1 min 3,6 UV-I 621 W/m 14,5 C 18,4 C 8,7 kts (3 Bft) 100,00 %
17.06.2019 10:11 20,2 C 71 % 1020,9 hPa 0,0 l/m 3,6 kts (2 Bft) NW 305 1 min 3,7 UV-I 656 W/m 14,8 C 20,1 C 4,3 kts (2 Bft) 100,00 %
17.06.2019 10:10 20,2 C 71 % 1020,9 hPa 0,0 l/m 4,3 kts (2 Bft) O-NO 62 1 min 3,7 UV-I 671 W/m 14,8 C 19,6 C 7,0 kts (3 Bft) 100,00 %
17.06.2019 10:09 20,1 C 73 % 1020,9 hPa 0,0 l/m 2,7 kts (1 Bft) O-NO 69 1 min 3,6 UV-I 659 W/m 15,1 C 20,1 C 7,8 kts (3 Bft) 100,00 %
17.06.2019 10:08 20,2 C 71 % 1020,9 hPa 0,0 l/m 3,7 kts (2 Bft) NO 36 1 min 3,6 UV-I 675 W/m 14,8 C 20,0 C 4,3 kts (2 Bft) 100,00 %
17.06.2019 10:07 20,2 C 74 % 1020,9 hPa 0,0 l/m 5,0 kts (2 Bft) O-NO 61 1 min 3,6 UV-I 675 W/m 15,4 C 19,1 C 7,8 kts (3 Bft) 96,30 %
17.06.2019 10:06 20,1 C 73 % 1020,9 hPa 0,0 l/m 5,9 kts (2 Bft) O-NO 65 1 min 3,6 UV-I 663 W/m 15,1 C 18,5 C 7,0 kts (3 Bft) 100,00 %
17.06.2019 10:05 19,9 C 73 % 1020,9 hPa 0,0 l/m 3,7 kts (2 Bft) O-NO 76 1 min 3,5 UV-I 652 W/m 14,9 C 19,7 C 7,0 kts (3 Bft) 100,00 %
17.06.2019 10:04 20,1 C 71 % 1020,9 hPa 0,0 l/m 7,7 kts (3 Bft) O-NO 59 1 min 3,5 UV-I 663 W/m 14,7 C 17,6 C 8,7 kts (3 Bft) 100,00 %
17.06.2019 10:03 20,2 C 73 % 1021,0 hPa 0,0 l/m 6,2 kts (2 Bft) NO 55 1 min 3,6 UV-I 671 W/m 15,2 C 18,4 C 9,6 kts (3 Bft) 100,00 %
17.06.2019 10:02 20,3 C 72 % 1020,9 hPa 0,0 l/m 5,1 kts (2 Bft) O-NO 61 1 min 3,5 UV-I 677 W/m 15,1 C 19,1 C 7,8 kts (3 Bft) 100,00 %
17.06.2019 10:01 20,3 C 73 % 1021,0 hPa 0,0 l/m 0,2 kts (0 Bft) O-NO 63 1 min 3,5 UV-I 687 W/m 15,3 C 20,3 C 0,9 kts (1 Bft) 90,91 %
17.06.2019 10:00 20,3 C 70 % 1021,0 hPa 0,0 l/m 3,7 kts (2 Bft) O-NO 63 1 min 3,5 UV-I 687 W/m 14,6 C 20,1 C 5,2 kts (2 Bft) 100,00 %
17.06.2019 09:59 20,4 C 73 % 1021,0 hPa 0,0 l/m 5,8 kts (2 Bft) O-NO 67 1 min 3,4 UV-I 693 W/m 15,4 C 18,9 C 7,8 kts (3 Bft) 100,00 %
17.06.2019 09:58 20,3 C 73 % 1021,0 hPa 0,0 l/m 7,6 kts (3 Bft) NO 49 1 min 3,4 UV-I 680 W/m 15,3 C 17,9 C 9,6 kts (3 Bft) 100,00 %
17.06.2019 09:57 20,3 C 73 % 1021,0 hPa 0,0 l/m 6,0 kts (2 Bft) O-NO 57 1 min 3,4 UV-I 668 W/m 15,3 C 18,6 C 7,8 kts (3 Bft) 100,00 %
17.06.2019 09:56 20,5 C 71 % 1021,0 hPa 0,0 l/m 5,2 kts (2 Bft) NO 42 1 min 3,3 UV-I 657 W/m 15,1 C 19,3 C 7,0 kts (3 Bft) 100,00 %
17.06.2019 09:55 20,7 C 69 % 1021,0 hPa 0,0 l/m 7,2 kts (3 Bft) NO 51 1 min 3,3 UV-I 657 W/m 14,8 C 18,5 C 8,7 kts (3 Bft) 100,00 %
17.06.2019 09:54 21,1 C 72 % 1021,1 hPa 0,0 l/m 8,5 kts (3 Bft) NO 55 1 min 3,3 UV-I 652 W/m 15,8 C 18,4 C 9,6 kts (3 Bft) 100,00 %
17.06.2019 09:53 21,1 C 74 % 1021,1 hPa 0,0 l/m 4,9 kts (2 Bft) NO 49 1 min 3,3 UV-I 643 W/m 16,3 C 20,1 C 7,8 kts (3 Bft) 100,00 %
17.06.2019 09:52 20,9 C 74 % 1021,0 hPa 0,0 l/m 5,0 kts (2 Bft) N-NO 17 1 min 3,3 UV-I 635 W/m 16,1 C 19,9 C 7,8 kts (3 Bft) 95,65 %
17.06.2019 09:51 20,9 C 73 % 1021,0 hPa 0,0 l/m 3,7 kts (2 Bft) N-NO 25 1 min 3,2 UV-I 629 W/m 15,9 C 20,7 C 5,2 kts (2 Bft) 100,00 %
17.06.2019 09:50 20,9 C 70 % 1021,0 hPa 0,0 l/m 3,8 kts (2 Bft) NO 36 1 min 3,2 UV-I 628 W/m 15,2 C 20,7 C 5,2 kts (2 Bft) 100,00 %
17.06.2019 09:49 21,1 C 71 % 1021,0 hPa 0,0 l/m 4,2 kts (2 Bft) NO 36 1 min 3,2 UV-I 619 W/m 15,6 C 20,6 C 5,2 kts (2 Bft) 95,65 %
17.06.2019 09:48 21,1 C 71 % 1021,0 hPa 0,0 l/m 5,5 kts (2 Bft) NO 36 1 min 3,1 UV-I 615 W/m 15,6 C 19,8 C 7,8 kts (3 Bft) 100,00 %
17.06.2019 09:47 21,1 C 72 % 1021,0 hPa 0,0 l/m 6,7 kts (3 Bft) NO 36 1 min 3,1 UV-I 603 W/m 15,8 C 19,2 C 8,7 kts (3 Bft) 100,00 %
17.06.2019 09:46 21,1 C 74 % 1021,1 hPa 0,0 l/m 6,7 kts (3 Bft) NO 41 1 min 2,5 UV-I 570 W/m 16,3 C 19,2 C 9,6 kts (3 Bft) 100,00 %
17.06.2019 09:45 20,8 C 75 % 1021,0 hPa 0,0 l/m 8,4 kts (3 Bft) NO 36 1 min 3,1 UV-I 612 W/m 16,2 C 18,1 C 10,4 kts (3 Bft) 100,00 %
17.06.2019 09:44 20,6 C 74 % 1021,1 hPa 0,0 l/m 4,9 kts (2 Bft) N-NO 31 1 min 3,1 UV-I 610 W/m 15,8 C 19,6 C 7,8 kts (3 Bft) 100,00 %
17.06.2019 09:43 20,5 C 75 % 1021,1 hPa 0,0 l/m 8,3 kts (3 Bft) NO 34 1 min 3,1 UV-I 610 W/m 15,9 C 17,8 C 9,6 kts (3 Bft) 100,00 %
17.06.2019 09:42 20,4 C 75 % 1021,0 hPa 0,0 l/m 8,1 kts (3 Bft) NO 34 1 min 3,0 UV-I 599 W/m 15,8 C 17,7 C 9,6 kts (3 Bft) 100,00 %
17.06.2019 09:41 20,3 C 74 % 1021,0 hPa 0,0 l/m 7,1 kts (3 Bft) NO 40 1 min 3,0 UV-I 599 W/m 15,5 C 18,1 C 8,7 kts (3 Bft) 100,00 %
17.06.2019 09:40 20,4 C 72 % 1021,0 hPa 0,0 l/m 8,3 kts (3 Bft) N-NO 31 1 min 3,0 UV-I 587 W/m 15,2 C 17,7 C 9,6 kts (3 Bft) 100,00 %
17.06.2019 09:39 20,4 C 72 % 1021,1 hPa 0,0 l/m 8,1 kts (3 Bft) NO 41 1 min 2,6 UV-I 587 W/m 15,2 C 17,7 C 9,6 kts (3 Bft) 100,00 %
17.06.2019 09:38 20,4 C 74 % 1021,1 hPa 0,0 l/m 8,9 kts (3 Bft) NO 37 1 min 2,1 UV-I 587 W/m 15,6 C 17,4 C 10,4 kts (3 Bft) 100,00 %
17.06.2019 09:37 20,3 C 75 % 1021,1 hPa 0,0 l/m 6,4 kts (2 Bft) NO 38 1 min 2,9 UV-I 587 W/m 15,7 C 18,4 C 8,7 kts (3 Bft) 96,15 %
17.06.2019 09:36 20,2 C 73 % 1021,0 hPa 0,0 l/m 5,1 kts (2 Bft) N-NO 32 1 min 2,9 UV-I 585 W/m 15,2 C 19,0 C 7,0 kts (3 Bft) 100,00 %
17.06.2019 09:35 20,2 C 74 % 1021,0 hPa 0,0 l/m 5,8 kts (2 Bft) NO 49 1 min 2,9 UV-I 582 W/m 15,4 C 18,6 C 7,8 kts (3 Bft) 100,00 %
17.06.2019 09:34 20,3 C 73 % 1021,1 hPa 0,0 l/m 6,1 kts (2 Bft) NO 46 1 min 2,9 UV-I 578 W/m 15,3 C 18,6 C 7,8 kts (3 Bft) 100,00 %
17.06.2019 09:33 20,4 C 73 % 1021,1 hPa 0,0 l/m 6,8 kts (3 Bft) NO 55 1 min 2,8 UV-I 577 W/m 15,4 C 18,3 C 7,8 kts (3 Bft) 100,00 %
17.06.2019 09:32 20,4 C 75 % 1021,0 hPa 0,0 l/m 6,9 kts (3 Bft) NO 48 1 min 2,8 UV-I 577 W/m 15,8 C 18,3 C 7,8 kts (3 Bft) 100,00 %
17.06.2019 09:31 20,3 C 74 % 1020,9 hPa 0,0 l/m 6,3 kts (2 Bft) NO 47 1 min 2,8 UV-I 573 W/m 15,5 C 18,5 C 7,8 kts (3 Bft) 100,00 %
17.06.2019 09:30 20,3 C 73 % 1021,0 hPa 0,0 l/m 4,6 kts (2 Bft) NO 42 1 min 2,8 UV-I 568 W/m 15,3 C 19,5 C 5,2 kts (2 Bft) 100,00 %
17.06.2019 09:29 20,2 C 73 % 1020,9 hPa 0,0 l/m 7,7 kts (3 Bft) NO 42 1 min 2,8 UV-I 559 W/m 15,2 C 17,7 C 8,7 kts (3 Bft) 100,00 %
17.06.2019 09:28 20,1 C 73 % 1020,9 hPa 0,0 l/m 7,3 kts (3 Bft) NO 34 1 min 2,7 UV-I 555 W/m 15,1 C 17,7 C 9,6 kts (3 Bft) 100,00 %
17.06.2019 09:27 20,0 C 74 % 1021,0 hPa 0,0 l/m 5,9 kts (2 Bft) N-NO 28 1 min 2,7 UV-I 552 W/m 15,2 C 18,3 C 7,8 kts (3 Bft) 100,00 %
17.06.2019 09:26 19,8 C 75 % 1021,0 hPa 0,0 l/m 2,6 kts (1 Bft) N-NO 30 1 min 2,7 UV-I 543 W/m 15,2 C 19,8 C 3,5 kts (2 Bft) 100,00 %
17.06.2019 09:25 19,8 C 74 % 1021,0 hPa 0,0 l/m 3,1 kts (1 Bft) N-NO 30 1 min 2,7 UV-I 536 W/m 15,0 C 19,8 C 3,5 kts (2 Bft) 95,65 %
17.06.2019 09:24 19,9 C 72 % 1020,9 hPa 0,0 l/m 1,7 kts (1 Bft) N-NO 30 1 min 2,7 UV-I 526 W/m 14,7 C 19,9 C 3,5 kts (2 Bft) 100,00 %
17.06.2019 09:23 20,1 C 77 % 1020,9 hPa 0,0 l/m 3,3 kts (2 Bft) NO 34 1 min 2,6 UV-I 508 W/m 15,9 C 20,1 C 5,2 kts (2 Bft) 100,00 %
17.06.2019 09:22 19,9 C 76 % 1021,0 hPa 0,0 l/m 3,7 kts (2 Bft) N-NO 26 1 min 2,6 UV-I 499 W/m 15,5 C 19,7 C 5,2 kts (2 Bft) 100,00 %
17.06.2019 09:21 19,9 C 75 % 1021,0 hPa 0,0 l/m 3,1 kts (2 Bft) N-NO 26 1 min 2,6 UV-I 487 W/m 15,3 C 19,9 C 4,3 kts (2 Bft) 95,83 %
17.06.2019 09:20 19,8 C 75 % 1021,0 hPa 0,0 l/m 2,8 kts (1 Bft) N-NO 28 1 min 2,6 UV-I 475 W/m 15,2 C 19,8 C 3,5 kts (2 Bft) 100,00 %
17.06.2019 09:19 19,9 C 73 % 1021,0 hPa 0,0 l/m 3,3 kts (2 Bft) N-NO 28 1 min 2,5 UV-I 452 W/m 14,9 C 19,9 C 4,3 kts (2 Bft) 98,99 %
17.06.2019 09:18 20,0 C 73 % 1021,0 hPa 0,0 l/m 3,3 kts (2 Bft) N-NO 26 1 min 2,5 UV-I 461 W/m 15,0 C 20,0 C 4,3 kts (2 Bft) 91,30 %
17.06.2019 09:17 20,1 C 73 % 1021,0 hPa 0,0 l/m 5,7 kts (2 Bft) N-NO 26 1 min 2,5 UV-I 443 W/m 15,1 C 18,6 C 7,0 kts (3 Bft) 95,83 %
17.06.2019 09:16 20,0 C 74 % 1021,1 hPa 0,0 l/m 6,7 kts (3 Bft) N-NO 24 1 min 2,5 UV-I 436 W/m 15,2 C 17,9 C 7,8 kts (3 Bft) 100,00 %
17.06.2019 09:15 19,8 C 74 % 1021,0 hPa 0,0 l/m 5,7 kts (2 Bft) N-NO 29 1 min 2,5 UV-I 431 W/m 15,0 C 18,3 C 8,7 kts (3 Bft) 95,65 %
17.06.2019 09:14 19,8 C 75 % 1021,0 hPa 0,0 l/m 5,1 kts (2 Bft) N-NO 27 1 min 2,5 UV-I 424 W/m 15,2 C 18,6 C 7,0 kts (3 Bft) 100,00 %
17.06.2019 09:13 19,8 C 74 % 1020,9 hPa 0,0 l/m 5,1 kts (2 Bft) NO 34 1 min 2,4 UV-I 420 W/m 15,0 C 18,6 C 7,0 kts (3 Bft) 91,30 %
17.06.2019 09:12 19,8 C 75 % 1020,9 hPa 0,0 l/m 3,0 kts (1 Bft) N-NO 24 1 min 2,4 UV-I 417 W/m 15,2 C 19,8 C 4,3 kts (2 Bft) 100,00 %
17.06.2019 09:11 19,8 C 77 % 1021,0 hPa 0,0 l/m 1,1 kts (1 Bft) N-NO 32 1 min 2,4 UV-I 415 W/m 15,6 C 19,8 C 1,7 kts (1 Bft) 95,65 %
17.06.2019 09:10 19,8 C 75 % 1020,9 hPa 0,0 l/m 3,6 kts (2 Bft) N-NO 32 1 min 2,4 UV-I 415 W/m 15,2 C 19,7 C 4,3 kts (2 Bft) 95,83 %
17.06.2019 09:09 19,6 C 76 % 1021,0 hPa 0,0 l/m 3,7 kts (2 Bft) N-NO 32 1 min 2,4 UV-I 415 W/m 15,2 C 19,4 C 4,3 kts (2 Bft) 100,00 %
17.06.2019 09:08 19,4 C 75 % 1020,9 hPa 0,0 l/m 4,5 kts (2 Bft) N-NO 32 1 min 2,3 UV-I 417 W/m 14,8 C 18,6 C 5,2 kts (2 Bft) 95,65 %
17.06.2019 09:07 19,4 C 75 % 1021,0 hPa 0,0 l/m 5,1 kts (2 Bft) NO 34 1 min 2,3 UV-I 417 W/m 14,8 C 18,2 C 7,0 kts (3 Bft) 100,00 %
17.06.2019 09:06 19,4 C 75 % 1021,0 hPa 0,0 l/m 4,7 kts (2 Bft) NO 40 1 min 2,3 UV-I 415 W/m 14,8 C 18,4 C 6,1 kts (2 Bft) 96,15 %
17.06.2019 09:05 19,3 C 76 % 1021,1 hPa 0,0 l/m 4,9 kts (2 Bft) NO 38 1 min 2,3 UV-I 417 W/m 15,0 C 18,2 C 7,0 kts (3 Bft) 100,00 %
17.06.2019 09:04 19,2 C 76 % 1021,0 hPa 0,0 l/m 7,0 kts (3 Bft) N-NO 22 1 min 2,3 UV-I 420 W/m 14,9 C 16,8 C 8,7 kts (3 Bft) 96,55 %
17.06.2019 09:03 19,1 C 75 % 1021,0 hPa 0,0 l/m 5,0 kts (2 Bft) N 5 1 min 2,2 UV-I 422 W/m 14,6 C 17,9 C 7,8 kts (3 Bft) 96,97 %
17.06.2019 09:02 18,9 C 77 % 1021,1 hPa 0,0 l/m 4,5 kts (2 Bft) N 5 1 min 2,2 UV-I 425 W/m 14,8 C 18,0 C 7,0 kts (3 Bft) 100,00 %
17.06.2019 09:01 18,8 C 78 % 1021,1 hPa 0,0 l/m 3,0 kts (1 Bft) N-NW 328 1 min 2,2 UV-I 431 W/m 14,9 C 18,8 C 3,5 kts (2 Bft) 99,10 %
17.06.2019 09:00 18,8 C 78 % 1021,1 hPa 0,0 l/m 2,8 kts (1 Bft) N-NW 328 1 min 2,2 UV-I 432 W/m 14,9 C 18,8 C 3,5 kts (2 Bft) 96,92 %
17.06.2019 08:59 18,9 C 76 % 1021,1 hPa 0,0 l/m 3,8 kts (2 Bft) N-NW 328 1 min 2,2 UV-I 431 W/m 14,6 C 18,6 C 4,3 kts (2 Bft) 99,12 %
17.06.2019 08:58 18,8 C 77 % 1021,1 hPa 0,0 l/m 4,5 kts (2 Bft) N 11 1 min 2,2 UV-I 434 W/m 14,7 C 17,9 C 6,1 kts (2 Bft) 100,00 %
17.06.2019 08:57 18,9 C 77 % 1021,1 hPa 0,0 l/m 3,9 kts (2 Bft) N-NO 13 1 min 2,1 UV-I 436 W/m 14,8 C 18,5 C 6,1 kts (2 Bft) 95,83 %
17.06.2019 08:56 18,9 C 80 % 1021,2 hPa 0,0 l/m 3,8 kts (2 Bft) N-NO 24 1 min 2,1 UV-I 438 W/m 15,4 C 18,6 C 5,2 kts (2 Bft) 100,00 %
17.06.2019 08:55 18,7 C 79 % 1021,0 hPa 0,0 l/m 3,5 kts (2 Bft) N-NO 29 1 min 2,1 UV-I 439 W/m 15,0 C 18,7 C 4,3 kts (2 Bft) 100,00 %
17.06.2019 08:54 18,4 C 78 % 1021,1 hPa 0,0 l/m 2,9 kts (1 Bft) NO 35 1 min 2,1 UV-I 441 W/m 14,5 C 18,4 C 3,5 kts (2 Bft) 100,00 %
17.06.2019 08:53 18,3 C 78 % 1021,1 hPa 0,0 l/m 3,7 kts (2 Bft) NO 40 1 min 2,1 UV-I 441 W/m 14,4 C 18,1 C 5,2 kts (2 Bft) 100,00 %
17.06.2019 08:52 18,4 C 76 % 1021,1 hPa 0,0 l/m 2,4 kts (1 Bft) NO 40 1 min 2,0 UV-I 441 W/m 14,1 C 18,4 C 3,5 kts (2 Bft) 100,00 %
17.06.2019 08:51 18,6 C 77 % 1021,2 hPa 0,0 l/m 3,2 kts (2 Bft) NO 40 1 min 2,0 UV-I 439 W/m 14,5 C 18,6 C 4,3 kts (2 Bft) 100,00 %
17.06.2019 08:50 18,8 C 77 % 1021,2 hPa 0,0 l/m 4,3 kts (2 Bft) NO 40 1 min 2,0 UV-I 436 W/m 14,7 C 18,1 C 4,3 kts (2 Bft) 100,00 %
17.06.2019 08:49 18,8 C 78 % 1021,2 hPa 0,0 l/m 3,9 kts (2 Bft) N-NO 30 1 min 2,0 UV-I 434 W/m 14,9 C 18,4 C 4,3 kts (2 Bft) 96,15 %
17.06.2019 08:48 18,9 C 77 % 1021,2 hPa 0,0 l/m 2,5 kts (1 Bft) N-NO 23 1 min 2,0 UV-I 425 W/m 14,8 C 18,9 C 2,6 kts (1 Bft) 100,00 %
17.06.2019 08:47 18,9 C 76 % 1021,2 hPa 0,0 l/m 3,1 kts (1 Bft) N-NO 23 1 min 1,9 UV-I 422 W/m 14,6 C 18,9 C 4,3 kts (2 Bft) 100,00 %
17.06.2019 08:46 18,9 C 78 % 1021,2 hPa 0,0 l/m 4,4 kts (2 Bft) N-NO 23 1 min 1,9 UV-I 418 W/m 15,0 C 18,2 C 5,2 kts (2 Bft) 100,00 %
17.06.2019 08:45 18,8 C 78 % 1021,3 hPa 0,0 l/m 4,5 kts (2 Bft) N-NO 22 1 min 1,9 UV-I 415 W/m 14,9 C 17,9 C 5,2 kts (2 Bft) 100,00 %
17.06.2019 08:44 18,7 C 79 % 1021,2 hPa 0,0 l/m 5,5 kts (2 Bft) N-NO 22 1 min 1,9 UV-I 411 W/m 15,0 C 17,2 C 7,0 kts (3 Bft) 100,00 %
17.06.2019 08:43 18,6 C 78 % 1021,2 hPa 0,0 l/m 3,2 kts (2 Bft) N-NO 15 1 min 1,8 UV-I 406 W/m 14,7 C 18,6 C 4,3 kts (2 Bft) 100,00 %
17.06.2019 08:42 18,6 C 76 % 1021,3 hPa 0,0 l/m 3,2 kts (2 Bft) N-NO 15 1 min 1,8 UV-I 399 W/m 14,3 C 18,6 C 4,3 kts (2 Bft) 100,00 %
17.06.2019 08:41 18,6 C 77 % 1021,2 hPa 0,0 l/m 4,5 kts (2 Bft) N-NO 15 3 min 1,8 UV-I 394 W/m 14,5 C 17,7 C 6,1 kts (2 Bft) 100,00 %
17.06.2019 08:38 18,6 C 77 % 1021,2 hPa 0,0 l/m 4,6 kts (2 Bft) N-NO 15 1 min 1,8 UV-I 381 W/m 14,5 C 17,7 C 6,1 kts (2 Bft) 100,00 %
17.06.2019 08:37 18,7 C 77 % 1021,2 hPa 0,0 l/m 5,1 kts (2 Bft) N-NO 15 1 min 1,8 UV-I 374 W/m 14,6 C 17,4 C 6,1 kts (2 Bft) 100,00 %
17.06.2019 08:36 18,7 C 78 % 1021,2 hPa 0,0 l/m 5,6 kts (2 Bft) N-NO 15 1 min 1,7 UV-I 362 W/m 14,8 C 17,1 C 7,8 kts (3 Bft) 100,00 %
17.06.2019 08:35 18,6 C 78 % 1021,1 hPa 0,0 l/m 2,1 kts (1 Bft) N-NO 19 1 min 1,7 UV-I 355 W/m 14,7 C 18,6 C 3,5 kts (2 Bft) 100,00 %
17.06.2019 08:34 18,4 C 77 % 1021,3 hPa 0,0 l/m 2,6 kts (1 Bft) N 5 1 min 1,7 UV-I 348 W/m 14,3 C 18,4 C 4,3 kts (2 Bft) 100,00 %
17.06.2019 08:33 18,4 C 77 % 1021,2 hPa 0,0 l/m 3,1 kts (1 Bft) N-NO 21 1 min 1,7 UV-I 345 W/m 14,3 C 18,4 C 4,3 kts (2 Bft) 100,00 %
17.06.2019 08:32 18,4 C 77 % 1021,2 hPa 0,0 l/m 2,6 kts (1 Bft) N-NO 22 1 min 1,7 UV-I 339 W/m 14,3 C 18,4 C 3,5 kts (2 Bft) 100,00 %
17.06.2019 08:31 18,6 C 77 % 1021,1 hPa 0,0 l/m 3,5 kts (2 Bft) N-NO 22 1 min 1,6 UV-I 336 W/m 14,5 C 18,6 C 4,3 kts (2 Bft) 100,00 %
17.06.2019 08:30 18,6 C 78 % 1021,1 hPa 0,0 l/m 4,8 kts (2 Bft) N-NO 22 1 min 1,6 UV-I 338 W/m 14,7 C 17,6 C 7,0 kts (3 Bft) 100,00 %
17.06.2019 08:29 18,6 C 77 % 1021,2 hPa 0,0 l/m 4,3 kts (2 Bft) N-NO 24 1 min 1,6 UV-I 334 W/m 14,5 C 17,9 C 5,2 kts (2 Bft) 100,00 %
17.06.2019 08:28 18,6 C 79 % 1021,1 hPa 0,0 l/m 3,9 kts (2 Bft) N-NO 29 1 min 1,6 UV-I 323 W/m 14,9 C 18,2 C 5,2 kts (2 Bft) 100,00 %
17.06.2019 08:27 18,5 C 78 % 1021,2 hPa 0,0 l/m 4,2 kts (2 Bft) N-NO 24 1 min 1,6 UV-I 311 W/m 14,6 C 17,9 C 5,2 kts (2 Bft) 100,00 %
17.06.2019 08:26 18,4 C 78 % 1021,3 hPa 0,0 l/m 5,8 kts (2 Bft) N-NO 23 1 min 1,6 UV-I 290 W/m 14,5 C 16,6 C 7,0 kts (3 Bft) 100,00 %
17.06.2019 08:25 18,4 C 78 % 1021,3 hPa 0,0 l/m 4,9 kts (2 Bft) N-NO 23 1 min 1,6 UV-I 278 W/m 14,5 C 17,3 C 7,0 kts (3 Bft) 100,00 %
17.06.2019 08:24 18,3 C 78 % 1021,3 hPa 0,0 l/m 3,9 kts (2 Bft) N-NO 22 1 min 1,5 UV-I 265 W/m 14,4 C 17,9 C 4,3 kts (2 Bft) 100,00 %
17.06.2019 08:23 18,4 C 79 % 1021,3 hPa 0,0 l/m 3,8 kts (2 Bft) N-NO 24 1 min 1,5 UV-I 260 W/m 14,7 C 18,1 C 5,2 kts (2 Bft) 100,00 %
17.06.2019 08:22 18,3 C 78 % 1021,3 hPa 0,0 l/m 4,0 kts (2 Bft) N-NO 27 1 min 1,5 UV-I 251 W/m 14,4 C 17,8 C 5,2 kts (2 Bft) 100,00 %
17.06.2019 08:21 18,3 C 79 % 1021,3 hPa 0,0 l/m 4,8 kts (2 Bft) N-NO 26 1 min 1,5 UV-I 246 W/m 14,6 C 17,2 C 5,2 kts (2 Bft) 100,00 %
17.06.2019 08:20 18,3 C 79 % 1021,3 hPa 0,0 l/m 4,9 kts (2 Bft) N-NO 26 1 min 1,5 UV-I 246 W/m 14,6 C 17,1 C 7,0 kts (3 Bft) 100,00 %
17.06.2019 08:19 18,3 C 77 % 1021,2 hPa 0,0 l/m 4,5 kts (2 Bft) N-NO 33 1 min 1,4 UV-I 246 W/m 14,2 C 17,4 C 5,2 kts (2 Bft) 100,00 %
17.06.2019 08:18 18,3 C 78 % 1021,2 hPa 0,0 l/m 4,8 kts (2 Bft) N-NO 33 1 min 1,4 UV-I 251 W/m 14,4 C 17,2 C 7,0 kts (3 Bft) 100,00 %
17.06.2019 08:17 18,3 C 77 % 1021,2 hPa 0,0 l/m 4,4 kts (2 Bft) N-NO 33 1 min 1,4 UV-I 258 W/m 14,2 C 17,5 C 5,2 kts (2 Bft) 100,00 %
17.06.2019 08:16 18,4 C 78 % 1021,3 hPa 0,0 l/m 6,5 kts (2 Bft) N-NO 33 1 min 1,4 UV-I 265 W/m 14,5 C 16,2 C 7,8 kts (3 Bft) 100,00 %
17.06.2019 08:15 18,3 C 79 % 1021,2 hPa 0,0 l/m 6,7 kts (3 Bft) NO 34 1 min 1,4 UV-I 269 W/m 14,6 C 15,9 C 8,7 kts (3 Bft) 100,00 %
17.06.2019 08:14 18,3 C 78 % 1021,2 hPa 0,0 l/m 5,1 kts (2 Bft) N-NO 25 1 min 1,4 UV-I 274 W/m 14,4 C 17,0 C 7,0 kts (3 Bft) 100,00 %
17.06.2019 08:13 18,2 C 77 % 1021,2 hPa 0,0 l/m 5,3 kts (2 Bft) N-NO 26 1 min 1,1 UV-I 283 W/m 14,1 C 16,7 C 7,0 kts (3 Bft) 100,00 %
17.06.2019 08:12 18,2 C 78 % 1021,2 hPa 0,0 l/m 7,1 kts (3 Bft) N-NO 23 1 min 1,3 UV-I 288 W/m 14,3 C 15,6 C 7,8 kts (3 Bft) 100,00 %
17.06.2019 08:11 18,2 C 78 % 1021,2 hPa 0,0 l/m 6,4 kts (2 Bft) N-NO 24 1 min 1,3 UV-I 292 W/m 14,3 C 16,0 C 8,7 kts (3 Bft) 100,00 %
17.06.2019 08:10 18,2 C 78 % 1021,2 hPa 0,0 l/m 6,4 kts (2 Bft) N-NO 24 1 min 1,3 UV-I 295 W/m 14,3 C 16,0 C 7,8 kts (3 Bft) 100,00 %
17.06.2019 08:09 18,1 C 79 % 1021,1 hPa 0,0 l/m 4,8 kts (2 Bft) N-NO 29 1 min 1,3 UV-I 297 W/m 14,4 C 17,0 C 7,0 kts (3 Bft) 95,65 %
17.06.2019 08:08 18,1 C 78 % 1021,1 hPa 0,0 l/m 4,3 kts (2 Bft) N-NO 29 1 min 1,3 UV-I 299 W/m 14,2 C 17,4 C 5,2 kts (2 Bft) 100,00 %
17.06.2019 08:07 18,2 C 78 % 1021,2 hPa 0,0 l/m 5,2 kts (2 Bft) N-NO 30 1 min 1,3 UV-I 299 W/m 14,3 C 16,8 C 7,0 kts (3 Bft) 100,00 %
17.06.2019 08:06 18,2 C 78 % 1021,1 hPa 0,0 l/m 5,7 kts (2 Bft) N-NO 29 1 min 1,3 UV-I 299 W/m 14,3 C 16,5 C 7,0 kts (3 Bft) 100,00 %
17.06.2019 08:05 18,2 C 78 % 1021,1 hPa 0,0 l/m 6,5 kts (2 Bft) N-NO 30 1 min 1,3 UV-I 299 W/m 14,3 C 16,0 C 7,8 kts (3 Bft) 100,00 %
17.06.2019 08:04 18,2 C 79 % 1021,1 hPa 0,0 l/m 5,4 kts (2 Bft) N-NO 30 1 min 1,2 UV-I 297 W/m 14,5 C 16,7 C 7,0 kts (3 Bft) 100,00 %
17.06.2019 08:03 18,1 C 80 % 1021,1 hPa 0,0 l/m 6,3 kts (2 Bft) N-NO 30 1 min 1,2 UV-I 299 W/m 14,6 C 15,9 C 7,8 kts (3 Bft) 100,00 %
17.06.2019 08:02 18,1 C 79 % 1021,1 hPa 0,0 l/m 6,3 kts (2 Bft) N-NO 21 1 min 1,2 UV-I 299 W/m 14,4 C 16,0 C 7,0 kts (3 Bft) 100,00 %
17.06.2019 08:01 18,1 C 79 % 1021,1 hPa 0,0 l/m 3,2 kts (2 Bft) N-NO 20 1 min 1,2 UV-I 297 W/m 14,4 C 18,1 C 7,0 kts (3 Bft) 100,00 %
17.06.2019 08:00 17,9 C 78 % 1021,1 hPa 0,0 l/m 3,0 kts (1 Bft) N 5 1 min 1,2 UV-I 297 W/m 14,0 C 17,9 C 4,3 kts (2 Bft) 95,83 %
17.06.2019 07:59 17,9 C 79 % 1021,1 hPa 0,0 l/m 3,7 kts (2 Bft) N-NO 18 1 min 1,2 UV-I 297 W/m 14,2 C 17,7 C 4,3 kts (2 Bft) 100,00 %
17.06.2019 07:58 17,8 C 80 % 1021,1 hPa 0,0 l/m 4,8 kts (2 Bft) N-NO 18 1 min 1,2 UV-I 297 W/m 14,3 C 16,7 C 6,1 kts (2 Bft) 95,65 %
17.06.2019 07:57 17,7 C 80 % 1021,1 hPa 0,0 l/m 5,3 kts (2 Bft) N-NO 17 1 min 1,1 UV-I 297 W/m 14,2 C 16,1 C 7,0 kts (3 Bft) 100,00 %
17.06.2019 07:56 17,7 C 79 % 1021,1 hPa 0,0 l/m 4,2 kts (2 Bft) N-NO 15 1 min 1,1 UV-I 297 W/m 14,0 C 17,0 C 6,1 kts (2 Bft) 100,00 %
17.06.2019 07:55 17,6 C 78 % 1021,1 hPa 0,0 l/m 4,3 kts (2 Bft) N-NO 15 1 min 1,1 UV-I 295 W/m 13,7 C 16,8 C 6,1 kts (2 Bft) 95,83 %
17.06.2019 07:54 17,7 C 79 % 1021,0 hPa 0,0 l/m 4,5 kts (2 Bft) N-NO 13 1 min 1,1 UV-I 295 W/m 14,0 C 16,8 C 7,0 kts (3 Bft) 100,00 %
17.06.2019 07:53 17,6 C 78 % 1021,2 hPa 0,0 l/m 5,2 kts (2 Bft) N-NO 13 1 min 1,1 UV-I 295 W/m 13,7 C 16,1 C 7,8 kts (3 Bft) 95,65 %
17.06.2019 07:52 17,6 C 78 % 1021,1 hPa 0,0 l/m 2,7 kts (1 Bft) N 360 1 min 1,1 UV-I 294 W/m 13,7 C 17,6 C 5,2 kts (2 Bft) 100,00 %
17.06.2019 07:51 17,5 C 79 % 1021,1 hPa 0,0 l/m 3,0 kts (1 Bft) N 360 1 min 1,0 UV-I 294 W/m 13,8 C 17,5 C 4,3 kts (2 Bft) 95,65 %
17.06.2019 07:50 17,5 C 79 % 1021,1 hPa 0,0 l/m 3,1 kts (1 Bft) N 360 1 min 1,0 UV-I 294 W/m 13,8 C 17,5 C 4,3 kts (2 Bft) 100,00 %
17.06.2019 07:49 17,4 C 79 % 1021,1 hPa 0,0 l/m 5,0 kts (2 Bft) N 360 1 min 1,0 UV-I 292 W/m 13,7 C 16,1 C 7,0 kts (3 Bft) 92,86 %
17.06.2019 07:48 17,4 C 80 % 1021,1 hPa 0,0 l/m 4,9 kts (2 Bft) N 5 1 min 1,0 UV-I 292 W/m 13,9 C 16,2 C 7,8 kts (3 Bft) 100,00 %
17.06.2019 07:47 17,3 C 79 % 1021,1 hPa 0,0 l/m 4,9 kts (2 Bft) N 5 1 min 1,0 UV-I 292 W/m 13,6 C 16,0 C 7,8 kts (3 Bft) 91,30 %
17.06.2019 07:46 17,3 C 80 % 1021,2 hPa 0,0 l/m 3,9 kts (2 Bft) N 5 1 min 1,0 UV-I 290 W/m 13,8 C 16,9 C 7,0 kts (3 Bft) 100,00 %
17.06.2019 07:45 17,4 C 81 % 1021,1 hPa 0,0 l/m 3,1 kts (1 Bft) N-NO 17 1 min 1,0 UV-I 288 W/m 14,1 C 17,4 C 4,3 kts (2 Bft) 96,55 %
17.06.2019 07:44 17,3 C 80 % 1021,2 hPa 0,0 l/m 3,6 kts (2 Bft) N-NO 17 1 min 0,9 UV-I 279 W/m 13,8 C 17,2 C 4,3 kts (2 Bft) 95,65 %
17.06.2019 07:43 17,2 C 80 % 1021,2 hPa 0,0 l/m 4,6 kts (2 Bft) N 5 1 min 0,9 UV-I 276 W/m 13,7 C 16,1 C 5,2 kts (2 Bft) 100,00 %
17.06.2019 07:42 17,2 C 80 % 1021,2 hPa 0,0 l/m 4,7 kts (2 Bft) N 5 1 min 0,9 UV-I 269 W/m 13,7 C 16,1 C 7,0 kts (3 Bft) 96,15 %
17.06.2019 07:41 17,1 C 81 % 1021,2 hPa 0,0 l/m 4,9 kts (2 Bft) N 5 1 min 0,9 UV-I 262 W/m 13,8 C 15,8 C 7,0 kts (3 Bft) 100,00 %
17.06.2019 07:40 17,1 C 81 % 1021,2 hPa 0,0 l/m 5,1 kts (2 Bft) N 5 1 min 0,9 UV-I 255 W/m 13,8 C 15,7 C 7,0 kts (3 Bft) 96,15 %
17.06.2019 07:39 17,0 C 81 % 1021,2 hPa 0,0 l/m 5,5 kts (2 Bft) N 5 1 min 0,9 UV-I 250 W/m 13,7 C 15,2 C 7,0 kts (3 Bft) 100,00 %
17.06.2019 07:38 16,9 C 82 % 1021,2 hPa 0,0 l/m 4,5 kts (2 Bft) N 5 1 min 0,9 UV-I 237 W/m 13,8 C 15,9 C 5,2 kts (2 Bft) 100,00 %
17.06.2019 07:37 16,9 C 82 % 1021,2 hPa 0,0 l/m 4,3 kts (2 Bft) N 5 1 min 0,8 UV-I 232 W/m 13,8 C 16,1 C 5,2 kts (2 Bft) 100,00 %
17.06.2019 07:36 16,8 C 82 % 1021,1 hPa 0,0 l/m 4,9 kts (2 Bft) N 360 1 min 0,8 UV-I 227 W/m 13,7 C 15,5 C 7,0 kts (3 Bft) 100,00 %
17.06.2019 07:35 16,8 C 82 % 1021,1 hPa 0,0 l/m 2,4 kts (1 Bft) N 5 1 min 0,8 UV-I 223 W/m 13,7 C 16,8 C 3,5 kts (2 Bft) 96,15 %
17.06.2019 07:34 16,8 C 82 % 1021,2 hPa 0,0 l/m 3,0 kts (1 Bft) N 5 1 min 0,8 UV-I 218 W/m 13,7 C 16,8 C 4,3 kts (2 Bft) 100,00 %
17.06.2019 07:33 16,8 C 82 % 1021,2 hPa 0,0 l/m 2,8 kts (1 Bft) N 5 1 min 0,8 UV-I 214 W/m 13,7 C 16,8 C 5,2 kts (2 Bft) 100,00 %
17.06.2019 07:32 16,8 C 82 % 1021,2 hPa 0,0 l/m 2,9 kts (1 Bft) N-NW 327 1 min 0,8 UV-I 209 W/m 13,7 C 16,8 C 4,3 kts (2 Bft) 100,00 %
17.06.2019 07:31 16,7 C 82 % 1021,1 hPa 0,0 l/m 4,3 kts (2 Bft) N-NW 327 1 min 0,8 UV-I 207 W/m 13,6 C 15,9 C 5,2 kts (2 Bft) 100,00 %
17.06.2019 07:30 16,7 C 82 % 1021,1 hPa 0,0 l/m 5,0 kts (2 Bft) N-NW 328 1 min 0,7 UV-I 207 W/m 13,6 C 15,3 C 7,0 kts (3 Bft) 100,00 %
17.06.2019 07:29 16,7 C 82 % 1021,2 hPa 0,0 l/m 3,9 kts (2 Bft) N-NW 329 1 min 0,7 UV-I 209 W/m 13,6 C 16,3 C 5,2 kts (2 Bft) 100,00 %
17.06.2019 07:28 16,6 C 82 % 1021,2 hPa 0,0 l/m 4,7 kts (2 Bft) NW 316 1 min 0,7 UV-I 209 W/m 13,5 C 15,5 C 7,0 kts (3 Bft) 100,00 %
17.06.2019 07:27 16,6 C 83 % 1021,1 hPa 0,0 l/m 6,2 kts (2 Bft) NW 310 1 min 0,7 UV-I 211 W/m 13,7 C 14,3 C 7,8 kts (3 Bft) 100,00 %
17.06.2019 07:26 16,6 C 82 % 1021,1 hPa 0,0 l/m 5,3 kts (2 Bft) N 360 1 min 0,7 UV-I 218 W/m 13,5 C 15,0 C 7,0 kts (3 Bft) 100,00 %
17.06.2019 07:25 16,5 C 83 % 1021,1 hPa 0,0 l/m 5,2 kts (2 Bft) N 360 1 min 0,7 UV-I 220 W/m 13,6 C 14,9 C 7,0 kts (3 Bft) 100,00 %
17.06.2019 07:24 16,4 C 83 % 1021,1 hPa 0,0 l/m 5,0 kts (2 Bft) NW 325 1 min 0,7 UV-I 223 W/m 13,5 C 15,0 C 7,0 kts (3 Bft) 100,00 %
17.06.2019 07:23 16,4 C 83 % 1021,1 hPa 0,0 l/m 3,7 kts (2 Bft) N-NW 328 1 min 0,6 UV-I 225 W/m 13,5 C 16,2 C 5,2 kts (2 Bft) 100,00 %
17.06.2019 07:22 16,4 C 83 % 1021,1 hPa 0,0 l/m 4,3 kts (2 Bft) N-NW 329 1 min 0,6 UV-I 229 W/m 13,5 C 15,6 C 7,0 kts (3 Bft) 100,00 %
17.06.2019 07:21 16,4 C 83 % 1021,1 hPa 0,0 l/m 4,6 kts (2 Bft) N-NW 327 1 min 0,6 UV-I 232 W/m 13,5 C 15,3 C 7,0 kts (3 Bft) 100,00 %
17.06.2019 07:20 16,4 C 84 % 1021,2 hPa 0,0 l/m 4,9 kts (2 Bft) NW 326 1 min 0,6 UV-I 230 W/m 13,7 C 15,1 C 7,0 kts (3 Bft) 100,00 %
17.06.2019 07:19 16,3 C 84 % 1021,2 hPa 0,0 l/m 4,9 kts (2 Bft) N-NW 329 1 min 0,6 UV-I 223 W/m 13,6 C 15,0 C 5,2 kts (2 Bft) 100,00 %
17.06.2019 07:18 16,3 C 84 % 1021,2 hPa 0,0 l/m 3,8 kts (2 Bft) N-NW 327 1 min 0,6 UV-I 193 W/m 13,6 C 15,9 C 5,2 kts (2 Bft) 100,00 %
17.06.2019 07:17 16,3 C 84 % 1021,2 hPa 0,0 l/m 4,3 kts (2 Bft) NW 326 0 min 0,5 UV-I 149 W/m 13,6 C 15,5 C 5,2 kts (2 Bft) 100,00 %
17.06.2019 07:16 16,2 C 84 % 1021,2 hPa 0,0 l/m 4,7 kts (2 Bft) NW 320 0 min 0,5 UV-I 111 W/m 13,5 C 15,0 C 5,2 kts (2 Bft) 100,00 %
17.06.2019 07:15 16,2 C 84 % 1021,2 hPa 0,0 l/m 4,1 kts (2 Bft) NW 320 0 min 0,5 UV-I 93 W/m 13,5 C 15,6 C 5,2 kts (2 Bft) 100,00 %
17.06.2019 07:14 16,2 C 84 % 1021,2 hPa 0,0 l/m 4,4 kts (2 Bft) NW 320 0 min 0,0 UV-I 65 W/m 13,5 C 15,3 C 5,2 kts (2 Bft) 100,00 %
17.06.2019 07:13 16,2 C 84 % 1021,2 hPa 0,0 l/m 3,7 kts (2 Bft) NW 319 0 min 0,0 UV-I 54 W/m 13,5 C 15,9 C 4,3 kts (2 Bft) 100,00 %
17.06.2019 07:12 16,2 C 84 % 1021,2 hPa 0,0 l/m 4,3 kts (2 Bft) NW 319 0 min 0,0 UV-I 51 W/m 13,5 C 15,4 C 5,2 kts (2 Bft) 100,00 %
17.06.2019 07:11 16,1 C 84 % 1021,2 hPa 0,0 l/m 3,7 kts (2 Bft) NW 313 0 min 0,0 UV-I 51 W/m 13,4 C 15,8 C 4,3 kts (2 Bft) 100,00 %
17.06.2019 07:10 16,1 C 83 % 1021,2 hPa 0,0 l/m 4,0 kts (2 Bft) NW 313 0 min 0,0 UV-I 51 W/m 13,2 C 15,6 C 4,3 kts (2 Bft) 100,00 %
17.06.2019 07:09 16,1 C 84 % 1021,2 hPa 0,0 l/m 4,0 kts (2 Bft) NW 313 0 min 0,0 UV-I 54 W/m 13,4 C 15,6 C 5,2 kts (2 Bft) 96,55 %
17.06.2019 07:08 16,0 C 84 % 1021,2 hPa 0,0 l/m 3,7 kts (2 Bft) NW 312 0 min 0,0 UV-I 51 W/m 13,3 C 15,8 C 4,3 kts (2 Bft) 100,00 %
17.06.2019 07:07 15,9 C 84 % 1021,2 hPa 0,0 l/m 3,3 kts (2 Bft) NW 309 0 min 0,0 UV-I 49 W/m 13,2 C 15,9 C 4,3 kts (2 Bft) 100,00 %
17.06.2019 07:06 15,9 C 84 % 1021,2 hPa 0,0 l/m 3,7 kts (2 Bft) NW 309 0 min 0,0 UV-I 49 W/m 13,2 C 15,7 C 4,3 kts (2 Bft) 100,00 %
17.06.2019 07:05 15,9 C 84 % 1021,1 hPa 0,0 l/m 4,9 kts (2 Bft) NW 309 0 min 0,0 UV-I 49 W/m 13,2 C 14,6 C 6,1 kts (2 Bft) 100,00 %
17.06.2019 07:04 15,8 C 84 % 1021,2 hPa 0,0 l/m 4,2 kts (2 Bft) NW 309 0 min 0,0 UV-I 51 W/m 13,1 C 15,0 C 6,1 kts (2 Bft) 100,00 %
17.06.2019 07:03 15,8 C 84 % 1021,2 hPa 0,0 l/m 4,6 kts (2 Bft) NW 309 0 min 0,0 UV-I 51 W/m 13,1 C 14,7 C 6,1 kts (2 Bft) 100,00 %
17.06.2019 07:02 15,8 C 84 % 1021,1 hPa 0,0 l/m 5,4 kts (2 Bft) NW 309 0 min 0,0 UV-I 49 W/m 13,1 C 14,0 C 6,1 kts (2 Bft) 100,00 %
17.06.2019 07:01 15,8 C 84 % 1021,1 hPa 0,0 l/m 5,3 kts (2 Bft) NW 309 0 min 0,0 UV-I 47 W/m 13,1 C 14,0 C 6,1 kts (2 Bft) 100,00 %
17.06.2019 07:00 15,7 C 84 % 1021,2 hPa 0,0 l/m 4,2 kts (2 Bft) NW 306 0 min 0,0 UV-I 46 W/m 13,0 C 14,9 C 6,1 kts (2 Bft) 100,00 %
17.06.2019 06:59 15,7 C 84 % 1021,2 hPa 0,0 l/m 4,0 kts (2 Bft) NW 307 0 min 0,0 UV-I 46 W/m 13,0 C 15,1 C 6,1 kts (2 Bft) 100,00 %
17.06.2019 06:58 15,6 C 85 % 1021,1 hPa 0,0 l/m 4,3 kts (2 Bft) NW 306 0 min 0,0 UV-I 44 W/m 13,1 C 14,7 C 6,1 kts (2 Bft) 100,00 %
17.06.2019 06:57 15,6 C 85 % 1021,1 hPa 0,0 l/m 3,7 kts (2 Bft) NW 307 0 min 0,0 UV-I 44 W/m 13,1 C 15,3 C 6,1 kts (2 Bft) 100,00 %
17.06.2019 06:56 15,6 C 85 % 1021,1 hPa 0,0 l/m 3,4 kts (2 Bft) NW 309 0 min 0,0 UV-I 44 W/m 13,1 C 15,6 C 6,1 kts (2 Bft) 100,00 %
17.06.2019 06:55 15,5 C 85 % 1021,1 hPa 0,0 l/m 4,2 kts (2 Bft) NW 308 0 min 0,0 UV-I 44 W/m 13,0 C 14,8 C 6,1 kts (2 Bft) 100,00 %
17.06.2019 06:54 15,5 C 85 % 1021,1 hPa 0,0 l/m 5,3 kts (2 Bft) NW 309 0 min 0,0 UV-I 44 W/m 13,0 C 13,8 C 7,0 kts (3 Bft) 100,00 %
17.06.2019 06:53 15,4 C 85 % 1021,1 hPa 0,0 l/m 2,6 kts (1 Bft) NW 310 0 min 0,0 UV-I 42 W/m 12,9 C 15,4 C 3,5 kts (2 Bft) 100,00 %
17.06.2019 06:52 15,4 C 85 % 1021,1 hPa 0,0 l/m 2,9 kts (1 Bft) NW 310 0 min 0,0 UV-I 42 W/m 12,9 C 15,4 C 3,5 kts (2 Bft) 100,00 %
17.06.2019 06:51 15,4 C 85 % 1021,0 hPa 0,0 l/m 2,2 kts (1 Bft) NW 310 0 min 0,0 UV-I 42 W/m 12,9 C 15,4 C 3,5 kts (2 Bft) 100,00 %
17.06.2019 06:50 15,3 C 85 % 1021,1 hPa 0,0 l/m 3,1 kts (2 Bft) NW 310 0 min 0,0 UV-I 40 W/m 12,8 C 15,3 C 4,3 kts (2 Bft) 100,00 %
17.06.2019 06:49 15,3 C 86 % 1021,1 hPa 0,0 l/m 2,9 kts (1 Bft) NW 310 0 min 0,0 UV-I 40 W/m 13,0 C 15,3 C 3,5 kts (2 Bft) 100,00 %
17.06.2019 06:48 15,3 C 86 % 1021,1 hPa 0,0 l/m 3,3 kts (2 Bft) NW 310 0 min 0,0 UV-I 40 W/m 13,0 C 15,3 C 4,3 kts (2 Bft) 95,83 %
17.06.2019 06:47 15,2 C 86 % 1021,1 hPa 0,0 l/m 3,3 kts (2 Bft) NW 310 0 min 0,0 UV-I 40 W/m 12,9 C 15,2 C 4,3 kts (2 Bft) 100,00 %
17.06.2019 06:46 15,2 C 86 % 1021,0 hPa 0,0 l/m 2,1 kts (1 Bft) NW 310 0 min 0,0 UV-I 40 W/m 12,9 C 15,2 C 3,5 kts (2 Bft) 100,00 %
17.06.2019 06:45 15,1 C 86 % 1021,0 hPa 0,0 l/m 2,6 kts (1 Bft) NW 310 0 min 0,0 UV-I 39 W/m 12,8 C 15,1 C 3,5 kts (2 Bft) 100,00 %
17.06.2019 06:44 15,1 C 86 % 1021,1 hPa 0,0 l/m 3,3 kts (2 Bft) NW 310 0 min 0,0 UV-I 39 W/m 12,8 C 15,1 C 4,3 kts (2 Bft) 100,00 %
17.06.2019 06:43 15,1 C 87 % 1021,1 hPa 0,0 l/m 2,8 kts (1 Bft) NW 311 0 min 0,0 UV-I 39 W/m 13,0 C 15,1 C 3,5 kts (2 Bft) 100,00 %
17.06.2019 06:42 15,0 C 87 % 1021,1 hPa 0,0 l/m 2,3 kts (1 Bft) NW 311 0 min 0,0 UV-I 39 W/m 12,9 C 15,0 C 2,6 kts (1 Bft) 100,00 %
17.06.2019 06:41 14,9 C 87 % 1021,1 hPa 0,0 l/m 1,7 kts (1 Bft) W-NW 302 0 min 0,0 UV-I 39 W/m 12,8 C 14,9 C 2,6 kts (1 Bft) 100,00 %
17.06.2019 06:40 14,8 C 88 % 1021,1 hPa 0,0 l/m 3,1 kts (2 Bft) W-NW 303 0 min 0,0 UV-I 39 W/m 12,8 C 14,8 C 4,3 kts (2 Bft) 100,00 %
17.06.2019 06:39 14,7 C 89 % 1021,1 hPa 0,0 l/m 2,9 kts (1 Bft) W-NW 301 0 min 0,0 UV-I 39 W/m 12,9 C 14,7 C 3,5 kts (2 Bft) 100,00 %
17.06.2019 06:38 14,6 C 90 % 1021,1 hPa 0,0 l/m 3,5 kts (2 Bft) W-NW 296 0 min 0,0 UV-I 39 W/m 13,0 C 14,6 C 4,3 kts (2 Bft) 100,00 %
17.06.2019 06:37 14,4 C 89 % 1021,1 hPa 0,0 l/m 2,4 kts (1 Bft) W-NW 294 0 min 0,0 UV-I 37 W/m 12,6 C 14,4 C 2,6 kts (1 Bft) 100,00 %
17.06.2019 06:36 14,3 C 91 % 1021,1 hPa 0,0 l/m 2,4 kts (1 Bft) W-NW 294 0 min 0,0 UV-I 37 W/m 12,8 C 14,3 C 3,5 kts (2 Bft) 100,00 %
17.06.2019 06:35 14,2 C 91 % 1021,1 hPa 0,0 l/m 2,6 kts (1 Bft) W-NW 293 0 min 0,0 UV-I 37 W/m 12,8 C 14,2 C 3,5 kts (2 Bft) 100,00 %
17.06.2019 06:34 14,2 C 91 % 1021,1 hPa 0,0 l/m 2,7 kts (1 Bft) W-NW 293 0 min 0,0 UV-I 37 W/m 12,8 C 14,2 C 3,5 kts (2 Bft) 100,00 %
17.06.2019 06:33 14,1 C 91 % 1021,1 hPa 0,0 l/m 3,1 kts (2 Bft) W-NW 293 0 min 0,0 UV-I 37 W/m 12,7 C 14,1 C 4,3 kts (2 Bft) 100,00 %
17.06.2019 06:32 14,1 C 91 % 1021,1 hPa 0,0 l/m 3,6 kts (2 Bft) W-NW 293 0 min 0,0 UV-I 37 W/m 12,7 C 14,0 C 4,3 kts (2 Bft) 100,00 %
17.06.2019 06:31 14,1 C 91 % 1021,1 hPa 0,0 l/m 3,1 kts (2 Bft) W-NW 293 0 min 0,0 UV-I 37 W/m 12,7 C 14,1 C 4,3 kts (2 Bft) 100,00 %
17.06.2019 06:30 14,1 C 91 % 1021,1 hPa 0,0 l/m 2,7 kts (1 Bft) W-NW 292 0 min 0,0 UV-I 37 W/m 12,7 C 14,1 C 3,5 kts (2 Bft) 95,65 %
17.06.2019 06:29 14,0 C 91 % 1021,1 hPa 0,0 l/m 2,4 kts (1 Bft) W-NW 292 0 min 0,0 UV-I 37 W/m 12,6 C 14,0 C 3,5 kts (2 Bft) 100,00 %
17.06.2019 06:28 13,9 C 91 % 1021,2 hPa 0,0 l/m 2,2 kts (1 Bft) W-NW 292 0 min 0,0 UV-I 35 W/m 12,5 C 13,9 C 2,6 kts (1 Bft) 100,00 %
17.06.2019 06:27 13,9 C 91 % 1021,2 hPa 0,0 l/m 3,4 kts (2 Bft) W-NW 292 0 min 0,0 UV-I 35 W/m 12,5 C 13,9 C 4,3 kts (2 Bft) 100,00 %
17.06.2019 06:26 13,8 C 91 % 1021,1 hPa 0,0 l/m 3,1 kts (1 Bft) W-NW 290 0 min 0,0 UV-I 35 W/m 12,4 C 13,8 C 4,3 kts (2 Bft) 100,00 %
17.06.2019 06:25 13,8 C 92 % 1021,1 hPa 0,0 l/m 2,5 kts (1 Bft) W-NW 288 0 min 0,0 UV-I 39 W/m 12,5 C 13,8 C 3,5 kts (2 Bft) 100,00 %
17.06.2019 06:24 13,7 C 92 % 1021,1 hPa 0,0 l/m 1,9 kts (1 Bft) W-NW 288 0 min 0,0 UV-I 39 W/m 12,4 C 13,7 C 2,6 kts (1 Bft) 100,00 %
17.06.2019 06:23 13,7 C 92 % 1021,1 hPa 0,0 l/m 2,2 kts (1 Bft) W-NW 288 0 min 0,0 UV-I 35 W/m 12,4 C 13,7 C 3,5 kts (2 Bft) 100,00 %
17.06.2019 06:22 13,6 C 92 % 1021,0 hPa 0,0 l/m 0,3 kts (0 Bft) W-NW 287 0 min 0,0 UV-I 33 W/m 12,3 C 13,6 C 0,9 kts (1 Bft) 96,88 %
17.06.2019 06:21 13,5 C 92 % 1021,1 hPa 0,0 l/m 0,8 kts (1 Bft) W-NW 287 0 min 0,0 UV-I 33 W/m 12,2 C 13,5 C 1,7 kts (1 Bft) 91,67 %
17.06.2019 06:20 13,4 C 91 % 1021,1 hPa 0,0 l/m 3,0 kts (1 Bft) W-NW 287 0 min 0,0 UV-I 33 W/m 12,0 C 13,4 C 4,3 kts (2 Bft) 98,37 %
17.06.2019 06:19 13,3 C 92 % 1021,1 hPa 0,0 l/m 1,7 kts (1 Bft) W-NW 299 0 min 0,0 UV-I 32 W/m 12,0 C 13,3 C 1,7 kts (1 Bft) 98,79 %
17.06.2019 06:18 13,3 C 92 % 1021,1 hPa 0,0 l/m 3,5 kts (2 Bft) W-NW 299 0 min 0,0 UV-I 32 W/m 12,0 C 13,3 C 3,5 kts (2 Bft) 98,79 %
17.06.2019 06:17 13,2 C 93 % 1021,0 hPa 0,0 l/m 3,5 kts (2 Bft) W-NW 292 0 min 0,0 UV-I 32 W/m 12,1 C 13,2 C 3,5 kts (2 Bft) 98,79 %
17.06.2019 06:15 13,1 C 93 % 1020,9 hPa 0,0 l/m 3,6 kts (2 Bft) W-NW 292 0 min 0,0 UV-I 30 W/m 12,0 C 13,0 C 4,3 kts (2 Bft) 97,37 %
17.06.2019 06:14 13,1 C 93 % 1020,9 hPa 0,0 l/m 3,7 kts (2 Bft) W-NW 292 0 min 0,0 UV-I 30 W/m 12,0 C 12,9 C 6,1 kts (2 Bft) 100,00 %
17.06.2019 06:13 13,1 C 93 % 1020,9 hPa 0,0 l/m 2,8 kts (1 Bft) W-NW 295 0 min 0,0 UV-I 30 W/m 12,0 C 13,1 C 3,5 kts (2 Bft) 96,15 %
17.06.2019 06:12 13,1 C 93 % 1021,0 hPa 0,0 l/m 3,2 kts (2 Bft) W-NW 295 0 min 0,0 UV-I 30 W/m 12,0 C 13,1 C 3,5 kts (2 Bft) 100,00 %
17.06.2019 06:11 13,1 C 92 % 1020,9 hPa 0,0 l/m 2,9 kts (1 Bft) W-NW 295 0 min 0,0 UV-I 30 W/m 11,8 C 13,1 C 4,3 kts (2 Bft) 100,00 %
17.06.2019 06:10 13,1 C 92 % 1020,9 hPa 0,0 l/m 2,9 kts (1 Bft) W-NW 295 0 min 0,0 UV-I 30 W/m 11,8 C 13,1 C 4,3 kts (2 Bft) 96,55 %
17.06.2019 06:09 13,2 C 92 % 1021,0 hPa 0,0 l/m 2,3 kts (1 Bft) W-NW 295 0 min 0,0 UV-I 30 W/m 11,9 C 13,2 C 2,6 kts (1 Bft) 100,00 %
17.06.2019 06:08 13,3 C 91 % 1021,0 hPa 0,0 l/m 2,8 kts (1 Bft) W-NW 295 0 min 0,0 UV-I 30 W/m 11,9 C 13,3 C 3,5 kts (2 Bft) 95,45 %
17.06.2019 06:07 13,3 C 91 % 1021,0 hPa 0,0 l/m 2,2 kts (1 Bft) W-NW 295 0 min 0,0 UV-I 30 W/m 11,9 C 13,3 C 3,5 kts (2 Bft) 100,00 %
17.06.2019 06:06 13,2 C 91 % 1020,8 hPa 0,0 l/m 1,6 kts (1 Bft) W-NW 295 0 min 0,0 UV-I 30 W/m 11,8 C 13,2 C 2,6 kts (1 Bft) 98,87 %
17.06.2019 06:05 13,2 C 92 % 1020,8 hPa 0,0 l/m 3,0 kts (1 Bft) W-NW 295 0 min 0,0 UV-I 28 W/m 11,9 C 13,2 C 3,5 kts (2 Bft) 92,31 %
17.06.2019 06:04 13,1 C 92 % 1020,9 hPa 0,0 l/m 3,1 kts (1 Bft) W-NW 294 0 min 0,0 UV-I 28 W/m 11,8 C 13,1 C 4,3 kts (2 Bft) 100,00 %
17.06.2019 06:03 13,0 C 92 % 1020,9 hPa 0,0 l/m 3,3 kts (2 Bft) W-NW 295 0 min 0,0 UV-I 28 W/m 11,7 C 13,0 C 4,3 kts (2 Bft) 96,15 %
17.06.2019 06:02 12,9 C 92 % 1020,9 hPa 0,0 l/m 4,8 kts (2 Bft) W-NW 295 0 min 0,0 UV-I 28 W/m 11,6 C 11,4 C 6,1 kts (2 Bft) 100,00 %
17.06.2019 06:01 12,9 C 92 % 1020,9 hPa 0,0 l/m 5,8 kts (2 Bft) W-NW 297 0 min 0,0 UV-I 28 W/m 11,6 C 10,5 C 7,0 kts (3 Bft) 96,15 %
17.06.2019 06:00 12,8 C 92 % 1020,8 hPa 0,0 l/m 4,0 kts (2 Bft) W-NW 298 0 min 0,0 UV-I 28 W/m 11,5 C 12,1 C 6,1 kts (2 Bft) 95,83 %
17.06.2019 05:59 12,8 C 92 % 1020,8 hPa 0,0 l/m 5,1 kts (2 Bft) W-NW 292 0 min 0,0 UV-I 28 W/m 11,5 C 11,0 C 6,1 kts (2 Bft) 97,14 %
17.06.2019 05:58 12,7 C 92 % 1020,8 hPa 0,0 l/m 4,7 kts (2 Bft) W-NW 294 0 min 0,0 UV-I 26 W/m 11,4 C 11,3 C 6,1 kts (2 Bft) 97,62 %
17.06.2019 05:56 12,7 C 93 % 1020,9 hPa 0,0 l/m 3,5 kts (2 Bft) NW 315 0 min 0,0 UV-I 26 W/m 11,6 C 12,7 C 3,5 kts (2 Bft) 99,08 %
17.06.2019 05:55 12,7 C 92 % 1020,9 hPa 0,0 l/m 5,2 kts (2 Bft) NW 317 0 min 0,0 UV-I 26 W/m 11,4 C 10,7 C 5,2 kts (2 Bft) 99,08 %
17.06.2019 05:54 12,7 C 92 % 1020,8 hPa 0,0 l/m 3,1 kts (2 Bft) NW 318 0 min 0,0 UV-I 26 W/m 11,4 C 12,7 C 3,5 kts (2 Bft) 99,08 %
17.06.2019 05:53 12,7 C 92 % 1020,8 hPa 0,0 l/m 3,5 kts (2 Bft) NW 318 0 min 0,0 UV-I 26 W/m 11,4 C 12,7 C 4,3 kts (2 Bft) 99,08 %
17.06.2019 05:52 12,7 C 92 % 1020,8 hPa 0,0 l/m 3,3 kts (2 Bft) NW 319 0 min 0,0 UV-I 26 W/m 11,4 C 12,7 C 4,3 kts (2 Bft) 96,88 %
17.06.2019 05:51 12,7 C 92 % 1020,8 hPa 0,0 l/m 4,2 kts (2 Bft) NW 320 0 min 0,0 UV-I 25 W/m 11,4 C 11,9 C 5,2 kts (2 Bft) 91,67 %
17.06.2019 05:50 12,8 C 92 % 1020,8 hPa 0,0 l/m 4,3 kts (2 Bft) NW 317 0 min 0,0 UV-I 25 W/m 11,5 C 11,8 C 6,1 kts (2 Bft) 96,15 %
17.06.2019 05:49 12,8 C 92 % 1020,7 hPa 0,0 l/m 3,4 kts (2 Bft) NW 306 0 min 0,0 UV-I 25 W/m 11,5 C 12,8 C 6,1 kts (2 Bft) 95,65 %
17.06.2019 05:48 12,8 C 92 % 1020,7 hPa 0,0 l/m 4,0 kts (2 Bft) NW 307 0 min 0,0 UV-I 25 W/m 11,5 C 12,2 C 4,3 kts (2 Bft) 100,00 %
17.06.2019 05:47 12,8 C 92 % 1020,8 hPa 0,0 l/m 3,7 kts (2 Bft) NW 307 0 min 0,0 UV-I 23 W/m 11,5 C 12,6 C 6,1 kts (2 Bft) 95,65 %
17.06.2019 05:46 12,9 C 92 % 1020,8 hPa 0,0 l/m 3,6 kts (2 Bft) NW 307 0 min 0,0 UV-I 23 W/m 11,6 C 12,7 C 4,3 kts (2 Bft) 100,00 %
17.06.2019 05:45 12,8 C 92 % 1020,8 hPa 0,0 l/m 3,7 kts (2 Bft) NW 308 0 min 0,0 UV-I 23 W/m 11,5 C 12,6 C 4,3 kts (2 Bft) 96,15 %
17.06.2019 05:44 12,9 C 91 % 1020,8 hPa 0,0 l/m 3,7 kts (2 Bft) NW 307 0 min 0,0 UV-I 23 W/m 11,5 C 12,7 C 4,3 kts (2 Bft) 100,00 %
17.06.2019 05:43 12,9 C 91 % 1020,7 hPa 0,0 l/m 3,9 kts (2 Bft) NW 308 0 min 0,0 UV-I 21 W/m 11,5 C 12,3 C 6,1 kts (2 Bft) 100,00 %
17.06.2019 05:42 12,9 C 91 % 1020,8 hPa 0,0 l/m 4,0 kts (2 Bft) W-NW 299 0 min 0,0 UV-I 21 W/m 11,5 C 12,2 C 6,1 kts (2 Bft) 100,00 %
17.06.2019 05:41 12,9 C 91 % 1020,8 hPa 0,0 l/m 4,0 kts (2 Bft) W-NW 299 0 min 0,0 UV-I 19 W/m 11,5 C 12,3 C 6,1 kts (2 Bft) 100,00 %
17.06.2019 05:40 12,9 C 91 % 1020,8 hPa 0,0 l/m 3,1 kts (1 Bft) W-NW 299 0 min 0,0 UV-I 19 W/m 11,5 C 12,9 C 4,3 kts (2 Bft) 100,00 %
17.06.2019 05:39 12,9 C 92 % 1020,7 hPa 0,0 l/m 3,9 kts (2 Bft) W-NW 300 0 min 0,0 UV-I 19 W/m 11,6 C 12,3 C 6,1 kts (2 Bft) 100,00 %
17.06.2019 05:38 12,9 C 91 % 1020,7 hPa 0,0 l/m 3,8 kts (2 Bft) W-NW 299 0 min 0,0 UV-I 18 W/m 11,5 C 12,5 C 4,3 kts (2 Bft) 100,00 %
17.06.2019 05:37 12,9 C 92 % 1020,7 hPa 0,0 l/m 3,5 kts (2 Bft) W-NW 300 0 min 0,0 UV-I 18 W/m 11,6 C 12,9 C 4,3 kts (2 Bft) 100,00 %
17.06.2019 05:36 12,9 C 92 % 1020,7 hPa 0,0 l/m 3,8 kts (2 Bft) W-NW 300 0 min 0,0 UV-I 18 W/m 11,6 C 12,5 C 4,3 kts (2 Bft) 100,00 %
17.06.2019 05:35 12,9 C 91 % 1020,8 hPa 0,0 l/m 3,1 kts (2 Bft) W-NW 299 0 min 0,0 UV-I 16 W/m 11,5 C 12,9 C 4,3 kts (2 Bft) 100,00 %
17.06.2019 05:34 12,9 C 91 % 1020,8 hPa 0,0 l/m 3,4 kts (2 Bft) W-NW 298 0 min 0,0 UV-I 16 W/m 11,5 C 12,9 C 4,3 kts (2 Bft) 100,00 %
17.06.2019 05:33 13,0 C 90 % 1020,7 hPa 0,0 l/m 4,5 kts (2 Bft) W-NW 298 0 min 0,0 UV-I 14 W/m 11,4 C 11,8 C 6,1 kts (2 Bft) 100,00 %
17.06.2019 05:32 13,1 C 90 % 1020,8 hPa 0,0 l/m 4,2 kts (2 Bft) W-NW 298 0 min 0,0 UV-I 14 W/m 11,5 C 12,2 C 6,1 kts (2 Bft) 100,00 %
17.06.2019 05:31 13,1 C 90 % 1020,8 hPa 0,0 l/m 3,8 kts (2 Bft) W-NW 298 0 min 0,0 UV-I 14 W/m 11,5 C 12,7 C 6,1 kts (2 Bft) 100,00 %
17.06.2019 05:30 13,2 C 90 % 1020,8 hPa 0,0 l/m 4,8 kts (2 Bft) W-NW 293 0 min 0,0 UV-I 14 W/m 11,6 C 11,8 C 6,1 kts (2 Bft) 100,00 %
17.06.2019 05:29 13,2 C 90 % 1020,8 hPa 0,0 l/m 3,3 kts (2 Bft) W-NW 294 0 min 0,0 UV-I 14 W/m 11,6 C 13,2 C 3,5 kts (2 Bft) 100,00 %
17.06.2019 05:28 13,3 C 90 % 1020,8 hPa 0,0 l/m 4,1 kts (2 Bft) W-NW 294 0 min 0,0 UV-I 14 W/m 11,7 C 12,6 C 6,1 kts (2 Bft) 100,00 %
17.06.2019 05:27 13,3 C 90 % 1020,8 hPa 0,0 l/m 3,8 kts (2 Bft) W-NW 292 0 min 0,0 UV-I 14 W/m 11,7 C 12,9 C 6,1 kts (2 Bft) 95,83 %
17.06.2019 05:26 13,3 C 90 % 1020,8 hPa 0,0 l/m 4,0 kts (2 Bft) W-NW 290 0 min 0,0 UV-I 14 W/m 11,7 C 12,7 C 6,1 kts (2 Bft) 100,00 %
17.06.2019 05:25 13,3 C 90 % 1020,8 hPa 0,0 l/m 4,3 kts (2 Bft) W-NW 290 0 min 0,0 UV-I 14 W/m 11,7 C 12,4 C 6,1 kts (2 Bft) 100,00 %
17.06.2019 05:24 13,3 C 90 % 1020,9 hPa 0,0 l/m 4,3 kts (2 Bft) W-NW 293 0 min 0,0 UV-I 14 W/m 11,7 C 12,4 C 6,1 kts (2 Bft) 100,00 %
17.06.2019 05:23 13,4 C 90 % 1020,9 hPa 0,0 l/m 4,0 kts (2 Bft) W-NW 293 0 min 0,0 UV-I 12 W/m 11,8 C 12,7 C 4,3 kts (2 Bft) 95,65 %
17.06.2019 05:22 13,3 C 90 % 1020,8 hPa 0,0 l/m 5,3 kts (2 Bft) W-NW 293 0 min 0,0 UV-I 12 W/m 11,7 C 11,3 C 7,0 kts (3 Bft) 100,00 %
17.06.2019 05:21 13,3 C 90 % 1020,8 hPa 0,0 l/m 4,8 kts (2 Bft) W-NW 294 0 min 0,0 UV-I 12 W/m 11,7 C 11,9 C 6,1 kts (2 Bft) 100,00 %
17.06.2019 05:20 13,3 C 90 % 1020,8 hPa 0,0 l/m 4,9 kts (2 Bft) W-NW 294 0 min 0,0 UV-I 12 W/m 11,7 C 11,8 C 7,0 kts (3 Bft) 100,00 %
17.06.2019 05:19 13,3 C 90 % 1020,8 hPa 0,0 l/m 4,6 kts (2 Bft) W-NW 288 0 min 0,0 UV-I 12 W/m 11,7 C 12,0 C 6,1 kts (2 Bft) 100,00 %
17.06.2019 05:18 13,3 C 90 % 1020,8 hPa 0,0 l/m 4,9 kts (2 Bft) W-NW 288 0 min 0,0 UV-I 11 W/m 11,7 C 11,8 C 7,0 kts (3 Bft) 100,00 %
17.06.2019 05:17 13,3 C 90 % 1020,8 hPa 0,0 l/m 5,4 kts (2 Bft) W-NW 286 0 min 0,0 UV-I 11 W/m 11,7 C 11,2 C 6,1 kts (2 Bft) 100,00 %
17.06.2019 05:16 13,2 C 91 % 1020,7 hPa 0,0 l/m 5,4 kts (2 Bft) W-NW 286 0 min 0,0 UV-I 11 W/m 11,8 C 11,1 C 6,1 kts (2 Bft) 100,00 %
17.06.2019 05:15 13,2 C 91 % 1020,7 hPa 0,0 l/m 4,9 kts (2 Bft) W-NW 285 0 min 0,0 UV-I 9 W/m 11,8 C 11,6 C 6,1 kts (2 Bft) 100,00 %
17.06.2019 05:14 13,2 C 91 % 1020,7 hPa 0,0 l/m 5,4 kts (2 Bft) W-NW 282 0 min 0,0 UV-I 9 W/m 11,8 C 11,1 C 6,1 kts (2 Bft) 100,00 %
17.06.2019 05:13 13,2 C 91 % 1020,7 hPa 0,0 l/m 5,1 kts (2 Bft) W 278 0 min 0,0 UV-I 9 W/m 11,8 C 11,4 C 6,1 kts (2 Bft) 100,00 %
17.06.2019 05:12 13,2 C 91 % 1020,7 hPa 0,0 l/m 5,1 kts (2 Bft) W 277 0 min 0,0 UV-I 7 W/m 11,8 C 11,4 C 6,1 kts (2 Bft) 100,00 %
17.06.2019 05:11 13,2 C 91 % 1020,8 hPa 0,0 l/m 4,9 kts (2 Bft) W 269 0 min 0,0 UV-I 7 W/m 11,8 C 11,6 C 6,1 kts (2 Bft) 95,65 %
17.06.2019 05:10 13,2 C 91 % 1020,8 hPa 0,0 l/m 5,1 kts (2 Bft) W 267 0 min 0,0 UV-I 7 W/m 11,8 C 11,4 C 6,1 kts (2 Bft) 100,00 %
17.06.2019 05:09 13,2 C 91 % 1020,7 hPa 0,0 l/m 4,5 kts (2 Bft) W 267 0 min 0,0 UV-I 7 W/m 11,8 C 12,0 C 5,2 kts (2 Bft) 100,00 %
17.06.2019 05:08 13,1 C 91 % 1020,7 hPa 0,0 l/m 4,2 kts (2 Bft) W 267 0 min 0,0 UV-I 7 W/m 11,7 C 12,3 C 5,2 kts (2 Bft) 100,00 %
17.06.2019 05:07 13,1 C 91 % 1020,7 hPa 0,0 l/m 4,2 kts (2 Bft) W 267 0 min 0,0 UV-I 7 W/m 11,7 C 12,2 C 5,2 kts (2 Bft) 100,00 %
17.06.2019 05:06 13,1 C 91 % 1020,6 hPa 0,0 l/m 4,7 kts (2 Bft) W 267 0 min 0,0 UV-I 5 W/m 11,7 C 11,7 C 5,2 kts (2 Bft) 100,00 %
17.06.2019 05:05 13,1 C 91 % 1020,7 hPa 0,0 l/m 5,1 kts (2 Bft) W 266 0 min 0,0 UV-I 5 W/m 11,7 C 11,3 C 5,2 kts (2 Bft) 100,00 %
17.06.2019 05:04 13,0 C 92 % 1020,7 hPa 0,0 l/m 4,9 kts (2 Bft) W 266 0 min 0,0 UV-I 5 W/m 11,7 C 11,4 C 5,2 kts (2 Bft) 100,00 %
17.06.2019 05:03 13,0 C 92 % 1020,6 hPa 0,0 l/m 4,4 kts (2 Bft) W 267 0 min 0,0 UV-I 5 W/m 11,7 C 11,9 C 5,2 kts (2 Bft) 100,00 %
17.06.2019 05:02 12,9 C 92 % 1020,6 hPa 0,0 l/m 5,0 kts (2 Bft) W 269 0 min 0,0 UV-I 5 W/m 11,6 C 11,2 C 6,1 kts (2 Bft) 100,00 %
17.06.2019 05:01 12,9 C 92 % 1020,6 hPa 0,0 l/m 3,8 kts (2 Bft) W 278 0 min 0,0 UV-I 0 W/m 11,6 C 12,5 C 5,2 kts (2 Bft) 100,00 %
17.06.2019 05:00 12,8 C 92 % 1020,6 hPa 0,0 l/m 3,7 kts (2 Bft) W 278 0 min 0,0 UV-I 0 W/m 11,5 C 12,6 C 5,2 kts (2 Bft) 100,00 %
17.06.2019 04:59 12,7 C 93 % 1020,6 hPa 0,0 l/m 3,4 kts (2 Bft) W 281 0 min 0,0 UV-I 0 W/m 11,6 C 12,7 C 5,2 kts (2 Bft) 100,00 %
17.06.2019 04:58 12,6 C 93 % 1020,6 hPa 0,0 l/m 3,9 kts (2 Bft) W-NW 282 0 min 0,0 UV-I 0 W/m 11,5 C 12,0 C 5,2 kts (2 Bft) 100,00 %
17.06.2019 04:57 12,4 C 93 % 1020,5 hPa 0,0 l/m 3,0 kts (1 Bft) W-NW 286 0 min 0,0 UV-I 0 W/m 11,3 C 12,4 C 5,2 kts (2 Bft) 97,50 %
17.06.2019 04:56 12,4 C 93 % 1020,6 hPa 0,0 l/m 3,0 kts (1 Bft) W-NW 286 0 min 0,0 UV-I 0 W/m 11,3 C 12,4 C 3,5 kts (2 Bft) 100,00 %
17.06.2019 04:55 12,3 C 93 % 1020,6 hPa 0,0 l/m 3,0 kts (1 Bft) W-NW 286 0 min 0,0 UV-I 0 W/m 11,2 C 12,3 C 3,5 kts (2 Bft) 100,00 %
17.06.2019 04:54 12,2 C 93 % 1020,6 hPa 0,0 l/m 2,3 kts (1 Bft) W-NW 286 0 min 0,0 UV-I 0 W/m 11,1 C 12,2 C 2,6 kts (1 Bft) 100,00 %
17.06.2019 04:53 12,0 C 94 % 1020,6 hPa 0,0 l/m 2,2 kts (1 Bft) W-NW 286 0 min 0,0 UV-I 0 W/m 11,1 C 12,0 C 2,6 kts (1 Bft) 100,00 %
17.06.2019 04:52 11,9 C 93 % 1020,6 hPa 0,0 l/m 2,1 kts (1 Bft) W-NW 286 0 min 0,0 UV-I 0 W/m 10,8 C 11,9 C 2,6 kts (1 Bft) 100,00 %
17.06.2019 04:51 11,8 C 93 % 1020,6 hPa 0,0 l/m 1,9 kts (1 Bft) W-NW 286 0 min 0,0 UV-I 0 W/m 10,7 C 11,8 C 2,6 kts (1 Bft) 100,00 %
17.06.2019 04:50 11,8 C 93 % 1020,6 hPa 0,0 l/m 2,8 kts (1 Bft) W-NW 286 0 min 0,0 UV-I 0 W/m 10,7 C 11,8 C 3,5 kts (2 Bft) 100,00 %
17.06.2019 04:49 11,8 C 93 % 1020,6 hPa 0,0 l/m 2,8 kts (1 Bft) W-NW 286 0 min 0,0 UV-I 0 W/m 10,7 C 11,8 C 3,5 kts (2 Bft) 100,00 %
17.06.2019 04:48 11,8 C 93 % 1020,5 hPa 0,0 l/m 1,8 kts (1 Bft) W-NW 283 0 min 0,0 UV-I 0 W/m 10,7 C 11,8 C 2,6 kts (1 Bft) 100,00 %
17.06.2019 04:47 11,8 C 93 % 1020,5 hPa 0,0 l/m 3,2 kts (2 Bft) W-NW 283 0 min 0,0 UV-I 0 W/m 10,7 C 11,8 C 3,5 kts (2 Bft) 100,00 %
17.06.2019 04:46 11,8 C 94 % 1020,5 hPa 0,0 l/m 3,1 kts (1 Bft) W-NW 287 0 min 0,0 UV-I 0 W/m 10,9 C 11,8 C 3,5 kts (2 Bft) 100,00 %
17.06.2019 04:45 11,7 C 94 % 1020,5 hPa 0,0 l/m 3,0 kts (1 Bft) W-NW 285 0 min 0,0 UV-I 0 W/m 10,8 C 11,7 C 5,2 kts (2 Bft) 100,00 %
17.06.2019 04:44 11,7 C 93 % 1020,5 hPa 0,0 l/m 1,7 kts (1 Bft) W-NW 282 0 min 0,0 UV-I 0 W/m 10,6 C 11,7 C 1,7 kts (1 Bft) 100,00 %
17.06.2019 04:43 11,7 C 92 % 1020,5 hPa 0,0 l/m 1,3 kts (1 Bft) W-NW 282 0 min 0,0 UV-I 0 W/m 10,4 C 11,7 C 2,6 kts (1 Bft) 96,67 %
17.06.2019 04:42 11,8 C 92 % 1020,5 hPa 0,0 l/m 0,9 kts (1 Bft) W-NW 282 0 min 0,0 UV-I 0 W/m 10,5 C 11,8 C 1,7 kts (1 Bft) 100,00 %
17.06.2019 04:41 11,9 C 92 % 1020,5 hPa 0,0 l/m 1,3 kts (1 Bft) W-NW 282 0 min 0,0 UV-I 0 W/m 10,6 C 11,9 C 2,6 kts (1 Bft) 93,33 %
17.06.2019 04:40 11,9 C 91 % 1020,5 hPa 0,0 l/m 1,9 kts (1 Bft) W-NW 282 0 min 0,0 UV-I 0 W/m 10,5 C 11,9 C 2,6 kts (1 Bft) 100,00 %
17.06.2019 04:39 12,0 C 91 % 1020,4 hPa 0,0 l/m 2,1 kts (1 Bft) W-NW 282 0 min 0,0 UV-I 0 W/m 10,6 C 12,0 C 2,6 kts (1 Bft) 100,00 %
17.06.2019 04:38 12,1 C 91 % 1020,4 hPa 0,0 l/m 2,9 kts (1 Bft) W-NW 282 0 min 0,0 UV-I 0 W/m 10,7 C 12,1 C 3,5 kts (2 Bft) 100,00 %
17.06.2019 04:37 12,2 C 90 % 1020,4 hPa 0,0 l/m 2,4 kts (1 Bft) W-NW 282 0 min 0,0 UV-I 0 W/m 10,6 C 12,2 C 3,5 kts (2 Bft) 95,65 %
17.06.2019 04:36 12,3 C 91 % 1020,4 hPa 0,0 l/m 2,3 kts (1 Bft) W-NW 284 0 min 0,0 UV-I 0 W/m 10,9 C 12,3 C 3,5 kts (2 Bft) 100,00 %
17.06.2019 04:35 12,3 C 91 % 1020,4 hPa 0,0 l/m 2,3 kts (1 Bft) W-NW 283 0 min 0,0 UV-I 0 W/m 10,9 C 12,3 C 3,5 kts (2 Bft) 100,00 %
17.06.2019 04:34 12,3 C 90 % 1020,4 hPa 0,0 l/m 3,5 kts (2 Bft) W 277 0 min 0,0 UV-I 0 W/m 10,7 C 12,3 C 5,2 kts (2 Bft) 100,00 %
17.06.2019 04:33 12,4 C 90 % 1020,5 hPa 0,0 l/m 3,7 kts (2 Bft) W 279 0 min 0,0 UV-I 0 W/m 10,8 C 12,1 C 6,1 kts (2 Bft) 100,00 %
17.06.2019 04:32 12,4 C 90 % 1020,4 hPa 0,0 l/m 4,2 kts (2 Bft) W-NW 284 0 min 0,0 UV-I 0 W/m 10,8 C 11,6 C 6,1 kts (2 Bft) 100,00 %
17.06.2019 04:31 12,4 C 90 % 1020,4 hPa 0,0 l/m 2,8 kts (1 Bft) W-NW 300 0 min 0,0 UV-I 0 W/m 10,8 C 12,4 C 3,5 kts (2 Bft) 100,00 %
17.06.2019 04:30 12,4 C 90 % 1020,5 hPa 0,0 l/m 1,9 kts (1 Bft) W-NW 300 0 min 0,0 UV-I 0 W/m 10,8 C 12,4 C 4,3 kts (2 Bft) 95,65 %
17.06.2019 04:29 12,4 C 90 % 1020,4 hPa 0,0 l/m 3,2 kts (2 Bft) W-NW 300 0 min 0,0 UV-I 0 W/m 10,8 C 12,4 C 4,3 kts (2 Bft) 100,00 %
17.06.2019 04:28 12,4 C 91 % 1020,4 hPa 0,0 l/m 3,6 kts (2 Bft) NW 309 0 min 0,0 UV-I 0 W/m 11,0 C 12,2 C 6,1 kts (2 Bft) 100,00 %
17.06.2019 04:27 12,3 C 91 % 1020,4 hPa 0,0 l/m 2,4 kts (1 Bft) W-NW 302 0 min 0,0 UV-I 0 W/m 10,9 C 12,3 C 3,5 kts (2 Bft) 100,00 %
17.06.2019 04:26 12,2 C 91 % 1020,5 hPa 0,0 l/m 2,5 kts (1 Bft) W-NW 302 0 min 0,0 UV-I 0 W/m 10,8 C 12,2 C 3,5 kts (2 Bft) 100,00 %
17.06.2019 04:25 12,3 C 91 % 1020,5 hPa 0,0 l/m 2,9 kts (1 Bft) W-NW 302 0 min 0,0 UV-I 0 W/m 10,9 C 12,3 C 3,5 kts (2 Bft) 100,00 %
17.06.2019 04:24 12,3 C 90 % 1020,4 hPa 0,0 l/m 2,4 kts (1 Bft) W-NW 299 0 min 0,0 UV-I 0 W/m 10,7 C 12,3 C 3,5 kts (2 Bft) 100,00 %
17.06.2019 04:23 12,3 C 90 % 1020,4 hPa 0,0 l/m 2,4 kts (1 Bft) W-NW 299 0 min 0,0 UV-I 0 W/m 10,7 C 12,3 C 3,5 kts (2 Bft) 100,00 %
17.06.2019 04:22 12,4 C 89 % 1020,4 hPa 0,0 l/m 2,4 kts (1 Bft) W-NW 299 0 min 0,0 UV-I 0 W/m 10,6 C 12,4 C 3,5 kts (2 Bft) 100,00 %
17.06.2019 04:21 12,6 C 89 % 1020,5 hPa 0,0 l/m 4,8 kts (2 Bft) W-NW 300 0 min 0,0 UV-I 0 W/m 10,8 C 11,1 C 7,0 kts (3 Bft) 100,00 %
17.06.2019 04:20 12,6 C 89 % 1020,5 hPa 0,0 l/m 2,8 kts (1 Bft) W-NW 284 0 min 0,0 UV-I 0 W/m 10,8 C 12,6 C 5,2 kts (2 Bft) 100,00 %
17.06.2019 04:19 12,6 C 89 % 1020,4 hPa 0,0 l/m 4,5 kts (2 Bft) W-NW 284 0 min 0,0 UV-I 0 W/m 10,8 C 11,3 C 7,0 kts (3 Bft) 100,00 %
17.06.2019 04:18 12,7 C 89 % 1020,4 hPa 0,0 l/m 3,9 kts (2 Bft) W-NW 284 0 min 0,0 UV-I 0 W/m 10,9 C 12,1 C 7,0 kts (3 Bft) 100,00 %
17.06.2019 04:17 12,7 C 89 % 1020,4 hPa 0,0 l/m 4,0 kts (2 Bft) W-NW 292 0 min 0,0 UV-I 0 W/m 10,9 C 12,1 C 6,1 kts (2 Bft) 96,15 %
17.06.2019 04:16 12,7 C 88 % 1020,4 hPa 0,0 l/m 3,2 kts (2 Bft) W-NW 297 0 min 0,0 UV-I 0 W/m 10,8 C 12,7 C 3,5 kts (2 Bft) 95,83 %
17.06.2019 04:15 12,9 C 88 % 1020,4 hPa 0,0 l/m 3,0 kts (1 Bft) W-NW 300 0 min 0,0 UV-I 0 W/m 11,0 C 12,9 C 4,3 kts (2 Bft) 100,00 %
17.06.2019 04:14 13,0 C 87 % 1020,5 hPa 0,0 l/m 2,8 kts (1 Bft) NW 306 0 min 0,0 UV-I 0 W/m 10,9 C 13,0 C 3,5 kts (2 Bft) 100,00 %
17.06.2019 04:13 13,2 C 86 % 1020,4 hPa 0,0 l/m 2,8 kts (1 Bft) NW 307 0 min 0,0 UV-I 0 W/m 10,9 C 13,2 C 4,3 kts (2 Bft) 100,00 %
17.06.2019 04:12 13,4 C 86 % 1020,4 hPa 0,0 l/m 2,5 kts (1 Bft) NW 307 0 min 0,0 UV-I 0 W/m 11,1 C 13,4 C 3,5 kts (2 Bft) 100,00 %
17.06.2019 04:11 13,6 C 86 % 1020,5 hPa 0,0 l/m 3,5 kts (2 Bft) NW 307 0 min 0,0 UV-I 0 W/m 11,3 C 13,6 C 4,3 kts (2 Bft) 100,00 %
17.06.2019 04:10 13,7 C 86 % 1020,4 hPa 0,0 l/m 4,8 kts (2 Bft) NW 308 0 min 0,0 UV-I 0 W/m 11,4 C 12,2 C 7,8 kts (3 Bft) 95,65 %
17.06.2019 04:09 13,7 C 86 % 1020,4 hPa 0,0 l/m 3,5 kts (2 Bft) W-NW 293 0 min 0,0 UV-I 0 W/m 11,4 C 13,7 C 6,1 kts (2 Bft) 96,30 %
17.06.2019 04:08 13,7 C 86 % 1020,4 hPa 0,0 l/m 5,5 kts (2 Bft) W 281 0 min 0,0 UV-I 0 W/m 11,4 C 11,6 C 7,8 kts (3 Bft) 100,00 %
17.06.2019 04:07 13,8 C 86 % 1020,3 hPa 0,0 l/m 6,6 kts (2 Bft) W 275 0 min 0,0 UV-I 0 W/m 11,5 C 10,8 C 8,7 kts (3 Bft) 96,30 %
17.06.2019 04:06 13,7 C 86 % 1020,4 hPa 0,0 l/m 6,2 kts (2 Bft) W 279 0 min 0,0 UV-I 0 W/m 11,4 C 11,0 C 7,0 kts (3 Bft) 100,00 %
17.06.2019 04:05 13,7 C 87 % 1020,4 hPa 0,0 l/m 7,2 kts (3 Bft) W 278 0 min 0,0 UV-I 0 W/m 11,6 C 10,2 C 7,8 kts (3 Bft) 95,65 %
17.06.2019 04:04 13,7 C 87 % 1020,2 hPa 0,0 l/m 7,8 kts (3 Bft) W 277 0 min 0,0 UV-I 0 W/m 11,6 C 9,8 C 8,7 kts (3 Bft) 100,00 %
17.06.2019 04:03 13,7 C 87 % 1020,3 hPa 0,0 l/m 7,6 kts (3 Bft) W 274 0 min 0,0 UV-I 0 W/m 11,6 C 9,9 C 8,7 kts (3 Bft) 91,67 %
17.06.2019 04:02 13,7 C 87 % 1020,3 hPa 0,0 l/m 7,8 kts (3 Bft) W 271 0 min 0,0 UV-I 0 W/m 11,6 C 9,8 C 9,6 kts (3 Bft) 100,00 %
17.06.2019 04:01 13,7 C 87 % 1020,4 hPa 0,0 l/m 8,0 kts (3 Bft) W 271 0 min 0,0 UV-I 0 W/m 11,6 C 9,7 C 9,6 kts (3 Bft) 94,12 %
17.06.2019 04:00 13,6 C 87 % 1020,4 hPa 0,0 l/m 7,8 kts (3 Bft) W 279 0 min 0,0 UV-I 0 W/m 11,5 C 9,7 C 8,7 kts (3 Bft) 100,00 %
17.06.2019 03:59 13,6 C 88 % 1020,4 hPa 0,0 l/m 7,9 kts (3 Bft) W 271 0 min 0,0 UV-I 0 W/m 11,6 C 9,6 C 8,7 kts (3 Bft) 95,65 %
17.06.2019 03:58 13,5 C 88 % 1020,4 hPa 0,0 l/m 8,0 kts (3 Bft) W 281 0 min 0,0 UV-I 0 W/m 11,6 C 9,4 C 8,7 kts (3 Bft) 95,83 %
17.06.2019 03:57 13,4 C 88 % 1020,4 hPa 0,0 l/m 8,3 kts (3 Bft) W 279 0 min 0,0 UV-I 0 W/m 11,5 C 9,1 C 8,7 kts (3 Bft) 100,00 %
17.06.2019 03:56 13,4 C 89 % 1020,5 hPa 0,0 l/m 7,3 kts (3 Bft) W-NW 282 0 min 0,0 UV-I 0 W/m 11,6 C 9,8 C 7,8 kts (3 Bft) 96,15 %
17.06.2019 03:55 13,4 C 89 % 1020,5 hPa 0,0 l/m 6,0 kts (2 Bft) W-NW 290 0 min 0,0 UV-I 0 W/m 11,6 C 10,8 C 7,8 kts (3 Bft) 100,00 %
17.06.2019 03:54 13,4 C 89 % 1020,5 hPa 0,0 l/m 6,2 kts (2 Bft) W-NW 282 0 min 0,0 UV-I 0 W/m 11,6 C 10,7 C 7,8 kts (3 Bft) 95,65 %
17.06.2019 03:53 13,5 C 89 % 1020,5 hPa 0,0 l/m 5,6 kts (2 Bft) W-NW 285 0 min 0,0 UV-I 0 W/m 11,7 C 11,3 C 7,0 kts (3 Bft) 100,00 %
17.06.2019 03:52 13,6 C 89 % 1020,5 hPa 0,0 l/m 5,0 kts (2 Bft) W-NW 294 0 min 0,0 UV-I 0 W/m 11,8 C 11,9 C 7,0 kts (3 Bft) 95,65 %
17.06.2019 03:51 13,6 C 88 % 1020,5 hPa 0,0 l/m 5,1 kts (2 Bft) W-NW 297 0 min 0,0 UV-I 0 W/m 11,6 C 11,9 C 7,0 kts (3 Bft) 95,65 %
17.06.2019 03:50 13,7 C 88 % 1020,5 hPa 0,0 l/m 3,7 kts (2 Bft) W-NW 292 0 min 0,0 UV-I 0 W/m 11,7 C 13,4 C 4,3 kts (2 Bft) 100,00 %
17.06.2019 03:49 13,7 C 88 % 1020,6 hPa 0,0 l/m 4,2 kts (2 Bft) W-NW 291 0 min 0,0 UV-I 0 W/m 11,7 C 12,9 C 6,1 kts (2 Bft) 95,65 %
17.06.2019 03:48 13,8 C 88 % 1020,6 hPa 0,0 l/m 4,9 kts (2 Bft) W-NW 291 0 min 0,0 UV-I 0 W/m 11,8 C 12,2 C 6,1 kts (2 Bft) 100,00 %
17.06.2019 03:47 13,8 C 88 % 1020,5 hPa 0,0 l/m 4,3 kts (2 Bft) W-NW 292 0 min 0,0 UV-I 0 W/m 11,8 C 12,8 C 6,1 kts (2 Bft) 95,65 %
17.06.2019 03:46 13,8 C 89 % 1020,5 hPa 0,0 l/m 4,0 kts (2 Bft) W-NW 291 0 min 0,0 UV-I 0 W/m 12,0 C 13,1 C 6,1 kts (2 Bft) 100,00 %
17.06.2019 03:45 13,8 C 89 % 1020,4 hPa 0,0 l/m 4,9 kts (2 Bft) W-NW 288 0 min 0,0 UV-I 0 W/m 12,0 C 12,3 C 6,1 kts (2 Bft) 95,83 %
17.06.2019 03:44 13,8 C 89 % 1020,4 hPa 0,0 l/m 3,7 kts (2 Bft) W-NW 288 0 min 0,0 UV-I 0 W/m 12,0 C 13,5 C 6,1 kts (2 Bft) 95,65 %
17.06.2019 03:43 13,8 C 89 % 1020,4 hPa 0,0 l/m 4,3 kts (2 Bft) W-NW 291 0 min 0,0 UV-I 0 W/m 12,0 C 12,8 C 6,1 kts (2 Bft) 100,00 %
17.06.2019 03:42 13,8 C 89 % 1020,5 hPa 0,0 l/m 5,1 kts (2 Bft) W-NW 292 0 min 0,0 UV-I 0 W/m 12,0 C 12,0 C 6,1 kts (2 Bft) 95,65 %
17.06.2019 03:41 13,8 C 89 % 1020,5 hPa 0,0 l/m 5,8 kts (2 Bft) W-NW 292 0 min 0,0 UV-I 0 W/m 12,0 C 11,4 C 7,0 kts (3 Bft) 100,00 %
17.06.2019 03:40 13,8 C 89 % 1020,5 hPa 0,0 l/m 4,7 kts (2 Bft) W-NW 294 0 min 0,0 UV-I 0 W/m 12,0 C 12,5 C 6,1 kts (2 Bft) 96,55 %
17.06.2019 03:39 13,9 C 89 % 1020,5 hPa 0,0 l/m 5,2 kts (2 Bft) W-NW 294 0 min 0,0 UV-I 0 W/m 12,1 C 12,0 C 7,0 kts (3 Bft) 100,00 %
17.06.2019 03:38 13,9 C 89 % 1020,5 hPa 0,0 l/m 5,2 kts (2 Bft) W-NW 295 0 min 0,0 UV-I 0 W/m 12,1 C 12,1 C 6,1 kts (2 Bft) 95,83 %
17.06.2019 03:37 13,9 C 89 % 1020,6 hPa 0,0 l/m 5,2 kts (2 Bft) W-NW 293 0 min 0,0 UV-I 0 W/m 12,1 C 12,0 C 6,1 kts (2 Bft) 96,55 %
17.06.2019 03:36 13,8 C 89 % 1020,6 hPa 0,0 l/m 5,2 kts (2 Bft) W-NW 293 0 min 0,0 UV-I 0 W/m 12,0 C 11,9 C 6,1 kts (2 Bft) 100,00 %
17.06.2019 03:35 13,9 C 89 % 1020,6 hPa 0,0 l/m 4,8 kts (2 Bft) W-NW 293 0 min 0,0 UV-I 0 W/m 12,1 C 12,5 C 6,1 kts (2 Bft) 99,02 %
17.06.2019 03:34 13,8 C 89 % 1020,6 hPa 0,0 l/m 4,3 kts (2 Bft) W-NW 289 0 min 0,0 UV-I 0 W/m 12,0 C 12,8 C 4,3 kts (2 Bft) 99,02 %
17.06.2019 03:33 13,9 C 89 % 1020,6 hPa 0,0 l/m 4,5 kts (2 Bft) W-NW 289 0 min 0,0 UV-I 0 W/m 12,1 C 12,8 C 6,1 kts (2 Bft) 100,00 %
17.06.2019 03:32 13,9 C 89 % 1020,6 hPa 0,0 l/m 6,1 kts (2 Bft) W-NW 290 0 min 0,0 UV-I 0 W/m 12,1 C 11,3 C 7,0 kts (3 Bft) 100,00 %
17.06.2019 03:31 13,9 C 89 % 1020,5 hPa 0,0 l/m 6,0 kts (2 Bft) W-NW 284 0 min 0,0 UV-I 0 W/m 12,1 C 11,3 C 7,0 kts (3 Bft) 100,00 %
17.06.2019 03:30 13,9 C 89 % 1020,5 hPa 0,0 l/m 5,8 kts (2 Bft) W-NW 284 0 min 0,0 UV-I 0 W/m 12,1 C 11,6 C 7,0 kts (3 Bft) 100,00 %
17.06.2019 03:29 13,9 C 89 % 1020,6 hPa 0,0 l/m 5,5 kts (2 Bft) W 279 0 min 0,0 UV-I 0 W/m 12,1 C 11,9 C 6,1 kts (2 Bft) 100,00 %
17.06.2019 03:28 13,9 C 89 % 1020,6 hPa 0,0 l/m 5,3 kts (2 Bft) W 279 0 min 0,0 UV-I 0 W/m 12,1 C 12,0 C 6,1 kts (2 Bft) 100,00 %
17.06.2019 03:27 13,9 C 89 % 1020,6 hPa 0,0 l/m 5,6 kts (2 Bft) W 276 0 min 0,0 UV-I 0 W/m 12,1 C 11,8 C 6,1 kts (2 Bft) 100,00 %
17.06.2019 03:26 13,9 C 89 % 1020,7 hPa 0,0 l/m 5,3 kts (2 Bft) W 272 0 min 0,0 UV-I 0 W/m 12,1 C 12,0 C 6,1 kts (2 Bft) 100,00 %
17.06.2019 03:25 13,9 C 89 % 1020,7 hPa 0,0 l/m 4,8 kts (2 Bft) W 271 0 min 0,0 UV-I 0 W/m 12,1 C 12,5 C 5,2 kts (2 Bft) 100,00 %
17.06.2019 03:24 13,9 C 89 % 1020,6 hPa 0,0 l/m 4,6 kts (2 Bft) W 270 0 min 0,0 UV-I 0 W/m 12,1 C 12,6 C 5,2 kts (2 Bft) 97,56 %
17.06.2019 03:23 13,9 C 89 % 1020,7 hPa 0,0 l/m 4,6 kts (2 Bft) W 271 0 min 0,0 UV-I 0 W/m 12,1 C 12,7 C 5,2 kts (2 Bft) 100,00 %
17.06.2019 03:22 13,8 C 89 % 1020,7 hPa 0,0 l/m 4,4 kts (2 Bft) W 263 0 min 0,0 UV-I 0 W/m 12,0 C 12,7 C 5,2 kts (2 Bft) 100,00 %
17.06.2019 03:21 13,9 C 89 % 1020,7 hPa 0,0 l/m 3,5 kts (2 Bft) W 261 0 min 0,0 UV-I 0 W/m 12,1 C 13,9 C 5,2 kts (2 Bft) 100,00 %
17.06.2019 03:20 13,8 C 89 % 1020,7 hPa 0,0 l/m 3,3 kts (2 Bft) W-SW 248 0 min 0,0 UV-I 0 W/m 12,0 C 13,8 C 3,5 kts (2 Bft) 100,00 %
17.06.2019 03:19 13,8 C 89 % 1020,7 hPa 0,0 l/m 3,2 kts (2 Bft) W-SW 244 0 min 0,0 UV-I 0 W/m 12,0 C 13,8 C 3,5 kts (2 Bft) 100,00 %
17.06.2019 03:18 13,8 C 89 % 1020,7 hPa 0,0 l/m 3,2 kts (2 Bft) W-SW 238 0 min 0,0 UV-I 0 W/m 12,0 C 13,8 C 3,5 kts (2 Bft) 100,00 %
17.06.2019 03:17 13,8 C 89 % 1020,7 hPa 0,0 l/m 3,6 kts (2 Bft) W-SW 238 0 min 0,0 UV-I 0 W/m 12,0 C 13,7 C 4,3 kts (2 Bft) 100,00 %
17.06.2019 03:16 13,8 C 89 % 1020,7 hPa 0,0 l/m 3,5 kts (2 Bft) W-SW 238 0 min 0,0 UV-I 0 W/m 12,0 C 13,8 C 3,5 kts (2 Bft) 98,93 %
17.06.2019 03:14 13,7 C 90 % 1020,7 hPa 0,0 l/m 3,5 kts (2 Bft) W-SW 238 0 min 0,0 UV-I 0 W/m 12,1 C 13,7 C 3,5 kts (2 Bft) 98,93 %
17.06.2019 03:13 13,7 C 90 % 1020,8 hPa 0,0 l/m 3,5 kts (2 Bft) N-NW 329 0 min 0,0 UV-I 0 W/m 12,1 C 13,7 C 3,5 kts (2 Bft) 100,00 %
17.06.2019 03:12 13,6 C 90 % 1020,8 hPa 0,0 l/m 3,2 kts (2 Bft) N 5 0 min 0,0 UV-I 0 W/m 12,0 C 13,6 C 3,5 kts (2 Bft) 98,93 %
17.06.2019 03:11 13,6 C 90 % 1020,8 hPa 0,0 l/m 2,8 kts (1 Bft) N-NO 17 0 min 0,0 UV-I 0 W/m 12,0 C 13,6 C 3,5 kts (2 Bft) 100,00 %
17.06.2019 03:10 13,5 C 90 % 1020,7 hPa 0,0 l/m 2,9 kts (1 Bft) N-NO 17 0 min 0,0 UV-I 0 W/m 11,9 C 13,5 C 3,5 kts (2 Bft) 98,46 %
17.06.2019 03:09 13,4 C 91 % 1020,7 hPa 0,0 l/m 3,1 kts (1 Bft) N-NO 17 0 min 0,0 UV-I 0 W/m 12,0 C 13,4 C 3,5 kts (2 Bft) 98,93 %
17.06.2019 03:08 13,3 C 91 % 1020,7 hPa 0,0 l/m 2,9 kts (1 Bft) N-NO 17 0 min 0,0 UV-I 0 W/m 11,9 C 13,3 C 3,5 kts (2 Bft) 100,00 %
17.06.2019 03:07 13,3 C 91 % 1020,7 hPa 0,0 l/m 2,9 kts (1 Bft) N-NO 17 0 min 0,0 UV-I 0 W/m 11,9 C 13,3 C 3,5 kts (2 Bft) 100,00 %
17.06.2019 03:06 13,2 C 92 % 1020,8 hPa 0,0 l/m 2,7 kts (1 Bft) N-NO 18 0 min 0,0 UV-I 0 W/m 11,9 C 13,2 C 3,5 kts (2 Bft) 100,00 %
17.06.2019 03:05 13,2 C 92 % 1020,8 hPa 0,0 l/m 2,3 kts (1 Bft) N-NO 18 0 min 0,0 UV-I 0 W/m 11,9 C 13,2 C 2,6 kts (1 Bft) 100,00 %
17.06.2019 03:04 13,1 C 92 % 1020,7 hPa 0,0 l/m 2,4 kts (1 Bft) N-NO 18 0 min 0,0 UV-I 0 W/m 11,8 C 13,1 C 2,6 kts (1 Bft) 100,00 %
17.06.2019 03:03 13,1 C 93 % 1020,8 hPa 0,0 l/m 2,4 kts (1 Bft) N-NO 18 0 min 0,0 UV-I 0 W/m 12,0 C 13,1 C 2,6 kts (1 Bft) 100,00 %
17.06.2019 03:02 12,9 C 93 % 1020,7 hPa 0,0 l/m 2,3 kts (1 Bft) N-NO 18 0 min 0,0 UV-I 0 W/m 11,8 C 12,9 C 2,6 kts (1 Bft) 100,00 %
17.06.2019 03:01 12,9 C 93 % 1020,8 hPa 0,0 l/m 1,8 kts (1 Bft) N-NO 18 0 min 0,0 UV-I 0 W/m 11,8 C 12,9 C 2,6 kts (1 Bft) 100,00 %
17.06.2019 03:00 12,8 C 93 % 1020,8 hPa 0,0 l/m 2,6 kts (1 Bft) N-NO 18 0 min 0,0 UV-I 0 W/m 11,7 C 12,8 C 2,6 kts (1 Bft) 100,00 %
17.06.2019 02:59 12,8 C 94 % 1020,8 hPa 0,0 l/m 2,5 kts (1 Bft) N-NO 18 0 min 0,0 UV-I 0 W/m 11,9 C 12,8 C 2,6 kts (1 Bft) 100,00 %
17.06.2019 02:58 12,7 C 94 % 1020,8 hPa 0,0 l/m 2,3 kts (1 Bft) N-NO 18 0 min 0,0 UV-I 0 W/m 11,8 C 12,7 C 2,6 kts (1 Bft) 100,00 %
17.06.2019 02:57 12,6 C 94 % 1020,9 hPa 0,0 l/m 2,6 kts (1 Bft) N-NO 18 0 min 0,0 UV-I 0 W/m 11,7 C 12,6 C 3,5 kts (2 Bft) 100,00 %
17.06.2019 02:56 12,6 C 94 % 1020,8 hPa 0,0 l/m 2,8 kts (1 Bft) N-NO 17 0 min 0,0 UV-I 0 W/m 11,7 C 12,6 C 3,5 kts (2 Bft) 100,00 %
17.06.2019 02:55 12,5 C 94 % 1020,8 hPa 0,0 l/m 3,0 kts (1 Bft) N-NO 18 0 min 0,0 UV-I 0 W/m 11,6 C 12,5 C 3,5 kts (2 Bft) 100,00 %
17.06.2019 02:54 12,4 C 94 % 1020,8 hPa 0,0 l/m 2,5 kts (1 Bft) N-NO 18 0 min 0,0 UV-I 0 W/m 11,5 C 12,4 C 2,6 kts (1 Bft) 100,00 %
17.06.2019 02:53 12,4 C 94 % 1020,8 hPa 0,0 l/m 2,8 kts (1 Bft) N-NO 18 0 min 0,0 UV-I 0 W/m 11,5 C 12,4 C 3,5 kts (2 Bft) 100,00 %
17.06.2019 02:52 12,4 C 94 % 1020,8 hPa 0,0 l/m 2,2 kts (1 Bft) N-NO 18 0 min 0,0 UV-I 0 W/m 11,5 C 12,4 C 2,6 kts (1 Bft) 100,00 %
17.06.2019 02:51 12,4 C 94 % 1020,7 hPa 0,0 l/m 2,4 kts (1 Bft) N-NO 18 0 min 0,0 UV-I 0 W/m 11,5 C 12,4 C 2,6 kts (1 Bft) 100,00 %
17.06.2019 02:50 12,4 C 94 % 1020,7 hPa 0,0 l/m 2,6 kts (1 Bft) N-NO 18 0 min 0,0 UV-I 0 W/m 11,5 C 12,4 C 3,5 kts (2 Bft) 100,00 %
17.06.2019 02:49 12,4 C 93 % 1020,7 hPa 0,0 l/m 2,6 kts (1 Bft) N-NO 18 0 min 0,0 UV-I 0 W/m 11,3 C 12,4 C 3,5 kts (2 Bft) 100,00 %
17.06.2019 02:48 12,6 C 93 % 1020,7 hPa 0,0 l/m 3,3 kts (2 Bft) N-NO 18 0 min 0,0 UV-I 0 W/m 11,5 C 12,6 C 4,3 kts (2 Bft) 100,00 %
17.06.2019 02:47 12,6 C 92 % 1020,7 hPa 0,0 l/m 2,6 kts (1 Bft) N-NO 18 0 min 0,0 UV-I 0 W/m 11,3 C 12,6 C 3,5 kts (2 Bft) 100,00 %
17.06.2019 02:46 12,7 C 92 % 1020,7 hPa 0,0 l/m 2,9 kts (1 Bft) N-NO 18 0 min 0,0 UV-I 0 W/m 11,4 C 12,7 C 3,5 kts (2 Bft) 100,00 %
17.06.2019 02:45 12,8 C 91 % 1020,7 hPa 0,0 l/m 2,5 kts (1 Bft) N-NO 18 0 min 0,0 UV-I 0 W/m 11,4 C 12,8 C 3,5 kts (2 Bft) 100,00 %
17.06.2019 02:44 12,9 C 90 % 1020,7 hPa 0,0 l/m 3,0 kts (1 Bft) N-NO 18 0 min 0,0 UV-I 0 W/m 11,3 C 12,9 C 3,5 kts (2 Bft) 95,65 %
17.06.2019 02:43 13,2 C 90 % 1020,7 hPa 0,0 l/m 3,0 kts (1 Bft) N-NO 17 0 min 0,0 UV-I 0 W/m 11,6 C 13,2 C 3,5 kts (2 Bft) 100,00 %
17.06.2019 02:42 13,3 C 89 % 1020,7 hPa 0,0 l/m 2,6 kts (1 Bft) NW 313 0 min 0,0 UV-I 0 W/m 11,5 C 13,3 C 3,5 kts (2 Bft) 100,00 %
17.06.2019 02:41 13,6 C 89 % 1020,7 hPa 0,0 l/m 2,3 kts (1 Bft) W-NW 296 0 min 0,0 UV-I 0 W/m 11,8 C 13,6 C 2,6 kts (1 Bft) 96,30 %
17.06.2019 02:40 13,7 C 88 % 1020,7 hPa 0,0 l/m 1,8 kts (1 Bft) W 275 0 min 0,0 UV-I 0 W/m 11,7 C 13,7 C 2,6 kts (1 Bft) 100,00 %
17.06.2019 02:39 13,8 C 88 % 1020,6 hPa 0,0 l/m 1,9 kts (1 Bft) W 275 0 min 0,0 UV-I 0 W/m 11,8 C 13,8 C 2,6 kts (1 Bft) 100,00 %
17.06.2019 02:38 13,9 C 89 % 1020,5 hPa 0,0 l/m 1,7 kts (1 Bft) W 275 0 min 0,0 UV-I 0 W/m 12,1 C 13,9 C 2,6 kts (1 Bft) 100,00 %
17.06.2019 02:37 14,0 C 89 % 1020,5 hPa 0,0 l/m 2,5 kts (1 Bft) W 275 0 min 0,0 UV-I 0 W/m 12,2 C 14,0 C 3,5 kts (2 Bft) 100,00 %
17.06.2019 02:36 14,0 C 88 % 1020,6 hPa 0,0 l/m 3,2 kts (2 Bft) W 275 0 min 0,0 UV-I 0 W/m 12,0 C 14,0 C 5,2 kts (2 Bft) 100,00 %
17.06.2019 02:35 14,1 C 88 % 1020,5 hPa 0,0 l/m 3,7 kts (2 Bft) W 275 0 min 0,0 UV-I 0 W/m 12,1 C 13,9 C 5,2 kts (2 Bft) 100,00 %
17.06.2019 02:34 14,1 C 88 % 1020,5 hPa 0,0 l/m 4,5 kts (2 Bft) W 275 0 min 0,0 UV-I 0 W/m 12,1 C 12,9 C 6,1 kts (2 Bft) 96,15 %
17.06.2019 02:33 14,1 C 89 % 1020,5 hPa 0,0 l/m 5,6 kts (2 Bft) W 275 0 min 0,0 UV-I 0 W/m 12,3 C 11,9 C 7,0 kts (3 Bft) 100,00 %
17.06.2019 02:32 14,1 C 88 % 1020,5 hPa 0,0 l/m 5,7 kts (2 Bft) W 274 0 min 0,0 UV-I 0 W/m 12,1 C 11,9 C 6,1 kts (2 Bft) 100,00 %
17.06.2019 02:31 14,2 C 88 % 1020,5 hPa 0,0 l/m 5,9 kts (2 Bft) W 273 0 min 0,0 UV-I 0 W/m 12,2 C 11,8 C 7,0 kts (3 Bft) 100,00 %
17.06.2019 02:30 14,3 C 87 % 1020,5 hPa 0,0 l/m 5,3 kts (2 Bft) W 271 0 min 0,0 UV-I 0 W/m 12,2 C 12,4 C 6,1 kts (2 Bft) 91,30 %
17.06.2019 02:29 14,3 C 87 % 1020,5 hPa 0,0 l/m 5,5 kts (2 Bft) W 271 0 min 0,0 UV-I 0 W/m 12,2 C 12,3 C 6,1 kts (2 Bft) 100,00 %
17.06.2019 02:28 14,4 C 87 % 1020,5 hPa 0,0 l/m 5,8 kts (2 Bft) W 267 0 min 0,0 UV-I 0 W/m 12,3 C 12,1 C 7,0 kts (3 Bft) 100,00 %
17.06.2019 02:27 14,5 C 87 % 1020,4 hPa 0,0 l/m 4,6 kts (2 Bft) W 269 0 min 0,0 UV-I 0 W/m 12,4 C 13,3 C 6,1 kts (2 Bft) 100,00 %
17.06.2019 02:26 14,6 C 87 % 1020,5 hPa 0,0 l/m 5,6 kts (2 Bft) W 274 0 min 0,0 UV-I 0 W/m 12,5 C 12,5 C 7,0 kts (3 Bft) 100,00 %
17.06.2019 02:25 14,6 C 86 % 1020,5 hPa 0,0 l/m 4,9 kts (2 Bft) W 271 0 min 0,0 UV-I 0 W/m 12,3 C 13,1 C 6,1 kts (2 Bft) 100,00 %
17.06.2019 02:24 14,7 C 86 % 1020,4 hPa 0,0 l/m 4,4 kts (2 Bft) W 271 0 min 0,0 UV-I 0 W/m 12,4 C 13,7 C 7,0 kts (3 Bft) 100,00 %
17.06.2019 02:23 14,7 C 86 % 1020,4 hPa 0,0 l/m 4,4 kts (2 Bft) W 259 0 min 0,0 UV-I 0 W/m 12,4 C 13,7 C 6,1 kts (2 Bft) 100,00 %
17.06.2019 02:22 14,6 C 86 % 1020,4 hPa 0,0 l/m 5,5 kts (2 Bft) W 259 0 min 0,0 UV-I 0 W/m 12,3 C 12,6 C 6,1 kts (2 Bft) 100,00 %
17.06.2019 02:21 14,6 C 86 % 1020,4 hPa 0,0 l/m 4,8 kts (2 Bft) W-SW 253 0 min 0,0 UV-I 0 W/m 12,3 C 13,2 C 6,1 kts (2 Bft) 100,00 %
17.06.2019 02:20 14,6 C 86 % 1020,4 hPa 0,0 l/m 5,3 kts (2 Bft) W-SW 257 0 min 0,0 UV-I 0 W/m 12,3 C 12,7 C 6,1 kts (2 Bft) 100,00 %
17.06.2019 02:19 14,7 C 86 % 1020,5 hPa 0,0 l/m 5,0 kts (2 Bft) W 261 0 min 0,0 UV-I 0 W/m 12,4 C 13,1 C 6,1 kts (2 Bft) 96,30 %
17.06.2019 02:18 14,7 C 85 % 1020,5 hPa 0,0 l/m 5,4 kts (2 Bft) W-SW 256 0 min 0,0 UV-I 0 W/m 12,2 C 12,8 C 6,1 kts (2 Bft) 100,00 %
17.06.2019 02:17 14,8 C 86 % 1020,5 hPa 0,0 l/m 5,6 kts (2 Bft) W 260 0 min 0,0 UV-I 0 W/m 12,5 C 12,8 C 7,0 kts (3 Bft) 100,00 %
17.06.2019 02:16 14,8 C 86 % 1020,5 hPa 0,0 l/m 5,9 kts (2 Bft) W-SW 252 0 min 0,0 UV-I 0 W/m 12,5 C 12,5 C 7,0 kts (3 Bft) 100,00 %
17.06.2019 02:15 14,8 C 85 % 1020,5 hPa 0,0 l/m 5,9 kts (2 Bft) W 268 0 min 0,0 UV-I 0 W/m 12,3 C 12,5 C 7,0 kts (3 Bft) 100,00 %
17.06.2019 02:14 14,9 C 86 % 1020,5 hPa 0,0 l/m 5,8 kts (2 Bft) W 266 0 min 0,0 UV-I 0 W/m 12,6 C 12,7 C 7,0 kts (3 Bft) 98,68 %
17.06.2019 02:13 14,8 C 86 % 1020,4 hPa 0,0 l/m 6,0 kts (2 Bft) W 261 0 min 0,0 UV-I 0 W/m 12,5 C 12,4 C 7,0 kts (3 Bft) 100,00 %
17.06.2019 02:12 14,8 C 86 % 1020,4 hPa 0,0 l/m 6,9 kts (3 Bft) W 265 0 min 0,0 UV-I 0 W/m 12,5 C 11,8 C 7,8 kts (3 Bft) 100,00 %
17.06.2019 02:11 14,8 C 86 % 1020,4 hPa 0,0 l/m 6,5 kts (2 Bft) W 263 0 min 0,0 UV-I 0 W/m 12,5 C 12,0 C 7,8 kts (3 Bft) 100,00 %
17.06.2019 02:10 14,7 C 86 % 1020,3 hPa 0,0 l/m 5,7 kts (2 Bft) W-SW 258 0 min 0,0 UV-I 0 W/m 12,4 C 12,5 C 7,0 kts (3 Bft) 96,15 %
17.06.2019 02:09 14,7 C 86 % 1020,3 hPa 0,0 l/m 5,9 kts (2 Bft) W-SW 256 0 min 0,0 UV-I 0 W/m 12,4 C 12,4 C 7,0 kts (3 Bft) 100,00 %
17.06.2019 02:08 14,7 C 86 % 1020,3 hPa 0,0 l/m 6,6 kts (3 Bft) W-SW 257 0 min 0,0 UV-I 0 W/m 12,4 C 11,8 C 7,8 kts (3 Bft) 93,10 %
17.06.2019 02:07 14,7 C 87 % 1020,3 hPa 0,0 l/m 6,8 kts (3 Bft) W-SW 248 0 min 0,0 UV-I 0 W/m 12,6 C 11,7 C 7,8 kts (3 Bft) 96,88 %
17.06.2019 02:06 14,7 C 87 % 1020,3 hPa 0,0 l/m 7,3 kts (3 Bft) W-SW 248 0 min 0,0 UV-I 0 W/m 12,6 C 11,3 C 8,7 kts (3 Bft) 100,00 %
17.06.2019 02:05 14,7 C 88 % 1020,3 hPa 0,0 l/m 7,0 kts (3 Bft) W-SW 243 0 min 0,0 UV-I 0 W/m 12,7 C 11,5 C 7,8 kts (3 Bft) 96,55 %
17.06.2019 02:04 14,6 C 88 % 1020,3 hPa 0,0 l/m 6,7 kts (3 Bft) W-SW 242 0 min 0,0 UV-I 0 W/m 12,6 C 11,7 C 7,8 kts (3 Bft) 100,00 %
17.06.2019 02:03 14,6 C 88 % 1020,4 hPa 0,0 l/m 5,0 kts (2 Bft) W-SW 240 0 min 0,0 UV-I 0 W/m 12,6 C 13,1 C 7,0 kts (3 Bft) 95,65 %
17.06.2019 02:02 14,5 C 88 % 1020,4 hPa 0,0 l/m 5,1 kts (2 Bft) W-SW 240 0 min 0,0 UV-I 0 W/m 12,5 C 12,8 C 7,0 kts (3 Bft) 100,00 %
17.06.2019 02:01 14,5 C 88 % 1020,4 hPa 0,0 l/m 5,5 kts (2 Bft) W-SW 242 0 min 0,0 UV-I 0 W/m 12,5 C 12,5 C 7,8 kts (3 Bft) 95,65 %
17.06.2019 02:00 14,5 C 88 % 1020,4 hPa 0,0 l/m 5,1 kts (2 Bft) W-SW 246 0 min 0,0 UV-I 0 W/m 12,5 C 12,8 C 7,0 kts (3 Bft) 100,00 %
17.06.2019 01:59 14,6 C 88 % 1020,3 hPa 0,0 l/m 4,3 kts (2 Bft) W-SW 247 0 min 0,0 UV-I 0 W/m 12,6 C 13,7 C 6,1 kts (2 Bft) 96,55 %
17.06.2019 01:58 14,6 C 88 % 1020,3 hPa 0,0 l/m 4,1 kts (2 Bft) W-SW 248 0 min 0,0 UV-I 0 W/m 12,6 C 13,9 C 6,1 kts (2 Bft) 96,15 %
17.06.2019 01:57 14,6 C 88 % 1020,3 hPa 0,0 l/m 4,8 kts (2 Bft) W-SW 249 0 min 0,0 UV-I 0 W/m 12,6 C 13,2 C 6,1 kts (2 Bft) 100,00 %
17.06.2019 01:56 14,7 C 88 % 1020,2 hPa 0,0 l/m 5,5 kts (2 Bft) W-SW 258 0 min 0,0 UV-I 0 W/m 12,7 C 12,7 C 6,1 kts (2 Bft) 95,65 %
17.06.2019 01:55 14,7 C 88 % 1020,2 hPa 0,0 l/m 5,7 kts (2 Bft) W 259 0 min 0,0 UV-I 0 W/m 12,7 C 12,6 C 6,1 kts (2 Bft) 100,00 %
17.06.2019 01:54 14,7 C 88 % 1020,2 hPa 0,0 l/m 5,5 kts (2 Bft) W-SW 257 0 min 0,0 UV-I 0 W/m 12,7 C 12,7 C 6,1 kts (2 Bft) 95,65 %
17.06.2019 01:53 14,6 C 88 % 1020,1 hPa 0,0 l/m 5,8 kts (2 Bft) W 259 0 min 0,0 UV-I 0 W/m 12,6 C 12,4 C 7,0 kts (3 Bft) 100,00 %
17.06.2019 01:52 14,6 C 89 % 1020,2 hPa 0,0 l/m 5,8 kts (2 Bft) W 261 0 min 0,0 UV-I 0 W/m 12,8 C 12,3 C 6,1 kts (2 Bft) 96,15 %
17.06.2019 01:51 14,6 C 89 % 1020,1 hPa 0,0 l/m 5,3 kts (2 Bft) W 259 0 min 0,0 UV-I 0 W/m 12,8 C 12,7 C 6,1 kts (2 Bft) 96,15 %
17.06.2019 01:50 14,6 C 89 % 1020,1 hPa 0,0 l/m 5,3 kts (2 Bft) W 263 0 min 0,0 UV-I 0 W/m 12,8 C 12,8 C 6,1 kts (2 Bft) 100,00 %
17.06.2019 01:49 14,6 C 89 % 1020,2 hPa 0,0 l/m 5,1 kts (2 Bft) W 267 0 min 0,0 UV-I 0 W/m 12,8 C 12,9 C 6,1 kts (2 Bft) 92,86 %
17.06.2019 01:48 14,6 C 89 % 1020,2 hPa 0,0 l/m 4,8 kts (2 Bft) W 268 0 min 0,0 UV-I 0 W/m 12,8 C 13,2 C 5,2 kts (2 Bft) 100,00 %
17.06.2019 01:47 14,6 C 89 % 1020,2 hPa 0,0 l/m 5,1 kts (2 Bft) W 268 0 min 0,0 UV-I 0 W/m 12,8 C 12,9 C 6,1 kts (2 Bft) 94,12 %
17.06.2019 01:46 14,7 C 88 % 1020,2 hPa 0,0 l/m 4,4 kts (2 Bft) W 270 0 min 0,0 UV-I 0 W/m 12,7 C 13,7 C 5,2 kts (2 Bft) 100,00 %
17.06.2019 01:45 14,7 C 89 % 1020,2 hPa 0,0 l/m 3,7 kts (2 Bft) W 275 0 min 0,0 UV-I 0 W/m 12,9 C 14,5 C 5,2 kts (2 Bft) 96,30 %
17.06.2019 01:44 14,7 C 89 % 1020,3 hPa 0,0 l/m 4,5 kts (2 Bft) W 275 0 min 0,0 UV-I 0 W/m 12,9 C 13,6 C 5,2 kts (2 Bft) 100,00 %
17.06.2019 01:43 14,6 C 89 % 1020,3 hPa 0,0 l/m 3,7 kts (2 Bft) W 274 0 min 0,0 UV-I 0 W/m 12,8 C 14,4 C 5,2 kts (2 Bft) 95,83 %
17.06.2019 01:42 14,7 C 88 % 1020,4 hPa 0,0 l/m 4,5 kts (2 Bft) W 274 0 min 0,0 UV-I 0 W/m 12,7 C 13,6 C 5,2 kts (2 Bft) 100,00 %
17.06.2019 01:41 14,7 C 89 % 1020,3 hPa 0,0 l/m 4,6 kts (2 Bft) W 273 0 min 0,0 UV-I 0 W/m 12,9 C 13,5 C 5,2 kts (2 Bft) 95,12 %
17.06.2019 01:40 14,8 C 88 % 1020,3 hPa 0,0 l/m 4,6 kts (2 Bft) W 271 0 min 0,0 UV-I 0 W/m 12,8 C 13,6 C 6,1 kts (2 Bft) 100,00 %
17.06.2019 01:39 14,8 C 88 % 1020,4 hPa 0,0 l/m 4,7 kts (2 Bft) W 269 0 min 0,0 UV-I 0 W/m 12,8 C 13,5 C 6,1 kts (2 Bft) 100,00 %
17.06.2019 01:38 14,8 C 88 % 1020,2 hPa 0,0 l/m 4,9 kts (2 Bft) W 269 0 min 0,0 UV-I 0 W/m 12,8 C 13,4 C 6,1 kts (2 Bft) 100,00 %
17.06.2019 01:37 14,9 C 88 % 1020,3 hPa 0,0 l/m 5,1 kts (2 Bft) W 272 0 min 0,0 UV-I 0 W/m 12,9 C 13,2 C 6,1 kts (2 Bft) 100,00 %
17.06.2019 01:36 14,8 C 88 % 1020,2 hPa 0,0 l/m 5,3 kts (2 Bft) W 273 0 min 0,0 UV-I 0 W/m 12,8 C 13,0 C 6,1 kts (2 Bft) 100,00 %
17.06.2019 01:35 14,9 C 88 % 1020,1 hPa 0,0 l/m 4,8 kts (2 Bft) W 268 0 min 0,0 UV-I 0 W/m 12,9 C 13,5 C 5,2 kts (2 Bft) 100,00 %
17.06.2019 01:34 14,9 C 88 % 1020,1 hPa 0,0 l/m 4,8 kts (2 Bft) W 269 0 min 0,0 UV-I 0 W/m 12,9 C 13,5 C 6,1 kts (2 Bft) 100,00 %
17.06.2019 01:33 14,9 C 88 % 1020,3 hPa 0,0 l/m 5,0 kts (2 Bft) W 263 0 min 0,0 UV-I 0 W/m 12,9 C 13,3 C 5,2 kts (2 Bft) 100,00 %
17.06.2019 01:32 14,9 C 88 % 1020,3 hPa 0,0 l/m 5,0 kts (2 Bft) W 259 0 min 0,0 UV-I 0 W/m 12,9 C 13,3 C 6,1 kts (2 Bft) 100,00 %
17.06.2019 01:31 14,9 C 88 % 1020,3 hPa 0,0 l/m 5,0 kts (2 Bft) W-SW 258 0 min 0,0 UV-I 0 W/m 12,9 C 13,3 C 6,1 kts (2 Bft) 100,00 %
17.06.2019 01:30 14,9 C 89 % 1020,3 hPa 0,0 l/m 4,7 kts (2 Bft) W-SW 258 0 min 0,0 UV-I 0 W/m 13,1 C 13,6 C 5,2 kts (2 Bft) 100,00 %
17.06.2019 01:29 14,9 C 89 % 1020,3 hPa 0,0 l/m 4,0 kts (2 Bft) W-SW 258 0 min 0,0 UV-I 0 W/m 13,1 C 14,3 C 5,2 kts (2 Bft) 100,00 %
17.06.2019 01:28 14,9 C 89 % 1020,3 hPa 0,0 l/m 3,3 kts (2 Bft) W-SW 258 0 min 0,0 UV-I 0 W/m 13,1 C 14,9 C 3,5 kts (2 Bft) 100,00 %
17.06.2019 01:27 14,9 C 89 % 1020,2 hPa 0,0 l/m 3,5 kts (2 Bft) W-SW 258 0 min 0,0 UV-I 0 W/m 13,1 C 14,9 C 5,2 kts (2 Bft) 100,00 %
17.06.2019 01:26 14,9 C 89 % 1020,2 hPa 0,0 l/m 3,7 kts (2 Bft) W-SW 258 0 min 0,0 UV-I 0 W/m 13,1 C 14,7 C 5,2 kts (2 Bft) 100,00 %
17.06.2019 01:25 14,9 C 89 % 1020,3 hPa 0,0 l/m 3,3 kts (2 Bft) W-SW 257 0 min 0,0 UV-I 0 W/m 13,1 C 14,9 C 4,3 kts (2 Bft) 100,00 %
17.06.2019 01:24 14,9 C 89 % 1020,3 hPa 0,0 l/m 3,2 kts (2 Bft) W-SW 257 0 min 0,0 UV-I 0 W/m 13,1 C 14,9 C 3,5 kts (2 Bft) 95,83 %
17.06.2019 01:23 14,9 C 89 % 1020,4 hPa 0,0 l/m 2,9 kts (1 Bft) W-SW 257 0 min 0,0 UV-I 0 W/m 13,1 C 14,9 C 3,5 kts (2 Bft) 100,00 %
17.06.2019 01:22 14,8 C 89 % 1020,3 hPa 0,0 l/m 2,7 kts (1 Bft) W-SW 258 0 min 0,0 UV-I 0 W/m 13,0 C 14,8 C 3,5 kts (2 Bft) 100,00 %
17.06.2019 01:21 14,8 C 89 % 1020,5 hPa 0,0 l/m 2,6 kts (1 Bft) W-SW 257 0 min 0,0 UV-I 0 W/m 13,0 C 14,8 C 3,5 kts (2 Bft) 100,00 %
17.06.2019 01:20 14,8 C 89 % 1020,5 hPa 0,0 l/m 2,5 kts (1 Bft) W-SW 257 0 min 0,0 UV-I 0 W/m 13,0 C 14,8 C 2,6 kts (1 Bft) 100,00 %
17.06.2019 01:19 14,8 C 89 % 1020,5 hPa 0,0 l/m 2,5 kts (1 Bft) W-SW 257 0 min 0,0 UV-I 0 W/m 13,0 C 14,8 C 3,5 kts (2 Bft) 100,00 %
17.06.2019 01:18 14,7 C 89 % 1020,5 hPa 0,0 l/m 2,6 kts (1 Bft) W-SW 257 0 min 0,0 UV-I 0 W/m 12,9 C 14,7 C 2,6 kts (1 Bft) 100,00 %
17.06.2019 01:17 14,7 C 89 % 1020,6 hPa 0,0 l/m 2,6 kts (1 Bft) W-SW 257 0 min 0,0 UV-I 0 W/m 12,9 C 14,7 C 2,6 kts (1 Bft) 100,00 %
17.06.2019 01:16 14,7 C 90 % 1020,6 hPa 0,0 l/m 2,3 kts (1 Bft) W-SW 257 0 min 0,0 UV-I 0 W/m 13,1 C 14,7 C 2,6 kts (1 Bft) 100,00 %
17.06.2019 01:15 14,6 C 89 % 1020,5 hPa 0,0 l/m 2,2 kts (1 Bft) W-SW 257 0 min 0,0 UV-I 0 W/m 12,8 C 14,6 C 2,6 kts (1 Bft) 100,00 %
17.06.2019 01:14 14,6 C 89 % 1020,5 hPa 0,0 l/m 2,1 kts (1 Bft) W-SW 257 0 min 0,0 UV-I 0 W/m 12,8 C 14,6 C 2,6 kts (1 Bft) 100,00 %
17.06.2019 01:13 14,7 C 89 % 1020,6 hPa 0,0 l/m 1,9 kts (1 Bft) W-SW 257 0 min 0,0 UV-I 0 W/m 12,9 C 14,7 C 2,6 kts (1 Bft) 100,00 %
17.06.2019 01:12 14,7 C 89 % 1020,5 hPa 0,0 l/m 1,5 kts (1 Bft) W-SW 257 0 min 0,0 UV-I 0 W/m 12,9 C 14,7 C 1,7 kts (1 Bft) 100,00 %
17.06.2019 01:11 14,8 C 88 % 1020,5 hPa 0,0 l/m 1,9 kts (1 Bft) W-SW 257 0 min 0,0 UV-I 0 W/m 12,8 C 14,8 C 2,6 kts (1 Bft) 96,15 %
17.06.2019 01:10 14,9 C 87 % 1020,6 hPa 0,0 l/m 2,2 kts (1 Bft) W-SW 257 0 min 0,0 UV-I 0 W/m 12,8 C 14,9 C 2,6 kts (1 Bft) 100,00 %
17.06.2019 01:09 15,1 C 86 % 1020,5 hPa 0,0 l/m 2,5 kts (1 Bft) W-SW 257 0 min 0,0 UV-I 0 W/m 12,8 C 15,1 C 3,5 kts (2 Bft) 100,00 %
17.06.2019 01:08 15,2 C 86 % 1020,5 hPa 0,0 l/m 2,6 kts (1 Bft) W-SW 257 0 min 0,0 UV-I 0 W/m 12,9 C 15,2 C 3,5 kts (2 Bft) 100,00 %
17.06.2019 01:07 15,4 C 85 % 1020,5 hPa 0,0 l/m 3,2 kts (2 Bft) W-SW 257 0 min 0,0 UV-I 0 W/m 12,9 C 15,4 C 3,5 kts (2 Bft) 100,00 %
17.06.2019 01:06 15,5 C 85 % 1020,6 hPa 0,0 l/m 3,3 kts (2 Bft) W-SW 257 0 min 0,0 UV-I 0 W/m 13,0 C 15,5 C 3,5 kts (2 Bft) 100,00 %
17.06.2019 01:05 15,6 C 85 % 1020,6 hPa 0,0 l/m 3,9 kts (2 Bft) W-SW 257 0 min 0,0 UV-I 0 W/m 13,1 C 15,2 C 5,2 kts (2 Bft) 100,00 %
17.06.2019 01:04 15,7 C 85 % 1020,6 hPa 0,0 l/m 4,3 kts (2 Bft) W-SW 258 0 min 0,0 UV-I 0 W/m 13,2 C 14,8 C 5,2 kts (2 Bft) 100,00 %
17.06.2019 01:03 15,7 C 85 % 1020,6 hPa 0,0 l/m 4,2 kts (2 Bft) W-SW 255 0 min 0,0 UV-I 0 W/m 13,2 C 15,0 C 6,1 kts (2 Bft) 100,00 %
17.06.2019 01:02 15,7 C 85 % 1020,5 hPa 0,0 l/m 4,7 kts (2 Bft) W-SW 252 0 min 0,0 UV-I 0 W/m 13,2 C 14,5 C 7,0 kts (3 Bft) 100,00 %
17.06.2019 01:01 15,6 C 85 % 1020,4 hPa 0,0 l/m 5,9 kts (2 Bft) W-SW 251 0 min 0,0 UV-I 0 W/m 13,1 C 13,4 C 7,8 kts (3 Bft) 100,00 %
17.06.2019 01:00 15,6 C 85 % 1020,5 hPa 0,0 l/m 5,9 kts (2 Bft) W-SW 257 0 min 0,0 UV-I 0 W/m 13,1 C 13,4 C 7,0 kts (3 Bft) 100,00 %
17.06.2019 00:59 15,4 C 85 % 1020,5 hPa 0,0 l/m 6,2 kts (2 Bft) W-SW 256 0 min 0,0 UV-I 0 W/m 12,9 C 12,9 C 7,8 kts (3 Bft) 100,00 %
17.06.2019 00:58 15,3 C 86 % 1020,4 hPa 0,0 l/m 6,2 kts (2 Bft) W-SW 252 0 min 0,0 UV-I 0 W/m 13,0 C 12,9 C 7,0 kts (3 Bft) 100,00 %
17.06.2019 00:57 15,2 C 86 % 1020,4 hPa 0,0 l/m 6,4 kts (2 Bft) W-SW 257 0 min 0,0 UV-I 0 W/m 12,9 C 12,6 C 7,0 kts (3 Bft) 100,00 %
17.06.2019 00:56 15,1 C 87 % 1020,4 hPa 0,0 l/m 6,4 kts (2 Bft) W-SW 258 0 min 0,0 UV-I 0 W/m 13,0 C 12,5 C 7,0 kts (3 Bft) 100,00 %
17.06.2019 00:55 14,9 C 87 % 1020,4 hPa 0,0 l/m 6,7 kts (3 Bft) W 263 0 min 0,0 UV-I 0 W/m 12,8 C 12,0 C 7,0 kts (3 Bft) 100,00 %
17.06.2019 00:54 14,7 C 88 % 1020,4 hPa 0,0 l/m 6,7 kts (3 Bft) W 263 0 min 0,0 UV-I 0 W/m 12,7 C 11,7 C 7,0 kts (3 Bft) 100,00 %
17.06.2019 00:53 14,6 C 88 % 1020,4 hPa 0,0 l/m 7,0 kts (3 Bft) W 265 0 min 0,0 UV-I 0 W/m 12,6 C 11,5 C 7,8 kts (3 Bft) 100,00 %
17.06.2019 00:52 14,6 C 88 % 1020,4 hPa 0,0 l/m 6,1 kts (2 Bft) W 259 0 min 0,0 UV-I 0 W/m 12,6 C 12,1 C 6,1 kts (2 Bft) 100,00 %
17.06.2019 00:50 14,8 C 88 % 1020,5 hPa 0,0 l/m 5,8 kts (2 Bft) W-SW 257 0 min 0,0 UV-I 0 W/m 12,8 C 12,5 C 7,0 kts (3 Bft) 100,00 %
17.06.2019 00:49 14,8 C 87 % 1020,5 hPa 0,0 l/m 5,8 kts (2 Bft) W-SW 257 0 min 0,0 UV-I 0 W/m 12,7 C 12,5 C 6,1 kts (2 Bft) 100,00 %
17.06.2019 00:48 14,9 C 87 % 1020,5 hPa 0,0 l/m 5,7 kts (2 Bft) W 262 0 min 0,0 UV-I 0 W/m 12,8 C 12,8 C 6,1 kts (2 Bft) 100,00 %
17.06.2019 00:47 15,0 C 87 % 1020,6 hPa 0,0 l/m 5,2 kts (2 Bft) W 261 0 min 0,0 UV-I 0 W/m 12,9 C 13,3 C 6,1 kts (2 Bft) 98,18 %
17.06.2019 00:45 15,2 C 85 % 1020,5 hPa 0,0 l/m 4,9 kts (2 Bft) W 267 0 min 0,0 UV-I 0 W/m 12,7 C 13,8 C 5,2 kts (2 Bft) 100,00 %
17.06.2019 00:44 15,3 C 85 % 1020,5 hPa 0,0 l/m 4,8 kts (2 Bft) W 272 0 min 0,0 UV-I 0 W/m 12,8 C 14,0 C 6,1 kts (2 Bft) 100,00 %
17.06.2019 00:43 15,6 C 84 % 1020,7 hPa 0,0 l/m 3,7 kts (2 Bft) W 273 0 min 0,0 UV-I 0 W/m 12,9 C 15,4 C 5,2 kts (2 Bft) 100,00 %
17.06.2019 00:42 15,7 C 84 % 1020,6 hPa 0,0 l/m 4,0 kts (2 Bft) W 273 0 min 0,0 UV-I 0 W/m 13,0 C 15,1 C 5,2 kts (2 Bft) 100,00 %
17.06.2019 00:41 15,9 C 83 % 1020,6 hPa 0,0 l/m 3,4 kts (2 Bft) W 269 0 min 0,0 UV-I 0 W/m 13,0 C 15,9 C 6,1 kts (2 Bft) 100,00 %
17.06.2019 00:40 16,1 C 81 % 1020,7 hPa 0,0 l/m 2,5 kts (1 Bft) W 273 0 min 0,0 UV-I 0 W/m 12,8 C 16,1 C 3,5 kts (2 Bft) 100,00 %
17.06.2019 00:39 16,3 C 80 % 1020,7 hPa 0,0 l/m 3,0 kts (1 Bft) W 273 0 min 0,0 UV-I 0 W/m 12,8 C 16,3 C 5,2 kts (2 Bft) 100,00 %
17.06.2019 00:38 16,4 C 80 % 1020,7 hPa 0,0 l/m 4,0 kts (2 Bft) W 261 0 min 0,0 UV-I 0 W/m 12,9 C 15,9 C 6,1 kts (2 Bft) 96,30 %
17.06.2019 00:37 16,6 C 80 % 1020,6 hPa 0,0 l/m 4,1 kts (2 Bft) W 261 0 min 0,0 UV-I 0 W/m 13,1 C 16,0 C 5,2 kts (2 Bft) 100,00 %
17.06.2019 00:36 16,6 C 79 % 1020,6 hPa 0,0 l/m 5,2 kts (2 Bft) W 268 0 min 0,0 UV-I 0 W/m 12,9 C 15,1 C 6,1 kts (2 Bft) 100,00 %
17.06.2019 00:35 16,6 C 79 % 1020,6 hPa 0,0 l/m 5,2 kts (2 Bft) W 271 0 min 0,0 UV-I 0 W/m 12,9 C 15,0 C 7,0 kts (3 Bft) 100,00 %
17.06.2019 00:34 16,6 C 79 % 1020,7 hPa 0,0 l/m 6,3 kts (2 Bft) W 268 0 min 0,0 UV-I 0 W/m 12,9 C 14,2 C 7,0 kts (3 Bft) 99,07 %
17.06.2019 00:33 16,6 C 79 % 1020,5 hPa 0,0 l/m 5,2 kts (2 Bft) W 263 0 min 0,0 UV-I 0 W/m 12,9 C 15,0 C 5,2 kts (2 Bft) 97,51 %
17.06.2019 00:32 16,7 C 79 % 1020,5 hPa 0,0 l/m 6,1 kts (2 Bft) W 264 0 min 0,0 UV-I 0 W/m 13,0 C 14,5 C 6,1 kts (2 Bft) 97,51 %
17.06.2019 00:31 16,7 C 79 % 1020,4 hPa 0,0 l/m 7,0 kts (3 Bft) W 262 0 min 0,0 UV-I 0 W/m 13,0 C 13,9 C 7,0 kts (3 Bft) 97,51 %
17.06.2019 00:30 16,7 C 79 % 1020,5 hPa 0,0 l/m 7,1 kts (3 Bft) W 261 0 min 0,0 UV-I 0 W/m 13,0 C 13,9 C 7,8 kts (3 Bft) 100,00 %
17.06.2019 00:29 16,7 C 79 % 1020,5 hPa 0,0 l/m 6,8 kts (3 Bft) W 265 0 min 0,0 UV-I 0 W/m 13,0 C 14,0 C 8,7 kts (3 Bft) 100,00 %
17.06.2019 00:28 16,7 C 79 % 1020,4 hPa 0,0 l/m 7,6 kts (3 Bft) W 261 0 min 0,0 UV-I 0 W/m 13,0 C 13,5 C 8,7 kts (3 Bft) 100,00 %
17.06.2019 00:27 16,7 C 79 % 1020,3 hPa 0,0 l/m 7,2 kts (3 Bft) W 269 0 min 0,0 UV-I 0 W/m 13,0 C 13,8 C 7,8 kts (3 Bft) 100,00 %
17.06.2019 00:26 16,7 C 79 % 1020,4 hPa 0,0 l/m 7,1 kts (3 Bft) W 265 0 min 0,0 UV-I 0 W/m 13,0 C 13,9 C 7,8 kts (3 Bft) 96,30 %
17.06.2019 00:25 16,7 C 79 % 1020,3 hPa 0,0 l/m 8,0 kts (3 Bft) W 265 0 min 0,0 UV-I 0 W/m 13,0 C 13,3 C 8,7 kts (3 Bft) 96,15 %
17.06.2019 00:24 16,7 C 79 % 1020,3 hPa 0,0 l/m 7,0 kts (3 Bft) W 272 0 min 0,0 UV-I 0 W/m 13,0 C 13,9 C 7,8 kts (3 Bft) 98,00 %
17.06.2019 00:23 16,7 C 79 % 1020,4 hPa 0,0 l/m 6,4 kts (2 Bft) W 268 0 min 0,0 UV-I 0 W/m 13,0 C 14,3 C 7,8 kts (3 Bft) 97,22 %
17.06.2019 00:22 16,8 C 79 % 1020,4 hPa 0,0 l/m 6,2 kts (2 Bft) W 269 0 min 0,0 UV-I 0 W/m 13,1 C 14,5 C 7,0 kts (3 Bft) 100,00 %
17.06.2019 00:21 16,8 C 79 % 1020,4 hPa 0,0 l/m 6,4 kts (2 Bft) W 277 0 min 0,0 UV-I 0 W/m 13,1 C 14,4 C 7,0 kts (3 Bft) 91,67 %
17.06.2019 00:20 16,8 C 78 % 1020,3 hPa 0,0 l/m 6,6 kts (2 Bft) W 265 0 min 0,0 UV-I 0 W/m 12,9 C 14,3 C 7,8 kts (3 Bft) 96,15 %
17.06.2019 00:19 16,8 C 79 % 1020,4 hPa 0,0 l/m 5,9 kts (2 Bft) W 274 0 min 0,0 UV-I 0 W/m 13,1 C 14,8 C 7,0 kts (3 Bft) 95,83 %
17.06.2019 00:18 16,8 C 79 % 1020,4 hPa 0,0 l/m 5,5 kts (2 Bft) W 278 0 min 0,0 UV-I 0 W/m 13,1 C 15,1 C 7,0 kts (3 Bft) 100,00 %
17.06.2019 00:17 16,8 C 78 % 1020,5 hPa 0,0 l/m 4,7 kts (2 Bft) W 280 0 min 0,0 UV-I 0 W/m 12,9 C 15,7 C 7,0 kts (3 Bft) 91,67 %
17.06.2019 00:16 16,8 C 78 % 1020,5 hPa 0,0 l/m 4,2 kts (2 Bft) W 279 0 min 0,0 UV-I 0 W/m 12,9 C 16,1 C 5,2 kts (2 Bft) 100,00 %
17.06.2019 00:15 16,9 C 78 % 1020,5 hPa 0,0 l/m 5,1 kts (2 Bft) W 277 0 min 0,0 UV-I 0 W/m 13,0 C 15,4 C 6,1 kts (2 Bft) 91,30 %
17.06.2019 00:14 16,9 C 78 % 1020,5 hPa 0,0 l/m 5,3 kts (2 Bft) W 277 0 min 0,0 UV-I 0 W/m 13,0 C 15,3 C 7,0 kts (3 Bft) 95,83 %
17.06.2019 00:13 16,9 C 78 % 1020,5 hPa 0,0 l/m 4,0 kts (2 Bft) W-NW 284 0 min 0,0 UV-I 0 W/m 13,0 C 16,4 C 5,2 kts (2 Bft) 100,00 %
17.06.2019 00:12 16,9 C 78 % 1020,5 hPa 0,0 l/m 5,5 kts (2 Bft) W-NW 282 0 min 0,0 UV-I 0 W/m 13,0 C 15,2 C 6,1 kts (2 Bft) 93,33 %
17.06.2019 00:11 16,9 C 78 % 1020,5 hPa 0,0 l/m 4,9 kts (2 Bft) W-NW 284 0 min 0,0 UV-I 0 W/m 13,0 C 15,6 C 6,1 kts (2 Bft) 100,00 %
17.06.2019 00:10 16,9 C 78 % 1020,5 hPa 0,0 l/m 4,9 kts (2 Bft) W-NW 292 0 min 0,0 UV-I 0 W/m 13,0 C 15,6 C 7,0 kts (3 Bft) 95,65 %
17.06.2019 00:09 16,9 C 78 % 1020,5 hPa 0,0 l/m 4,8 kts (2 Bft) W 277 0 min 0,0 UV-I 0 W/m 13,0 C 15,7 C 6,1 kts (2 Bft) 100,00 %
17.06.2019 00:08 16,9 C 78 % 1020,5 hPa 0,0 l/m 5,6 kts (2 Bft) W 279 0 min 0,0 UV-I 0 W/m 13,0 C 15,1 C 6,1 kts (2 Bft) 94,12 %
17.06.2019 00:07 16,9 C 78 % 1020,5 hPa 0,0 l/m 5,7 kts (2 Bft) W 279 0 min 0,0 UV-I 0 W/m 13,0 C 15,0 C 6,1 kts (2 Bft) 100,00 %
17.06.2019 00:06 16,9 C 78 % 1020,6 hPa 0,0 l/m 6,2 kts (2 Bft) W 274 0 min 0,0 UV-I 0 W/m 13,0 C 14,6 C 7,0 kts (3 Bft) 96,55 %
17.06.2019 00:05 17,0 C 79 % 1020,5 hPa 0,0 l/m 6,7 kts (3 Bft) W 275 0 min 0,0 UV-I 0 W/m 13,3 C 14,4 C 7,8 kts (3 Bft) 95,65 %
17.06.2019 00:04 16,9 C 79 % 1020,5 hPa 0,0 l/m 6,5 kts (2 Bft) W 279 0 min 0,0 UV-I 0 W/m 13,2 C 14,5 C 7,0 kts (3 Bft) 100,00 %
17.06.2019 00:03 17,0 C 78 % 1020,5 hPa 0,0 l/m 6,2 kts (2 Bft) W 267 0 min 0,0 UV-I 0 W/m 13,1 C 14,8 C 7,0 kts (3 Bft) 95,65 %
17.06.2019 00:02 17,0 C 79 % 1020,5 hPa 0,0 l/m 6,8 kts (3 Bft) W 273 0 min 0,0 UV-I 0 W/m 13,3 C 14,4 C 7,8 kts (3 Bft) 100,00 %
17.06.2019 00:01 17,1 C 78 % 1020,6 hPa 0,0 l/m 6,1 kts (2 Bft) W 267 0 min 0,0 UV-I 0 W/m 13,2 C 14,9 C 7,8 kts (3 Bft) 92,86 %
17.06.2019 00:00 17,1 C 78 % 1020,6 hPa 0,0 l/m 5,8 kts (2 Bft) W 267 0 min 0,0 UV-I 0 W/m 13,2 C 15,1 C 7,0 kts (3 Bft) 100,00 %
_ Min-Zeit 04:43 11:36 01:34 - 10:01 - - - - - 04:43 03:57 06:22 13:01
Minimum _ 11,7 C 61 % 1020,1 hPa - 0,2 kts (0 Bft) - - - - - 10,4 C 9,1 C 0,9 kts (1 Bft) 81,82 %
_ Max-Zeit 13:09 02:50 08:16 00:00 13:08 - - 08:41 13:08 11:18 13:08 11:20 13:08 00:00
Maximum _ 23,4 C 94 % 1021,3 hPa 0,0 l/m 10,8 kts
N-NO (4 Bft)
- - 3 min 6,3 UV-I 1018 W/m 16,6 C 22,7 C 13,0 kts
NO (4 Bft)
100,00 %
Durchschnitt _ 16,9 C 80 % 1020,8 hPa #0,0 l/m 4,6 kts (2 Bft) N-NO - #5:56 h 2,9 UV-I 368 W/m 13,4 C 15,9 C 5,8 kts (2 Bft) 98,91 %